[[{"header":{"parameterUnit":"m.s-1","parameterCategory":1,"la1":31.0,"la2":29.5877,"lo1":-88.7671,"lo2":-86.6584,"dy":0.0162,"dx":0.0185,"nx":115,"ny":88,"refTime":"2026-03-15T12:00:00:Z","depth":0,"parameterNumber":2,"parameterNumberName":"U-component_of_WINDS"},"data":[0.0,0.0,0.0,0.0,0.0,0.0,0.0,0.0,0.0,0.0,0.0,0.0,0.0,0.0,0.0,0.0,0.0,0.0,0.0,0.0,0.0,0.0,0.0,0.0,0.0,0.0,0.0,0.0,0.0,0.0,0.0,0.0,0.0,0.0,0.0,0.0,0.0,0.0,0.0,0.0,0.0,0.0,0.0,0.0,0.0,0.0,0.0,0.0,0.0,0.0,0.0,0.0,0.0,0.0,0.0,0.0,0.0,0.0,0.0,0.0,0.0,0.0,0.0,0.0,0.0,0.0,0.0,0.0,0.0,0.0,0.0,0.0,0.0,0.0,0.0,0.0,0.0,0.0,0.0,0.0,0.0,0.0,0.0,0.0,0.0,0.0,0.0,0.0,0.0,0.0,0.0,0.0,0.0,0.0,0.0,0.0,0.0,0.0,0.0,0.0,0.0,0.0,0.0,0.0,0.0,0.0,0.0,0.0,0.0,0.0,0.0,0.0,0.0,0.0,0.0,0.0,0.0,0.0,0.0,0.0,0.0,0.0,0.0,0.0,0.0,0.0,0.0,0.0,0.0,0.0,0.0,0.0,0.0,0.0,0.0,0.0,0.0,0.0,0.0,0.0,0.0,0.0,0.0,0.0,0.0,0.0,0.0,0.0,0.0,0.0,0.0,0.0,0.0,0.0,0.0,0.0,0.0,0.0,0.0,0.0,0.0,0.0,0.0,0.0,0.0,0.0,0.0,0.0,0.0,0.0,0.0,0.0,0.0,0.0,0.0,0.0,0.0,0.0,0.0,0.0,0.0,0.0,0.0,0.0,0.0,0.0,0.0,0.0,0.0,0.0,0.0,0.0,0.0,0.0,0.0,0.0,0.0,0.0,0.0,0.0,0.0,0.0,0.0,0.0,0.0,0.0,0.0,0.0,0.0,0.0,0.0,0.0,0.0,0.0,0.0,0.0,0.0,0.0,0.0,0.0,0.0,0.0,0.0,0.0,0.0,0.0,0.0,0.0,0.0,0.0,0.0,0.0,0.0,0.0,0.0,0.0,0.0,0.0,0.0,0.0,0.0,0.0,0.0,0.0,0.0,0.0,0.0,0.0,0.0,0.0,0.0,0.0,0.0,0.0,0.0,0.0,0.0,0.0,0.0,0.0,0.0,0.0,0.0,0.0,0.0,0.0,0.0,0.0,0.0,0.0,0.0,0.0,0.0,0.0,0.0,0.0,0.0,0.0,0.0,0.0,0.0,0.0,0.0,0.0,0.0,0.0,0.0,0.0,0.0,0.0,0.0,0.0,0.0,0.0,0.0,0.0,0.0,0.0,0.0,0.0,0.0,0.0,0.0,0.0,0.0,0.0,0.0,0.0,0.0,0.0,0.0,0.0,0.0,0.0,0.0,0.0,0.0,0.0,0.0,0.0,0.0,0.0,0.0,0.0,0.0,0.0,0.0,0.0,0.0,0.0,0.0,0.0,0.0,0.0,0.0,0.0,0.0,0.0,0.0,0.0,0.0,0.0,0.0,0.0,0.0,0.0,0.0,0.0,0.0,0.0,0.0,0.0,0.0,0.0,0.0,0.0,0.0,0.0,0.0,0.0,0.0,0.0,0.0,0.0,0.0,0.0,0.0,0.0,0.0,0.0,0.0,0.0,0.0,0.0,0.0,0.0,0.0,0.0,0.0,0.0,0.0,0.0,0.0,0.0,0.0,0.0,0.0,0.0,0.0,0.0,0.0,0.0,0.0,0.0,0.0,0.0,0.0,0.0,0.0,0.0,0.0,0.0,0.0,0.0,0.0,0.0,0.0,0.0,0.0,0.0,0.0,0.0,0.0,0.0,0.0,0.0,0.0,0.0,0.0,0.0,0.0,0.0,0.0,0.0,0.0,0.0,0.0,0.0,0.0,0.0,0.0,0.0,0.0,0.0,0.0,0.0,0.0,0.0,0.0,0.0,0.0,0.0,0.0,0.0,0.0,0.0,0.0,0.0,0.0,0.0,0.0,0.0,0.0,0.0,0.0,0.0,0.0,0.0,0.0,0.0,0.0,0.0,0.0,0.0,0.0,0.0,0.0,0.0,0.0,0.0,0.0,0.0,0.0,0.0,0.0,0.0,0.0,0.0,0.0,0.0,0.0,0.0,0.0,0.0,0.0,0.0,0.0,0.0,0.0,0.0,0.0,0.0,0.0,0.0,0.0,0.0,0.0,0.0,0.0,0.0,0.0,0.0,0.0,0.0,0.0,0.0,0.0,0.0,0.0,0.0,0.0,0.0,0.0,0.0,0.0,0.0,0.0,0.0,0.0,0.0,0.0,0.0,0.0,0.0,0.0,0.0,0.0,0.0,0.0,0.0,0.0,0.0,0.0,0.0,0.0,0.0,0.0,0.0,0.0,0.0,0.0,0.0,0.0,0.0,0.0,0.0,0.0,0.0,0.0,0.0,0.0,0.0,0.0,0.0,0.0,0.0,0.0,0.0,0.0,0.0,0.0,0.0,0.0,0.0,0.0,0.0,0.0,0.0,0.0,0.0,0.0,0.0,0.0,0.0,0.0,0.0,0.0,0.0,0.0,0.0,0.0,0.0,0.0,0.0,0.0,0.0,0.0,0.0,0.0,0.0,0.0,0.0,0.0,0.0,0.0,0.0,0.0,0.0,0.0,0.0,0.0,0.0,0.0,0.0,0.0,0.0,0.0,0.0,0.0,0.0,0.0,0.0,0.0,0.0,0.0,0.0,0.0,0.0,0.0,0.0,0.0,0.0,0.0,0.0,0.0,0.0,0.0,0.0,0.0,0.0,0.0,0.0,0.0,0.0,0.0,0.0,0.0,0.0,0.0,0.0,0.0,0.0,0.0,0.0,0.0,0.0,0.0,0.0,0.0,0.0,0.0,0.0,0.0,0.0,0.0,0.0,0.0,0.0,0.0,0.0,0.0,0.0,0.0,0.0,0.0,0.0,0.0,0.0,0.0,0.0,0.0,0.0,0.0,0.0,0.0,0.0,0.0,0.0,0.0,0.0,0.0,0.0,0.0,0.0,0.0,0.0,0.0,0.0,0.0,0.0,0.0,0.0,0.0,0.0,0.0,0.0,0.0,0.0,0.0,0.0,0.0,0.0,0.0,0.0,0.0,0.0,0.0,0.0,0.0,0.0,0.0,0.0,0.0,0.0,0.0,0.0,0.0,0.0,0.0,0.0,0.0,0.0,0.0,0.0,0.0,0.0,0.0,0.0,0.0,0.0,0.0,0.0,0.0,0.0,0.0,0.0,0.0,0.0,0.0,0.0,0.0,0.0,0.0,0.0,0.0,0.0,0.0,0.0,0.0,0.0,0.0,0.0,0.0,0.0,0.0,0.0,0.0,0.0,0.0,0.0,0.0,0.0,0.0,0.0,0.0,0.0,0.0,0.0,0.0,0.0,0.0,0.0,0.0,0.0,0.0,0.0,0.0,0.0,0.0,0.0,0.0,0.0,0.0,0.0,0.0,0.0,0.0,0.0,0.0,0.0,0.0,0.0,0.0,0.0,0.0,0.0,0.0,0.0,0.0,0.0,0.0,0.0,0.0,0.0,0.0,0.0,0.0,0.0,0.0,0.0,0.0,0.0,0.0,0.0,0.0,0.0,0.0,0.0,0.0,0.0,0.0,0.0,0.0,0.0,0.0,0.0,0.0,0.0,0.0,0.0,0.0,0.0,0.0,0.0,0.0,0.0,0.0,0.0,0.0,0.0,0.0,0.0,0.0,0.0,0.0,0.0,0.0,0.0,0.0,0.0,0.0,0.0,0.0,0.0,0.0,0.0,0.0,0.0,0.0,0.0,0.0,0.0,0.0,0.0,0.0,0.0,0.0,0.0,0.0,0.0,0.0,0.0,0.0,0.0,0.0,0.0,0.0,0.0,0.0,0.0,0.0,0.0,0.0,0.0,0.0,0.0,0.0,0.0,0.0,0.0,0.0,0.0,0.0,0.0,0.0,0.0,0.0,0.0,0.0,0.0,0.0,0.0,0.0,0.0,0.0,0.0,0.0,0.0,0.0,0.0,0.0,0.0,0.0,0.0,0.0,0.0,0.0,0.0,0.0,0.0,0.0,0.0,0.0,0.0,0.0,0.0,0.0,0.0,0.0,0.0,0.0,0.0,0.0,0.0,0.0,0.0,0.0,0.0,0.0,0.0,0.0,0.0,0.0,0.0,0.0,0.0,0.0,0.0,0.0,0.0,0.0,0.0,0.0,0.0,0.0,0.0,0.0,0.0,0.0,0.0,0.0,0.0,0.0,0.0,0.0,0.0,-6.4375,0.0,0.0,0.0,0.0,0.0,0.0,0.0,0.0,0.0,0.0,0.0,0.0,0.0,0.0,0.0,0.0,0.0,0.0,0.0,0.0,0.0,0.0,0.0,0.0,0.0,0.0,0.0,0.0,0.0,0.0,0.0,0.0,0.0,0.0,0.0,0.0,0.0,0.0,0.0,0.0,0.0,0.0,0.0,0.0,0.0,0.0,0.0,0.0,0.0,0.0,0.0,0.0,0.0,0.0,0.0,0.0,0.0,0.0,0.0,0.0,0.0,0.0,0.0,0.0,0.0,0.0,0.0,0.0,0.0,0.0,0.0,0.0,0.0,0.0,0.0,0.0,0.0,0.0,0.0,0.0,0.0,0.0,0.0,0.0,0.0,0.0,0.0,0.0,0.0,0.0,0.0,0.0,0.0,0.0,0.0,0.0,0.0,0.0,0.0,0.0,0.0,0.0,0.0,0.0,0.0,0.0,0.0,0.0,0.0,0.0,-6.8594,-6.6953,-6.6914,-6.6094,-6.4375,0.0,0.0,0.0,0.0,0.0,0.0,0.0,0.0,0.0,0.0,0.0,0.0,0.0,0.0,0.0,0.0,0.0,0.0,0.0,0.0,0.0,0.0,0.0,0.0,0.0,0.0,0.0,0.0,0.0,0.0,0.0,0.0,0.0,0.0,0.0,0.0,0.0,0.0,0.0,0.0,0.0,0.0,0.0,0.0,0.0,0.0,0.0,0.0,0.0,0.0,0.0,0.0,0.0,0.0,0.0,0.0,0.0,0.0,0.0,0.0,0.0,0.0,0.0,0.0,0.0,0.0,0.0,0.0,0.0,0.0,0.0,0.0,0.0,0.0,0.0,0.0,0.0,0.0,0.0,0.0,0.0,0.0,0.0,0.0,0.0,0.0,0.0,0.0,0.0,0.0,0.0,0.0,0.0,0.0,0.0,0.0,0.0,0.0,0.0,0.0,0.0,0.0,0.0,0.0,0.0,0.0,0.0,0.0,0.0,0.0,0.0,0.0,-6.7187,-6.6289,-6.4375,0.0,0.0,0.0,0.0,0.0,0.0,0.0,0.0,0.0,0.0,0.0,0.0,0.0,0.0,0.0,0.0,0.0,0.0,0.0,0.0,0.0,0.0,0.0,0.0,0.0,0.0,0.0,0.0,0.0,0.0,0.0,0.0,0.0,0.0,0.0,0.0,0.0,0.0,0.0,0.0,0.0,0.0,0.0,0.0,0.0,0.0,0.0,0.0,0.0,0.0,0.0,0.0,0.0,0.0,0.0,0.0,0.0,0.0,0.0,0.0,0.0,0.0,0.0,0.0,0.0,0.0,0.0,0.0,0.0,0.0,0.0,0.0,0.0,0.0,0.0,0.0,0.0,0.0,0.0,0.0,0.0,0.0,0.0,0.0,0.0,0.0,0.0,0.0,0.0,0.0,0.0,0.0,0.0,0.0,0.0,0.0,0.0,0.0,0.0,0.0,0.0,0.0,0.0,0.0,0.0,0.0,0.0,0.0,0.0,0.0,-6.8242,-6.8086,-6.8047,0.0,-6.4414,0.0,0.0,0.0,0.0,0.0,0.0,0.0,0.0,0.0,0.0,0.0,0.0,0.0,0.0,0.0,0.0,0.0,0.0,0.0,0.0,0.0,0.0,0.0,0.0,0.0,0.0,0.0,0.0,0.0,0.0,0.0,0.0,0.0,0.0,0.0,0.0,0.0,0.0,0.0,0.0,0.0,0.0,0.0,0.0,0.0,0.0,0.0,0.0,0.0,0.0,0.0,0.0,0.0,0.0,0.0,0.0,0.0,0.0,0.0,0.0,0.0,0.0,0.0,0.0,0.0,0.0,0.0,0.0,0.0,0.0,0.0,0.0,0.0,0.0,0.0,0.0,0.0,0.0,0.0,0.0,0.0,0.0,0.0,0.0,0.0,0.0,0.0,0.0,0.0,0.0,0.0,0.0,0.0,0.0,0.0,0.0,0.0,0.0,0.0,0.0,0.0,0.0,0.0,0.0,0.0,0.0,0.0,0.0,0.0,0.0,-6.7969,-6.7461,-6.6445,-6.4922,0.0,0.0,0.0,0.0,0.0,0.0,0.0,0.0,0.0,0.0,0.0,0.0,0.0,0.0,0.0,0.0,0.0,0.0,0.0,0.0,0.0,0.0,0.0,0.0,0.0,0.0,0.0,0.0,0.0,0.0,0.0,0.0,0.0,0.0,0.0,0.0,0.0,0.0,0.0,0.0,0.0,0.0,0.0,0.0,0.0,0.0,0.0,0.0,0.0,0.0,0.0,0.0,0.0,0.0,0.0,0.0,0.0,0.0,0.0,0.0,0.0,0.0,0.0,0.0,0.0,0.0,0.0,0.0,0.0,0.0,0.0,0.0,0.0,0.0,0.0,0.0,0.0,0.0,0.0,0.0,0.0,0.0,0.0,0.0,0.0,0.0,0.0,0.0,0.0,0.0,0.0,0.0,0.0,0.0,0.0,0.0,0.0,0.0,0.0,0.0,0.0,0.0,0.0,0.0,0.0,0.0,0.0,0.0,0.0,0.0,-6.7838,0.0,-6.644,-6.5273,-6.375,-6.1797,0.0,0.0,0.0,0.0,0.0,0.0,0.0,0.0,0.0,0.0,0.0,0.0,0.0,0.0,0.0,0.0,0.0,0.0,0.0,0.0,0.0,0.0,0.0,0.0,0.0,0.0,0.0,0.0,0.0,0.0,0.0,0.0,0.0,0.0,0.0,0.0,0.0,0.0,0.0,0.0,0.0,0.0,0.0,0.0,0.0,0.0,0.0,0.0,0.0,0.0,0.0,0.0,0.0,0.0,0.0,0.0,0.0,0.0,0.0,0.0,0.0,0.0,0.0,0.0,0.0,0.0,0.0,0.0,0.0,0.0,0.0,0.0,0.0,0.0,0.0,0.0,0.0,0.0,0.0,0.0,0.0,0.0,0.0,0.0,0.0,0.0,0.0,0.0,0.0,0.0,0.0,0.0,0.0,0.0,0.0,0.0,0.0,0.0,0.0,0.0,0.0,0.0,0.0,0.0,0.0,0.0,0.0,0.0,0.0,-6.6956,-6.6127,-6.5451,-6.5461,-6.4336,0.0,0.0,0.0,0.0,0.0,0.0,0.0,0.0,0.0,0.0,0.0,0.0,0.0,0.0,0.0,0.0,0.0,0.0,0.0,0.0,0.0,0.0,0.0,0.0,0.0,0.0,0.0,0.0,0.0,0.0,0.0,0.0,0.0,0.0,0.0,0.0,0.0,0.0,0.0,0.0,0.0,0.0,0.0,0.0,0.0,0.0,0.0,0.0,0.0,0.0,0.0,0.0,0.0,0.0,0.0,0.0,0.0,0.0,0.0,0.0,0.0,0.0,0.0,0.0,0.0,0.0,0.0,0.0,0.0,0.0,0.0,0.0,0.0,0.0,0.0,0.0,0.0,0.0,0.0,0.0,0.0,0.0,0.0,0.0,0.0,0.0,0.0,0.0,0.0,0.0,0.0,0.0,0.0,0.0,0.0,0.0,0.0,0.0,0.0,0.0,0.0,0.0,0.0,0.0,0.0,0.0,0.0,0.0,0.0,-6.5448,-6.5102,-6.5063,-6.5334,-6.3899,-6.2656,0.0,0.0,0.0,0.0,0.0,0.0,0.0,0.0,0.0,0.0,0.0,0.0,0.0,0.0,0.0,0.0,0.0,0.0,0.0,0.0,0.0,0.0,0.0,0.0,0.0,0.0,0.0,0.0,0.0,0.0,0.0,0.0,0.0,0.0,0.0,0.0,0.0,0.0,0.0,0.0,0.0,0.0,0.0,0.0,0.0,0.0,0.0,0.0,0.0,0.0,0.0,0.0,0.0,0.0,0.0,0.0,0.0,0.0,0.0,0.0,0.0,0.0,0.0,0.0,0.0,0.0,0.0,0.0,0.0,0.0,0.0,0.0,0.0,0.0,0.0,0.0,0.0,0.0,0.0,0.0,0.0,0.0,0.0,0.0,0.0,0.0,0.0,0.0,0.0,0.0,0.0,0.0,0.0,0.0,0.0,0.0,0.0,0.0,0.0,0.0,0.0,0.0,0.0,0.0,0.0,0.0,0.0,0.0,0.0,-6.4265,0.0,-6.45,0.0,-6.3056,-6.1715,0.0,0.0,0.0,0.0,0.0,0.0,0.0,0.0,0.0,0.0,0.0,0.0,0.0,0.0,0.0,0.0,0.0,0.0,0.0,0.0,0.0,0.0,0.0,0.0,0.0,0.0,0.0,0.0,0.0,0.0,0.0,0.0,0.0,0.0,0.0,0.0,0.0,0.0,0.0,0.0,0.0,0.0,0.0,0.0,0.0,0.0,0.0,0.0,0.0,0.0,0.0,0.0,0.0,0.0,0.0,0.0,0.0,0.0,0.0,0.0,0.0,0.0,0.0,0.0,0.0,0.0,0.0,0.0,0.0,0.0,0.0,0.0,0.0,0.0,0.0,0.0,0.0,0.0,0.0,0.0,0.0,0.0,0.0,0.0,0.0,0.0,0.0,0.0,0.0,0.0,0.0,0.0,0.0,0.0,0.0,0.0,0.0,0.0,0.0,0.0,0.0,0.0,0.0,0.0,0.0,0.0,0.0,0.0,-6.4023,-6.4497,-6.4665,-6.4402,-6.3839,-6.3089,-6.1649,0.0,0.0,0.0,0.0,0.0,0.0,0.0,0.0,0.0,0.0,0.0,0.0,0.0,0.0,0.0,0.0,0.0,0.0,0.0,0.0,0.0,0.0,0.0,0.0,0.0,0.0,0.0,0.0,0.0,0.0,0.0,0.0,0.0,0.0,0.0,0.0,0.0,0.0,0.0,0.0,0.0,0.0,0.0,0.0,0.0,0.0,0.0,0.0,0.0,0.0,0.0,0.0,0.0,0.0,0.0,0.0,0.0,0.0,0.0,0.0,0.0,0.0,0.0,0.0,0.0,0.0,0.0,0.0,0.0,0.0,0.0,0.0,0.0,0.0,0.0,0.0,0.0,0.0,0.0,0.0,0.0,0.0,0.0,0.0,0.0,0.0,0.0,0.0,0.0,0.0,0.0,0.0,0.0,0.0,0.0,0.0,0.0,0.0,0.0,0.0,0.0,0.0,0.0,0.0,0.0,0.0,0.0,0.0,0.0,-6.1997,-6.2673,-6.3618,-6.4564,-6.2309,-6.126,0.0,0.0,0.0,0.0,0.0,0.0,0.0,0.0,0.0,0.0,0.0,0.0,0.0,0.0,0.0,0.0,0.0,0.0,0.0,0.0,0.0,0.0,0.0,0.0,0.0,0.0,0.0,0.0,0.0,0.0,0.0,0.0,0.0,0.0,0.0,0.0,0.0,0.0,0.0,0.0,0.0,0.0,0.0,0.0,0.0,0.0,0.0,0.0,0.0,0.0,0.0,0.0,0.0,0.0,0.0,0.0,0.0,0.0,0.0,0.0,0.0,0.0,0.0,0.0,0.0,0.0,0.0,0.0,0.0,0.0,0.0,0.0,0.0,0.0,0.0,0.0,0.0,0.0,0.0,0.0,0.0,0.0,0.0,0.0,0.0,0.0,0.0,0.0,0.0,0.0,0.0,0.0,0.0,0.0,0.0,0.0,0.0,0.0,0.0,0.0,0.0,0.0,0.0,0.0,0.0,0.0,0.0,0.0,0.0,-6.2293,-6.3158,-6.4232,-6.5436,-6.2897,-6.1683,-6.1904,0.0,0.0,0.0,0.0,0.0,0.0,0.0,0.0,0.0,0.0,0.0,0.0,0.0,0.0,0.0,0.0,0.0,0.0,0.0,0.0,0.0,0.0,0.0,0.0,0.0,0.0,0.0,0.0,0.0,0.0,0.0,0.0,0.0,0.0,0.0,0.0,0.0,0.0,0.0,0.0,0.0,0.0,0.0,0.0,0.0,0.0,0.0,0.0,0.0,0.0,0.0,0.0,0.0,0.0,0.0,0.0,0.0,0.0,0.0,0.0,0.0,0.0,0.0,0.0,0.0,0.0,0.0,0.0,0.0,0.0,0.0,0.0,0.0,0.0,0.0,0.0,0.0,0.0,0.0,0.0,0.0,0.0,0.0,0.0,0.0,0.0,0.0,0.0,0.0,0.0,0.0,0.0,0.0,0.0,0.0,0.0,0.0,0.0,0.0,0.0,0.0,0.0,0.0,0.0,0.0,0.0,0.0,0.0,-6.4897,-6.5743,-6.6248,-6.6313,-6.4745,-6.2813,0.0,0.0,0.0,0.0,0.0,0.0,0.0,0.0,0.0,0.0,0.0,0.0,0.0,0.0,0.0,0.0,0.0,0.0,0.0,0.0,0.0,0.0,0.0,0.0,0.0,0.0,0.0,0.0,0.0,0.0,0.0,0.0,0.0,0.0,0.0,0.0,0.0,0.0,0.0,0.0,0.0,0.0,0.0,0.0,0.0,0.0,0.0,0.0,0.0,0.0,0.0,0.0,0.0,0.0,0.0,0.0,0.0,0.0,0.0,0.0,0.0,0.0,0.0,0.0,0.0,0.0,0.0,0.0,0.0,0.0,0.0,0.0,0.0,0.0,0.0,0.0,0.0,0.0,0.0,0.0,0.0,0.0,0.0,0.0,0.0,0.0,0.0,0.0,0.0,0.0,0.0,0.0,0.0,0.0,0.0,0.0,0.0,0.0,0.0,0.0,0.0,0.0,0.0,0.0,0.0,0.0,0.0,0.0,0.0,-6.8282,-6.9167,-6.9359,-6.8888,-6.6221,-6.4527,0.0,0.0,0.0,0.0,0.0,0.0,0.0,0.0,0.0,0.0,0.0,0.0,0.0,0.0,0.0,0.0,0.0,0.0,0.0,0.0,0.0,0.0,0.0,0.0,0.0,0.0,0.0,0.0,0.0,0.0,0.0,0.0,0.0,0.0,0.0,0.0,0.0,0.0,0.0,0.0,0.0,0.0,0.0,0.0,0.0,0.0,0.0,0.0,0.0,0.0,0.0,0.0,0.0,0.0,0.0,0.0,0.0,0.0,0.0,0.0,0.0,0.0,0.0,0.0,0.0,0.0,0.0,0.0,0.0,0.0,0.0,0.0,0.0,0.0,0.0,0.0,0.0,0.0,0.0,0.0,0.0,0.0,0.0,0.0,0.0,0.0,0.0,0.0,0.0,0.0,0.0,0.0,0.0,0.0,0.0,0.0,0.0,0.0,0.0,0.0,0.0,0.0,0.0,0.0,0.0,0.0,0.0,0.0,-6.7167,-6.9129,-7.136,-7.2147,-7.1448,-6.8696,-6.6406,0.0,0.0,0.0,0.0,0.0,0.0,0.0,0.0,0.0,0.0,0.0,0.0,0.0,0.0,0.0,0.0,0.0,0.0,0.0,0.0,0.0,0.0,0.0,0.0,0.0,0.0,0.0,0.0,0.0,0.0,0.0,0.0,0.0,0.0,0.0,0.0,0.0,0.0,0.0,0.0,0.0,0.0,0.0,0.0,0.0,0.0,0.0,0.0,0.0,0.0,0.0,0.0,0.0,0.0,0.0,0.0,0.0,0.0,0.0,0.0,0.0,0.0,0.0,0.0,0.0,0.0,0.0,0.0,0.0,0.0,0.0,0.0,0.0,0.0,0.0,0.0,0.0,0.0,0.0,0.0,0.0,0.0,0.0,0.0,0.0,0.0,0.0,0.0,0.0,0.0,0.0,0.0,0.0,0.0,0.0,0.0,0.0,0.0,0.0,0.0,0.0,0.0,0.0,0.0,0.0,0.0,0.0,0.0,-6.8398,-6.8706,-7.2552,-7.4207,-7.3336,-7.1145,-6.8143,0.0,0.0,0.0,0.0,0.0,0.0,0.0,0.0,0.0,0.0,0.0,0.0,0.0,0.0,0.0,0.0,0.0,0.0,0.0,0.0,0.0,0.0,0.0,0.0,0.0,0.0,0.0,0.0,0.0,0.0,0.0,0.0,0.0,0.0,0.0,0.0,0.0,0.0,0.0,0.0,0.0,0.0,0.0,0.0,0.0,0.0,0.0,0.0,0.0,0.0,0.0,0.0,0.0,0.0,0.0,0.0,0.0,0.0,0.0,0.0,0.0,0.0,0.0,0.0,0.0,0.0,0.0,0.0,0.0,0.0,0.0,0.0,0.0,0.0,0.0,0.0,0.0,0.0,0.0,0.0,0.0,0.0,0.0,0.0,0.0,0.0,0.0,0.0,0.0,0.0,0.0,0.0,0.0,0.0,0.0,0.0,0.0,0.0,0.0,0.0,0.0,0.0,0.0,0.0,0.0,0.0,0.0,0.0,-6.8321,-7.036,-7.2591,-7.336,-7.2476,-6.9653,-6.7741,0.0,0.0,0.0,0.0,0.0,0.0,0.0,0.0,0.0,0.0,0.0,0.0,0.0,0.0,0.0,0.0,0.0,0.0,0.0,0.0,0.0,0.0,0.0,0.0,0.0,0.0,0.0,0.0,0.0,0.0,0.0,0.0,0.0,0.0,0.0,0.0,0.0,0.0,0.0,0.0,0.0,0.0,0.0,0.0,0.0,0.0,0.0,0.0,-6.2044,0.0,0.0,0.0,0.0,0.0,0.0,0.0,0.0,0.0,0.0,0.0,0.0,0.0,0.0,0.0,0.0,0.0,0.0,0.0,0.0,0.0,0.0,0.0,0.0,0.0,0.0,0.0,0.0,0.0,0.0,0.0,0.0,0.0,0.0,0.0,0.0,0.0,0.0,0.0,0.0,0.0,0.0,0.0,0.0,0.0,0.0,0.0,0.0,0.0,0.0,0.0,0.0,0.0,0.0,0.0,0.0,0.0,0.0,0.0,-6.8552,-7.0321,-7.2014,-7.2668,-7.2118,-6.9585,-6.7825,0.0,0.0,0.0,0.0,0.0,0.0,0.0,0.0,0.0,0.0,0.0,0.0,0.0,0.0,0.0,0.0,0.0,0.0,0.0,0.0,0.0,0.0,0.0,0.0,0.0,0.0,0.0,0.0,0.0,0.0,0.0,0.0,0.0,0.0,0.0,0.0,0.0,0.0,0.0,0.0,0.0,0.0,0.0,0.0,0.0,0.0,0.0,0.0,0.0,0.0,0.0,0.0,0.0,0.0,0.0,0.0,0.0,0.0,0.0,0.0,0.0,0.0,0.0,0.0,0.0,0.0,0.0,0.0,0.0,0.0,0.0,0.0,0.0,0.0,0.0,0.0,0.0,0.0,0.0,0.0,0.0,0.0,0.0,0.0,0.0,0.0,0.0,0.0,0.0,0.0,0.0,0.0,0.0,0.0,0.0,0.0,0.0,0.0,0.0,0.0,0.0,0.0,0.0,0.0,0.0,0.0,0.0,-6.7061,-6.8629,-6.986,-7.1283,-7.1975,-7.1989,-7.007,-6.82,-6.6386,0.0,0.0,0.0,0.0,0.0,0.0,0.0,0.0,0.0,0.0,0.0,0.0,0.0,0.0,0.0,0.0,0.0,0.0,0.0,0.0,0.0,0.0,0.0,0.0,0.0,0.0,0.0,0.0,0.0,0.0,0.0,0.0,0.0,0.0,0.0,0.0,0.0,0.0,-5.8002,-5.8578,0.0,0.0,0.0,0.0,0.0,0.0,0.0,0.0,-6.0993,0.0,0.0,0.0,0.0,0.0,0.0,0.0,0.0,0.0,0.0,0.0,0.0,0.0,0.0,0.0,0.0,0.0,0.0,0.0,0.0,0.0,0.0,0.0,0.0,0.0,0.0,0.0,0.0,0.0,0.0,0.0,0.0,0.0,0.0,0.0,0.0,0.0,0.0,0.0,0.0,0.0,0.0,0.0,0.0,0.0,0.0,0.0,0.0,0.0,0.0,0.0,0.0,0.0,0.0,0.0,0.0,-6.6677,-6.6461,-6.7705,-7.0629,-7.0975,-7.1091,-7.1104,-7.0225,-6.864,-6.6425,0.0,0.0,0.0,0.0,0.0,0.0,0.0,0.0,0.0,0.0,0.0,0.0,0.0,0.0,0.0,0.0,0.0,0.0,0.0,0.0,0.0,0.0,0.0,0.0,0.0,0.0,0.0,0.0,0.0,0.0,0.0,0.0,0.0,0.0,0.0,0.0,0.0,0.0,0.0,-6.0366,-6.0857,0.0,0.0,0.0,0.0,0.0,0.0,0.0,0.0,-5.9952,0.0,0.0,0.0,0.0,0.0,0.0,0.0,0.0,0.0,0.0,0.0,0.0,0.0,0.0,0.0,0.0,0.0,0.0,0.0,0.0,0.0,0.0,0.0,0.0,0.0,0.0,0.0,0.0,0.0,0.0,0.0,0.0,0.0,0.0,0.0,0.0,0.0,0.0,0.0,0.0,0.0,0.0,0.0,0.0,0.0,0.0,0.0,0.0,0.0,0.0,0.0,0.0,0.0,0.0,0.0,-6.6397,-6.7359,-6.8859,-7.0821,-7.0898,-7.0898,-7.086,-6.9408,-6.7877,0.0,0.0,0.0,0.0,0.0,0.0,0.0,0.0,0.0,0.0,0.0,0.0,0.0,0.0,0.0,0.0,0.0,0.0,0.0,0.0,0.0,0.0,0.0,0.0,0.0,0.0,0.0,0.0,0.0,0.0,0.0,0.0,0.0,0.0,0.0,0.0,0.0,0.0,0.0,0.0,-6.0582,-6.0989,-6.1608,0.0,0.0,0.0,0.0,0.0,0.0,-5.9441,-5.8904,0.0,0.0,0.0,0.0,0.0,0.0,0.0,0.0,0.0,0.0,0.0,0.0,0.0,0.0,0.0,0.0,0.0,0.0,0.0,0.0,0.0,0.0,0.0,0.0,0.0,0.0,0.0,0.0,0.0,0.0,0.0,0.0,0.0,0.0,0.0,0.0,0.0,0.0,0.0,0.0,0.0,0.0,0.0,0.0,0.0,0.0,0.0,0.0,0.0,0.0,0.0,0.0,0.0,0.0,0.0,-6.5692,-6.8129,-6.9898,-7.086,-7.0898,-7.0898,-7.086,-6.8579,-6.694,0.0,0.0,0.0,0.0,0.0,0.0,0.0,0.0,0.0,0.0,0.0,0.0,0.0,0.0,0.0,0.0,0.0,0.0,0.0,0.0,0.0,0.0,0.0,0.0,0.0,0.0,0.0,0.0,0.0,0.0,0.0,0.0,0.0,0.0,0.0,0.0,0.0,0.0,0.0,0.0,0.0,-6.1137,-6.1782,-6.1241,0.0,0.0,0.0,0.0,-5.998,-5.8957,0.0,0.0,0.0,0.0,0.0,0.0,0.0,0.0,0.0,0.0,0.0,0.0,0.0,0.0,0.0,0.0,0.0,0.0,0.0,0.0,0.0,0.0,0.0,0.0,0.0,0.0,0.0,0.0,0.0,0.0,0.0,0.0,0.0,0.0,0.0,0.0,0.0,0.0,0.0,0.0,0.0,0.0,0.0,0.0,0.0,0.0,0.0,0.0,0.0,0.0,0.0,0.0,0.0,0.0,0.0,0.0,-6.4806,-6.7282,-6.9321,-7.0821,-7.0898,-7.0898,-7.086,-6.8437,-6.6499,0.0,0.0,0.0,0.0,0.0,0.0,0.0,0.0,0.0,0.0,0.0,0.0,0.0,0.0,0.0,0.0,0.0,0.0,0.0,0.0,0.0,0.0,0.0,0.0,0.0,0.0,0.0,0.0,0.0,0.0,0.0,0.0,0.0,0.0,0.0,0.0,0.0,0.0,0.0,0.0,0.0,-6.2034,-6.0809,-5.9978,-5.8994,0.0,0.0,-5.7377,-5.7855,-5.9346,0.0,0.0,0.0,0.0,0.0,0.0,0.0,0.0,0.0,0.0,0.0,0.0,0.0,0.0,0.0,0.0,0.0,0.0,0.0,0.0,0.0,0.0,0.0,0.0,0.0,0.0,0.0,0.0,0.0,0.0,0.0,0.0,0.0,0.0,0.0,0.0,0.0,0.0,0.0,0.0,0.0,0.0,0.0,0.0,0.0,0.0,0.0,0.0,0.0,0.0,0.0,0.0,0.0,0.0,0.0,-6.4524,-6.473,-6.8052,-7.0167,-7.086,-7.0898,-7.0898,-7.0898,-6.7513,-6.5434,0.0,0.0,0.0,0.0,0.0,0.0,0.0,0.0,0.0,0.0,0.0,0.0,0.0,0.0,0.0,0.0,0.0,0.0,0.0,0.0,0.0,0.0,0.0,0.0,0.0,0.0,0.0,0.0,0.0,0.0,0.0,0.0,0.0,0.0,0.0,0.0,0.0,0.0,0.0,0.0,0.0,0.0,-5.9295,-5.9565,0.0,0.0,0.0,-5.7942,-5.7318,0.0,0.0,0.0,0.0,0.0,0.0,0.0,0.0,0.0,0.0,0.0,0.0,0.0,0.0,0.0,0.0,0.0,0.0,0.0,0.0,0.0,0.0,0.0,0.0,0.0,0.0,0.0,0.0,0.0,0.0,0.0,0.0,0.0,0.0,0.0,0.0,0.0,0.0,0.0,0.0,0.0,0.0,0.0,0.0,0.0,0.0,0.0,0.0,0.0,0.0,0.0,0.0,0.0,0.0,0.0,0.0,0.0,-6.4371,-6.8629,-7.0898,-7.0898,-7.0898,-7.0821,-7.0552,-6.6898,0.0,0.0,0.0,0.0,0.0,0.0,0.0,0.0,0.0,0.0,0.0,0.0,0.0,0.0,0.0,0.0,0.0,0.0,0.0,0.0,0.0,0.0,0.0,0.0,0.0,0.0,0.0,-4.9317,0.0,0.0,0.0,0.0,0.0,0.0,0.0,0.0,0.0,0.0,0.0,0.0,0.0,0.0,-5.955,-5.8225,-5.9223,-5.9663,0.0,0.0,-5.8195,-5.7075,-5.8,-5.8172,0.0,0.0,0.0,0.0,0.0,0.0,0.0,0.0,0.0,0.0,0.0,0.0,0.0,0.0,0.0,0.0,0.0,0.0,0.0,0.0,0.0,0.0,0.0,0.0,0.0,0.0,0.0,0.0,0.0,0.0,0.0,0.0,0.0,0.0,0.0,0.0,0.0,0.0,0.0,0.0,0.0,0.0,0.0,0.0,0.0,0.0,0.0,0.0,0.0,0.0,0.0,0.0,0.0,0.0,0.0,-6.3563,-6.8359,-7.0898,-7.0898,-7.0898,-7.0552,-6.9783,-6.7205,-6.4374,0.0,0.0,0.0,0.0,0.0,0.0,0.0,0.0,0.0,0.0,0.0,0.0,0.0,0.0,0.0,0.0,0.0,0.0,0.0,0.0,0.0,0.0,0.0,0.0,0.0,0.0,0.0,0.0,0.0,0.0,0.0,0.0,0.0,0.0,0.0,0.0,0.0,0.0,0.0,0.0,0.0,-5.8876,-5.8125,-5.8724,-5.921,0.0,0.0,-5.6909,-5.6807,-5.9253,-5.9765,-5.5351,0.0,0.0,0.0,0.0,0.0,0.0,0.0,0.0,0.0,0.0,0.0,0.0,0.0,0.0,0.0,0.0,0.0,0.0,0.0,0.0,0.0,0.0,0.0,0.0,0.0,0.0,0.0,0.0,0.0,0.0,0.0,0.0,0.0,0.0,0.0,0.0,0.0,0.0,0.0,0.0,0.0,0.0,0.0,0.0,0.0,0.0,0.0,0.0,0.0,0.0,0.0,0.0,0.0,-6.256,-6.332,-6.7821,-7.0398,-7.086,-7.0898,-7.0514,-6.9706,-6.7244,-6.433,0.0,0.0,0.0,0.0,0.0,0.0,0.0,0.0,0.0,0.0,0.0,0.0,0.0,0.0,0.0,0.0,0.0,0.0,0.0,0.0,0.0,0.0,0.0,0.0,0.0,0.0,0.0,0.0,-5.115,-5.1279,-5.2164,0.0,0.0,0.0,0.0,0.0,0.0,0.0,0.0,0.0,0.0,-5.8028,-5.7354,-5.8289,0.0,0.0,-5.7557,-5.7137,-5.6258,-5.7118,-5.6987,-5.4278,-5.3562,0.0,0.0,0.0,0.0,0.0,0.0,0.0,0.0,0.0,0.0,0.0,0.0,0.0,0.0,0.0,0.0,0.0,0.0,0.0,0.0,0.0,0.0,0.0,0.0,0.0,0.0,0.0,0.0,0.0,0.0,0.0,0.0,0.0,0.0,0.0,0.0,0.0,0.0,0.0,0.0,0.0,0.0,0.0,0.0,0.0,0.0,0.0,0.0,0.0,0.0,0.0,0.0,-6.184,-6.332,-6.7513,-7.009,-7.0898,-7.0667,-7.0167,-6.9283,-6.709,-6.4166,0.0,0.0,0.0,0.0,0.0,0.0,0.0,0.0,0.0,0.0,0.0,0.0,0.0,0.0,0.0,0.0,0.0,0.0,0.0,0.0,0.0,0.0,0.0,0.0,0.0,0.0,0.0,0.0,-5.2116,-5.1779,-5.2395,0.0,0.0,0.0,0.0,0.0,0.0,0.0,0.0,0.0,0.0,-5.7273,-5.6878,-5.7679,-5.7983,-5.6968,-5.6867,-5.663,-5.5852,-5.5681,-5.5008,-5.2961,0.0,0.0,0.0,0.0,0.0,0.0,0.0,0.0,0.0,0.0,0.0,0.0,0.0,0.0,0.0,0.0,0.0,0.0,0.0,0.0,0.0,0.0,0.0,0.0,0.0,0.0,0.0,-6.3008,0.0,0.0,-6.1719,0.0,0.0,0.0,0.0,0.0,0.0,0.0,0.0,0.0,0.0,0.0,0.0,0.0,0.0,0.0,0.0,0.0,0.0,0.0,0.0,0.0,0.0,-6.1716,-6.332,-6.7513,-7.0052,-7.0821,-7.0129,-6.9321,-6.8436,-6.6782,-6.3897,-5.9627,0.0,0.0,0.0,0.0,0.0,0.0,0.0,0.0,0.0,0.0,0.0,0.0,0.0,0.0,0.0,0.0,0.0,0.0,0.0,0.0,0.0,0.0,0.0,0.0,0.0,0.0,-5.2135,-5.1212,-5.0789,0.0,0.0,0.0,0.0,0.0,0.0,0.0,0.0,0.0,0.0,-5.5241,-5.6745,-5.6776,-5.6833,-5.69,-5.6799,-5.5615,-5.4938,-5.558,-5.5647,-5.4626,0.0,0.0,0.0,0.0,0.0,0.0,0.0,0.0,0.0,0.0,0.0,0.0,0.0,0.0,0.0,0.0,0.0,0.0,0.0,0.0,0.0,0.0,0.0,0.0,0.0,0.0,0.0,-6.383,-6.3561,0.0,0.0,0.0,0.0,0.0,0.0,0.0,0.0,0.0,0.0,0.0,-6.3395,-6.3443,0.0,0.0,0.0,0.0,0.0,0.0,0.0,0.0,0.0,0.0,0.0,0.0,-6.0634,-6.3332,-6.6936,-6.9244,-7.0052,-6.986,-6.9013,-6.7552,-6.6474,-6.3358,-5.8022,0.0,0.0,0.0,0.0,0.0,0.0,0.0,0.0,0.0,0.0,0.0,0.0,0.0,0.0,0.0,0.0,0.0,0.0,0.0,0.0,0.0,0.0,0.0,0.0,0.0,-5.3164,0.0,0.0,0.0,0.0,0.0,0.0,0.0,0.0,0.0,0.0,0.0,-5.2889,-5.3207,-5.5267,-5.6597,-5.613,-5.6494,-5.6799,0.0,0.0,0.0,0.0,0.0,0.0,0.0,0.0,0.0,0.0,0.0,0.0,0.0,0.0,-4.9956,-4.6775,-4.5187,-4.4233,-4.4062,0.0,0.0,0.0,0.0,0.0,0.0,0.0,0.0,0.0,0.0,0.0,0.0,0.0,0.0,-6.4844,0.0,-6.4904,0.0,0.0,0.0,0.0,0.0,0.0,0.0,0.0,-6.5329,-6.5782,-6.5474,-6.5474,-6.4897,0.0,-6.3081,-6.1582,0.0,0.0,0.0,0.0,0.0,0.0,0.0,0.0,-6.0601,-6.332,-6.6359,-6.8398,-6.9206,-6.8975,-6.8244,-6.7141,-6.5436,-6.2601,-5.8446,-5.5011,-5.2743,0.0,0.0,0.0,0.0,0.0,0.0,0.0,0.0,0.0,0.0,0.0,0.0,0.0,0.0,0.0,0.0,0.0,0.0,0.0,0.0,0.0,0.0,0.0,-5.2469,0.0,0.0,0.0,0.0,0.0,0.0,0.0,0.0,0.0,-5.0746,-5.2242,-5.3365,-5.3693,-5.5257,-5.6144,-5.545,0.0,0.0,0.0,0.0,0.0,0.0,0.0,-5.0703,-4.9031,-4.8231,-4.7606,-4.7192,-4.7903,-4.8442,-4.7981,0.0,0.0,-4.6494,-4.5292,-4.4522,-4.4368,-4.5037,-4.5547,-4.5355,-4.6024,-4.6343,0.0,0.0,0.0,0.0,0.0,0.0,0.0,0.0,-6.6818,-6.6857,0.0,-6.6754,0.0,0.0,0.0,0.0,0.0,-6.5531,0.0,0.0,-6.8821,-6.9513,-6.7321,-6.7244,-6.7218,-6.7128,-6.6295,-6.4987,-6.3164,-5.8622,0.0,0.0,0.0,0.0,0.0,0.0,-6.1627,-6.3308,-6.582,-6.7513,-6.8321,-6.7552,-6.709,-6.6974,-6.3897,-6.1793,-6.0781,-5.755,-5.4972,-5.3356,-5.1713,0.0,0.0,0.0,0.0,0.0,0.0,0.0,0.0,0.0,0.0,0.0,0.0,0.0,0.0,0.0,0.0,0.0,0.0,0.0,0.0,-5.2364,0.0,0.0,0.0,0.0,0.0,0.0,0.0,0.0,0.0,0.0,-5.1023,-5.2355,-5.3633,-5.4368,0.0,0.0,0.0,0.0,-5.4329,-5.3687,-5.3551,-5.3144,-5.2131,-5.1921,-5.0936,-4.838,0.0,0.0,-4.5864,-4.6496,-4.6989,-4.5675,-4.6599,-4.7934,-4.9757,-4.872,-4.8052,-4.8668,-4.7697,-4.7257,-4.7803,-4.768,-4.7622,-7.2161,0.0,0.0,0.0,0.0,-6.8309,-6.9004,-7.0768,-6.934,-6.8876,-6.9042,-6.8297,0.0,0.0,0.0,0.0,0.0,0.0,-6.6628,-6.7359,-6.859,-6.936,-6.9783,-6.9821,-6.9513,-6.8936,-6.7436,-6.6205,-6.5063,-6.194,-5.9466,-5.769,0.0,0.0,0.0,0.0,-6.1627,-6.3346,-6.5782,-6.7205,-6.7475,-6.7244,-6.6821,-6.6244,-6.4128,-6.2551,-6.1755,-5.9011,-5.6742,-5.5049,-5.2801,0.0,0.0,0.0,0.0,0.0,0.0,0.0,0.0,0.0,0.0,0.0,0.0,0.0,0.0,0.0,0.0,0.0,0.0,0.0,-5.0518,-5.0897,-5.0806,0.0,0.0,0.0,0.0,0.0,0.0,0.0,0.0,0.0,-5.2545,-5.3485,-5.4057,0.0,0.0,-5.4638,-5.3923,-5.3822,-5.3923,-5.4228,-5.3856,0.0,-5.2759,-5.1825,-5.087,-4.9815,-4.9804,-4.945,-4.8029,-4.8131,-4.8034,-4.6911,-4.704,-4.7495,-4.7958,-4.7485,-4.6783,-4.6549,-4.6448,-4.6519,-4.6773,-4.6834,-4.6631,-7.4014,-7.2745,-7.036,-7.0167,-7.1283,-7.0321,-7.1168,-7.3091,-7.1398,-7.086,-7.1104,-7.0001,-6.8253,-6.6102,-6.5511,0.0,0.0,0.0,-6.7628,-6.8936,-6.9244,-6.9937,-7.086,-7.0898,-7.0629,-7.0129,-6.8436,-6.7359,-6.6859,-6.432,-6.2166,-6.0269,0.0,0.0,-5.8561,-6.0369,-6.2127,-6.382,-6.5667,-6.6628,-6.6628,-6.6628,-6.6397,-6.5897,-6.4551,-6.3435,-6.2589,-6.0473,-5.8627,-5.7242,-5.478,-5.2926,0.0,0.0,0.0,0.0,0.0,0.0,0.0,0.0,0.0,0.0,0.0,-5.0739,0.0,0.0,0.0,0.0,-4.9784,-5.0127,-5.0235,-5.0847,0.0,0.0,0.0,0.0,0.0,0.0,0.0,-5.3748,-5.3178,-5.2909,-5.3674,-5.3958,-5.3936,-5.355,-5.3881,-5.4011,-5.3551,0.0,-5.3653,-5.4093,-5.3788,-5.3313,-5.2663,-5.1858,-5.1106,-5.0486,-5.0397,-5.0076,-4.9198,-4.8689,-4.8101,-4.73,-4.6798,-4.6501,-4.6501,-4.6172,-4.5933,-4.5753,-4.5813,-4.5903,-4.5933,-4.5903,-4.5693,-7.5361,-7.5707,-7.2552,-7.1668,-7.2399,-7.2399,-7.3206,-7.4437,-7.286,-7.2629,-7.3245,-7.1629,-7.0014,-6.8436,-6.6898,0.0,-6.7321,-6.8205,-6.9013,-6.9821,-7.0552,-7.0898,-7.0898,-7.0898,-7.086,-7.0783,-6.9167,-6.8359,-6.8167,-6.5859,-6.4243,-6.3281,-6.0973,-6.0127,-6.0819,-6.1716,-6.2935,-6.4474,-6.5359,-6.582,-6.582,-6.5782,-6.5743,-6.5667,-6.4859,-6.4012,-6.3205,-6.1666,-6.0396,-5.9473,-5.7126,-5.5011,-5.3405,0.0,0.0,0.0,0.0,0.0,0.0,0.0,0.0,0.0,0.0,0.0,0.0,0.0,0.0,0.0,-5.1145,0.0,-5.1392,-5.1645,0.0,0.0,0.0,-5.0509,-5.1099,-5.1791,-5.2793,-5.4342,0.0,0.0,-5.4402,-5.3911,-5.3518,-5.3518,-5.3518,-5.3518,-5.3518,-5.3518,-5.3518,-5.3551,-5.3518,-5.3144,-5.2345,-5.2002,-5.1619,-5.0806,-5.0498,-5.0215,-4.9448,-4.8674,-4.7762,-4.7021,-4.6112,-4.5552,-4.547,-4.5481,-4.5477,-4.5963,-4.5693,-4.5304,-4.5334,-4.5274,-4.5106,-7.6399,-7.5861,-7.4399,-7.3937,-7.4091,-7.4091,-7.3976,-7.3692,-7.2668,-7.2322,-7.2437,-7.136,-7.036,-6.936,-6.8975,-6.8898,-6.9129,-6.9937,-7.0437,-7.0629,-7.0783,-7.0898,-7.0898,-7.0898,-7.0591,-6.9937,-6.8936,-6.8052,-6.7359,-6.6167,-6.482,-6.3308,-6.2704,-6.1858,-6.0896,-6.2281,-6.3205,-6.3615,-6.4474,-6.4897,-6.4897,-6.4897,-6.4589,-6.3935,-6.3128,-6.2589,-6.237,-6.1358,-6.0396,-5.9511,-5.7715,-5.5934,-5.4241,-5.1376,0.0,0.0,0.0,0.0,0.0,0.0,0.0,0.0,0.0,-5.0875,-4.8165,0.0,-4.9315,0.0,-5.0357,-5.1043,-5.0964,-5.1024,0.0,0.0,-5.2049,-5.232,-5.4237,-5.4085,-5.4228,-5.5245,-5.4697,-5.4314,-5.456,-5.3939,-5.3518,-5.3518,-5.3518,-5.3518,-5.3518,-5.3518,-5.3518,-5.3518,-5.3518,-5.3416,-5.3077,-5.2572,-5.2101,-5.1897,-5.1395,-5.069,-4.9763,-4.9414,-4.8954,-4.7988,-4.7618,-4.7192,-4.6449,-4.5962,-4.5401,-4.497,-4.5065,-4.5274,-4.5274,-4.4885,-4.474,-7.5861,-7.5361,-7.4514,-7.3937,-7.363,-7.4014,-7.3885,-7.3437,-7.2591,-7.2206,-7.2129,-7.1283,-7.0667,-7.0244,-7.0244,-7.0244,-7.0244,-7.0706,-7.0898,-7.0898,-7.0898,-7.0898,-7.0898,-7.0552,-7.0129,-6.9667,-6.8436,-6.759,-6.709,-6.6282,-6.5397,-6.4474,-6.4474,-6.3589,-6.2012,-6.2474,-6.2935,-6.3308,-6.3782,-6.4051,-6.4051,-6.4012,-6.382,-6.332,-6.2858,-6.2281,-6.1562,-6.105,-6.0242,-5.9011,-5.7703,-5.6406,-5.5049,-5.2384,-5.0457,0.0,0.0,0.0,0.0,0.0,0.0,0.0,0.0,0.0,0.0,0.0,-4.923,-4.9176,-5.0814,-5.1867,-5.1867,-5.2491,-5.3298,-5.4179,-5.3849,-5.4289,-5.5978,-5.5437,-5.5316,-5.6108,-5.5226,-5.4535,-5.4599,-5.3945,-5.3518,-5.3518,-5.3518,-5.3518,-5.3518,-5.3518,-5.3518,-5.3518,-5.3518,-5.3348,-5.3044,-5.23,-5.1826,-5.1792,-5.1488,-5.0888,-5.0026,-4.9524,-4.8981,-4.8064,-4.7541,-4.7107,-4.6591,-4.6228,-4.5722,-4.5408,-4.5426,-4.5518,-4.5178,-4.5117,-4.5346,-7.4707,-7.463,-7.3707,-7.2899,-7.2245,-7.2899,-7.3168,-7.3129,-7.236,-7.2014,-7.1975,-7.1245,-7.0898,-7.0898,-7.0898,-7.0898,-7.0898,-7.0898,-7.0898,-7.0898,-7.0898,-7.086,-7.0706,-7.0052,-6.959,-6.9321,-6.7821,-6.7064,-6.6898,-6.6244,-6.5782,-6.559,-6.5551,-6.4705,-6.3012,-6.2281,-6.2308,-6.3066,-6.3181,-6.3118,-6.2964,-6.2964,-6.2849,-6.2657,-6.2657,-6.1889,-6.0404,-6.0327,-5.9636,-5.8203,-5.7332,-5.6476,-5.5708,-5.3671,-5.2157,0.0,-5.0133,0.0,0.0,0.0,0.0,0.0,0.0,0.0,0.0,-4.9907,-4.9657,-5.0071,-5.2197,-5.3497,-5.3497,-5.4766,-5.5647,-5.5721,-5.5721,-5.6088,-5.6799,-5.6297,-5.605,-5.6696,-5.5455,-5.457,-5.4378,-5.393,-5.3613,-5.3378,-5.3412,-5.338,-5.3179,-5.3213,-5.3281,-5.3348,-5.3247,-5.2807,-5.2266,-5.1555,-5.1082,-5.1016,-5.0847,-5.071,-5.0035,-4.929,-4.8564,-4.7935,-4.727,-4.6657,-4.6419,-4.6416,-4.6314,-4.6166,-4.6234,-4.6124,-4.5395,-4.5619,-4.6208,-7.4707,-7.4553,-7.3053,-7.236,-7.2168,-7.1629,-7.1398,-7.1398,-7.1206,-7.1129,-7.1129,-7.0975,-7.0898,-7.0898,-7.0898,-7.0898,-7.0898,-7.0898,-7.0898,-7.0898,-7.0898,-7.0552,-6.9937,-6.9783,-6.8975,-6.7628,-6.7244,-6.6744,-6.6128,-6.5974,-6.5205,-6.382,-6.3782,-6.2935,-6.132,0.0,0.0,0.0,-6.2409,-6.2247,-6.1245,-6.1191,-6.0546,-5.9219,-5.9181,0.0,-5.7772,-5.7734,-5.7582,-5.7225,-5.6429,0.0,0.0,0.0,0.0,0.0,0.0,0.0,0.0,0.0,0.0,0.0,-5.0824,-5.0451,-5.0291,-5.1526,-5.2704,-5.3408,-5.4473,-5.5133,-5.5133,-5.539,-5.5868,-5.6492,-5.6565,-5.6895,-5.7666,-5.7075,-5.6452,-5.5952,-5.5081,-5.426,-5.3704,-5.3991,-5.3847,-5.28,-5.308,-5.2938,-5.1824,-5.2198,-5.2503,-5.2503,-5.2097,-5.1623,-5.1454,-5.0777,-5.0304,-5.027,-4.9763,-4.9424,-4.9258,-4.9128,-4.8938,-4.8704,-4.8576,-4.8161,-4.7473,-4.734,-4.7138,-4.6349,-4.6799,-4.7038,-4.6138,-4.6067,-4.6419,-7.3476,0.0,-7.2091,-7.1552,0.0,-7.1091,-7.0898,-7.0898,-7.0898,-7.0898,-7.0898,-7.0898,-7.0898,-7.0898,-7.0898,-7.0898,-7.0898,-7.0898,-7.0898,-7.0898,-7.0475,-7.009,-6.9667,-6.8821,-6.7936,-6.709,-6.6705,-6.6282,-6.5897,-6.5897,-6.5243,-6.3974,-6.3974,-6.3089,-6.1473,-6.0776,-6.0529,-6.0728,-6.1148,-6.095,-6.0121,-6.0048,-5.9633,-5.884,-5.8387,0.0,0.0,0.0,0.0,0.0,0.0,0.0,0.0,0.0,0.0,-5.2844,-5.1874,-5.1267,-5.1267,-5.1285,-5.1733,-5.2745,-5.3168,-5.3094,-5.2282,-5.3571,-5.4546,-5.495,-5.5721,-5.6198,-5.6198,-5.6565,-5.6932,-5.7336,-5.7409,-5.7446,-5.7373,-5.7079,-5.635,-5.5304,-5.4758,-5.4194,-5.3422,-5.3623,-5.3486,-5.2507,-5.2602,-5.2532,-5.1511,-5.1522,-5.1758,-5.1725,-5.1116,-5.0676,-5.0608,-5.0033,-4.956,-4.9492,-4.9255,-4.9052,-4.9018,-4.9018,-4.9018,-4.9018,-4.9018,-4.8829,-4.845,-4.8289,-4.8161,-4.777,-4.7966,-4.8161,-4.7638,-4.7605,-4.7704,-7.2206,-7.2129,-7.1283,-7.0898,-7.0898,-7.0898,-7.0898,-7.0898,0.0,0.0,0.0,-7.0898,-7.0898,-7.0898,-7.0898,-7.0898,-7.0898,-7.0898,-7.0821,-7.0667,-7.0014,-6.9552,-6.9167,-6.7782,-6.7026,-6.6859,-6.6205,-6.5897,-6.5897,-6.5897,-6.5359,-6.4474,-6.4397,-6.3512,-6.1923,-6.0788,-6.0175,-6.0103,-5.9931,-5.9609,-5.9158,-5.9139,-5.9102,-5.8951,-5.8143,-5.7354,-5.6492,-5.57,-5.4948,-5.4292,-5.4255,-5.4255,-5.4276,-5.3906,-5.3683,-5.3663,-5.34,-5.3261,-5.3408,-5.3387,-5.3812,-5.4766,-5.5427,-5.5537,-5.4876,-5.5427,-5.5868,-5.6037,-5.6638,-5.7005,-5.7005,-5.7593,-5.7997,-5.7997,-5.785,-5.7483,-5.6895,-5.6492,-5.5812,-5.4737,-5.4339,-5.4024,-5.3411,-5.3476,-5.3193,-5.2516,-5.2431,-5.2072,-5.1253,-5.0975,-5.0947,-5.0744,-5.0236,-4.9898,-4.983,-4.9458,-4.9018,-4.9052,-4.9018,-4.9018,-4.8984,-4.8917,-4.8815,-4.8748,-4.8714,-4.8548,-4.8578,-4.845,-4.8612,-4.8612,-4.8714,-4.8815,-4.8815,-4.8917,-4.8923,-7.2206,-7.2129,-7.1245,-7.0898,-7.0898,-7.0898,-7.0898,-7.0898,-7.0898,-7.0898,-7.0898,-7.0898,-7.0898,-7.0898,-7.0898,-7.0898,-7.0898,-7.0898,-7.0514,-6.986,-6.9744,-6.8898,-6.7475,-6.7205,-6.6744,-6.609,-6.5936,-6.5897,-6.5897,-6.5897,-6.5089,-6.3666,-6.35,-6.2627,-6.1127,-6.0784,-6.0495,-6.0103,-5.9302,-5.8673,-5.8231,-5.8172,-5.784,-5.7177,-5.6424,-5.5576,-5.478,-5.4027,-5.349,-5.3416,-5.338,-5.338,-5.3359,-5.3355,-5.3293,-5.3293,-5.3209,-5.3497,-5.4179,-5.4252,-5.4876,-5.6308,-5.6565,-5.6602,-5.6492,-5.6565,-5.6932,-5.7556,-5.7703,-5.7813,-5.785,-5.7923,-5.7997,-5.7923,-5.7409,-5.6932,-5.6748,-5.5611,-5.4723,-5.4393,-5.3792,-5.3419,-5.3316,-5.3754,-5.3611,-5.2594,-5.2519,-5.2394,-5.0812,-5.023,-4.9994,-4.9492,-4.9255,-4.9154,-4.9221,-4.912,-4.9018,-4.9018,-4.9018,-4.8984,-4.8917,-4.8477,-4.8173,-4.8041,-4.7631,-4.7259,-4.7192,-4.709,-4.7225,-4.7293,-4.7699,-4.8007,-4.8071,-4.8477,-4.8917,-7.1475,-7.1437,-7.1052,-7.0898,-7.0898,-7.0898,-7.0898,-7.0898,-7.0898,-7.0898,-7.0898,-7.0898,-7.0898,-7.0898,-7.0898,-7.0898,-7.0898,-7.0898,-7.0475,-6.9706,-6.9206,-6.8321,-6.7128,-6.6628,-6.6244,-6.5897,-6.5897,-6.5897,-6.5897,-6.5897,-6.5013,-6.3358,-6.2435,-6.155,-6.0846,-6.0572,-6.0175,-5.9744,-5.9284,-5.8855,-5.8375,-5.8142,-5.7813,-5.7446,-5.6675,-5.6088,-5.5721,-5.495,-5.4509,-5.4509,-5.4069,-5.3849,-5.3849,-5.3849,-5.3849,-5.3849,-5.4252,-5.484,-5.5647,-5.6124,-5.6675,-5.7373,-5.7446,-5.7446,-5.7446,-5.7446,-5.7593,-5.796,-5.7997,-5.7997,-5.7997,-5.7997,-5.7997,-5.7997,-5.7262,-5.6638,-5.6124,-5.517,-5.4252,-5.3812,-5.3424,-5.3203,-5.3203,-5.3518,-5.3376,-5.2338,-5.2197,-5.1708,-5.0697,-5.0253,-4.9812,-4.9178,-4.9018,-4.9018,-4.9018,-4.9018,-4.9018,-4.9018,-4.9018,-4.8849,-4.8545,-4.8041,-4.7736,-4.7394,-4.6989,-4.6819,-4.6752,-4.6786,-4.6786,-4.6819,-4.7022,-4.7293,-4.7361,-4.7597,-4.8037,-7.0898,-7.0898,-7.0898,-7.0898,-7.0898,-7.0898,-7.0898,-7.0898,-7.0898,-7.0898,-7.0898,-7.0898,-7.0898,-7.0898,-7.0898,-7.0898,-7.086,-7.0706,-7.0167,-6.936,-6.8513,-6.7667,-6.6821,-6.6167,-6.5897,-6.5897,-6.5897,-6.5897,-6.5897,-6.5897,-6.5013,-6.3281,-6.1627,-6.0781,-6.0781,-6.0456,-6.0044,-5.9614,-5.9441,-5.9102,-5.8549,-5.8186,-5.7997,-5.7923,-5.7226,-5.6785,-5.6748,-5.6014,-5.5633,-5.5596,-5.4987,-5.4656,-5.4656,-5.4656,-5.4656,-5.473,-5.5244,-5.5941,-5.6748,-5.7556,-5.7997,-5.7997,-5.7997,-5.7997,-5.7997,-5.7997,-5.7997,-5.7997,-5.7997,-5.7997,-5.7997,-5.7997,-5.7997,-5.796,-5.7079,-5.6308,-5.5647,-5.473,-5.3922,-5.3277,-5.3203,-5.3203,-5.3203,-5.3203,-5.298,-5.2463,-5.1777,-5.1343,-5.1241,-5.0608,-4.9809,-4.9372,-4.9107,-4.9018,-4.9018,-4.9018,-4.9018,-4.9018,-4.8815,-4.8511,-4.8007,-4.7703,-4.7225,-4.6616,-4.6346,-4.6177,-4.6273,-4.6244,-4.6177,-4.6172,-4.6346,-4.6583,-4.6819,-4.6887,-4.7124,-7.0898,-7.0898,-7.0898,-7.0898,-7.0898,-7.0898,-7.0898,-7.0898,-7.0898,-7.0898,-7.0898,-7.0898,-7.0898,-7.0898,-7.0898,-7.0898,-7.086,-7.0129,-6.936,-6.8513,-6.7628,-6.6782,-6.609,-6.5936,-6.5897,-6.5897,-6.5897,-6.5897,-6.5897,-6.582,-6.4974,-6.332,-6.1627,-6.0781,-6.0781,-6.0746,-6.0495,-6.0021,-5.9647,-5.8971,-5.8119,-5.8042,-5.7997,-5.796,-5.7226,-5.6785,-5.6822,-5.6014,-5.5633,-5.5633,-5.5537,-5.5464,-5.5464,-5.5486,-5.5522,-5.5522,-5.5574,-5.5941,-5.6785,-5.7556,-5.7997,-5.7997,-5.7997,-5.7997,-5.7997,-5.7997,-5.7997,-5.7997,-5.7997,-5.7997,-5.7997,-5.7997,-5.7997,-5.7923,-5.6675,-5.5647,-5.5427,-5.4252,-5.3261,-5.3203,-5.3203,-5.3203,-5.3203,-5.3203,-5.3146,-5.3002,-5.2463,-5.2018,-5.1922,-5.1008,-5.023,-4.989,-4.9462,-4.9077,-4.9049,-4.9018,-4.8951,-4.8951,-4.8443,-4.7973,-4.7601,-4.6722,-4.5872,-4.5838,-4.5365,-4.5055,-4.4953,-4.4818,-4.4919,-4.519,-4.55,-4.5974,-4.6549,-4.665,-4.6786,-7.0898,-7.0898,-7.0898,-7.0898,-7.0898,-7.0898,-7.0898,-7.0898,-7.0898,-7.0898,-7.0898,-7.0898,-7.0898,-7.0898,-7.0898,-7.0898,-7.0821,-7.009,-6.9244,-6.8359,-6.7513,-6.6667,-6.5936,-6.5897,-6.5897,-6.5897,-6.5897,-6.5897,-6.5705,-6.4897,-6.3974,-6.3192,-6.1627,-6.0781,-6.0781,-6.0781,-6.0546,-6.0118,-5.9916,-5.9354,-5.8487,-5.8142,-5.7997,-5.796,-5.7666,-5.7519,-5.7483,-5.7152,-5.7005,-5.6969,-5.6565,-5.6308,-5.6308,-5.6308,-5.6308,-5.6345,-5.6748,-5.7152,-5.7483,-5.7813,-5.7997,-5.7997,-5.7997,-5.7997,-5.7997,-5.7997,-5.7997,-5.7997,-5.7997,-5.7997,-5.7997,-5.7997,-5.7997,-5.7776,-5.6565,-5.5574,-5.5574,-5.4179,-5.3203,-5.3203,-5.3203,-5.3203,-5.3203,-5.3203,-5.3203,-5.3203,-5.2893,-5.2725,-5.2644,-5.1874,-5.1343,-5.1189,-5.0689,-4.9896,-4.9256,-4.9018,-4.8815,-4.8443,-4.8139,-4.777,-4.6688,-4.6244,-4.5602,-4.5128,-4.4852,-4.4615,-4.4682,-4.4581,-4.4615,-4.4682,-4.4716,-4.5162,-4.5461,-4.5529,-4.5495,-7.0898,-7.0898,-7.0898,-7.0898,-7.0898,-7.0898,-7.0898,-7.0898,-7.0898,-7.0898,-7.0898,-7.0898,-7.0898,-7.0898,-7.0898,-7.0898,-7.0783,-7.0052,-6.9244,-6.8346,-6.7513,-6.668,-6.5936,-6.5897,-6.5897,-6.5897,-6.5897,-6.5897,-6.5705,-6.4128,-6.3308,-6.3051,-6.1627,-6.0781,-6.0781,-6.0781,-6.0546,-6.0146,-6.0103,-5.969,-5.8971,-5.8549,-5.826,-5.8042,-5.7997,-5.7997,-5.7997,-5.7997,-5.7997,-5.796,-5.7446,-5.7116,-5.7116,-5.7152,-5.7152,-5.7189,-5.7666,-5.7997,-5.7997,-5.7997,-5.7997,-5.7997,-5.7997,-5.7997,-5.7997,-5.7997,-5.7997,-5.7997,-5.7997,-5.7997,-5.7997,-5.7997,-5.7923,-5.7629,-5.6381,-5.5537,-5.5207,-5.3995,-5.3203,-5.3203,-5.3203,-5.3203,-5.3203,-5.3203,-5.3203,-5.3203,-5.3203,-5.3203,-5.3103,-5.2554,-5.2065,-5.2029,-5.1351,-5.0293,-4.9242,-4.8971,-4.8609,-4.78,-4.7428,-4.6819,-4.5838,-4.5635,-4.5365,-4.4852,-4.4682,-4.4581,-4.4581,-4.4581,-4.4609,-4.4581,-4.4615,-4.4649,-4.4784,-4.4649,-4.4649,-7.0898,-7.0898,-7.0898,-7.0898,-7.0898,-7.0898,-7.0898,-7.0898,-7.0898,-7.0898,-7.0898,-7.0898,-7.0898,-7.0898,-7.0898,-7.0898,-7.0783,-7.0052,-6.9244,-6.8398,-6.7513,-6.6667,-6.5936,-6.5897,-6.5897,-6.5897,-6.5897,-6.5897,-6.5782,-6.4205,-6.3308,-6.3243,-6.1704,-6.0819,-6.0858,-6.0819,-6.0546,-6.0189,-6.0146,-5.9885,-5.9424,-5.9337,-5.8894,-5.815,-5.8006,-5.8051,-5.8042,-5.7983,-5.802,-5.7997,-5.7946,-5.7909,-5.7946,-5.7909,-5.7932,-5.7923,-5.796,-5.7997,-5.7997,-5.7997,-5.7997,-5.7997,-5.7997,-5.7997,-5.7997,-5.7997,-5.7997,-5.7997,-5.7997,-5.7997,-5.7997,-5.7997,-5.7703,-5.7005,-5.6124,-5.5317,-5.4546,-5.3812,-5.324,-5.3203,-5.3203,-5.3203,-5.3203,-5.3203,-5.3203,-5.3203,-5.3203,-5.3203,-5.3103,-5.2576,-5.2229,-5.1921,-5.1082,-4.9731,-4.909,-4.8903,-4.8283,-4.7569,-4.6902,-4.6045,-4.5563,-4.5196,-4.4908,-4.4726,-4.4858,-4.4852,-4.4665,-4.4609,-4.4637,-4.4637,-4.4581,-4.4615,-4.4581,-4.4581,-4.4581,-7.0898,-7.0898,-7.0898,-7.0898,-7.0898,-7.0898,-7.0898,-7.0898,-7.0898,-7.0898,-7.0898,-7.0898,-7.0898,-7.0898,-7.0898,-7.0898,-7.0821,-7.0052,-6.9244,-6.8359,-6.7513,-6.6667,-6.5936,-6.5897,-6.5897,-6.5897,-6.5897,-6.5897,-6.5782,-6.4705,-6.4128,-6.3858,-6.2435,-6.1627,-6.155,-6.105,-6.0722,-6.0585,-6.0572,-6.0324,-5.9901,-5.9855,-5.9526,-5.8951,-5.8894,-5.8736,-5.8461,-5.8461,-5.8326,-5.802,-5.8282,-5.8461,-5.8461,-5.8461,-5.8304,-5.8065,-5.7997,-5.7997,-5.7997,-5.7997,-5.7997,-5.7997,-5.7997,-5.7997,-5.7997,-5.7997,-5.7997,-5.7997,-5.7997,-5.7997,-5.7997,-5.7997,-5.7703,-5.6895,-5.6088,-5.5244,-5.4509,-5.3702,-5.3203,-5.3203,-5.3203,-5.3203,-5.3203,-5.3203,-5.3203,-5.3203,-5.3203,-5.3203,-5.3146,-5.2937,-5.2769,-5.266,-5.1922,-5.0823,-4.9627,-4.9023,-4.8452,-4.7753,-4.7091,-4.6681,-4.6256,-4.5944,-4.5708,-4.5631,-4.5571,-4.5545,-4.5468,-4.5169,-4.5089,-4.472,-4.4665,-4.4581,-4.4581,-4.4581,-4.4581,-7.0898,-7.0898,-7.0898,-7.0898,-7.0898,-7.0898,-7.0898,-7.0898,-7.0898,-7.0898,-7.0898,-7.0898,-7.0898,-7.0898,-7.0898,-7.0898,-7.0821,-7.0321,-6.9475,-6.8436,-6.7782,-6.6936,-6.6013,-6.5897,-6.5897,-6.5897,-6.5897,-6.5897,-6.5782,-6.5013,-6.4628,-6.4512,-6.2935,-6.2101,-6.1985,-6.1216,-6.0781,-6.0781,-6.0781,-6.0634,-6.0351,-6.0324,-6.0175,-5.9901,-5.9855,-5.9543,-5.8971,-5.8776,-5.857,-5.8326,-5.8528,-5.8676,-5.8676,-5.8676,-5.8466,-5.8088,-5.7997,-5.7997,-5.7997,-5.7997,-5.7997,-5.7997,-5.7997,-5.7997,-5.7997,-5.7997,-5.7997,-5.7997,-5.7997,-5.7997,-5.7997,-5.7997,-5.7556,-5.6565,-5.5684,-5.4876,-5.4106,-5.3555,-5.324,-5.3203,-5.3203,-5.3203,-5.3203,-5.3203,-5.3203,-5.3203,-5.3203,-5.3203,-5.3203,-5.3203,-5.3057,-5.2784,-5.2009,-5.0978,-4.9858,-4.9028,-4.814,-4.738,-4.7177,-4.6932,-4.685,-4.6613,-4.6483,-4.6436,-4.6413,-4.6389,-4.6198,-4.584,-4.5451,-4.5015,-4.4692,-4.4581,-4.4581,-4.4581,-4.4581,-7.0898,-7.0898,-7.0898,-7.0898,-7.0898,-7.0898,-7.0898,-7.0898,-7.0898,-7.0898,-7.0898,-7.0898,-7.0898,-7.0898,-7.0898,-7.0898,-7.0898,-7.0821,-6.9975,-6.859,-6.8346,-6.7475,-6.6051,-6.5936,-6.5897,-6.5897,-6.5897,-6.5897,-6.582,-6.5128,-6.4743,-6.4397,-6.3051,-6.2255,-6.2139,-6.132,-6.0781,-6.0781,-6.0781,-6.0769,-6.0781,-6.0746,-6.0722,-6.0722,-6.0671,-6.0311,-5.9458,-5.9047,-5.8776,-5.8733,-5.8756,-5.8753,-5.8815,-5.8776,-5.8508,-5.8164,-5.7983,-5.7997,-5.7997,-5.7997,-5.7997,-5.7997,-5.7997,-5.7997,-5.7997,-5.7997,-5.7997,-5.7997,-5.8029,-5.8029,-5.8051,-5.8009,-5.7398,-5.5868,-5.506,-5.4363,-5.3555,-5.3203,-5.3203,-5.3203,-5.3203,-5.3203,-5.3203,-5.3203,-5.3203,-5.3203,-5.3203,-5.3203,-5.3203,-5.3203,-5.2858,-5.216,-5.1536,-5.0721,-4.9808,-4.8852,-4.7817,-4.6959,-4.6975,-4.6868,-4.7039,-4.6919,-4.6999,-4.6977,-4.7021,-4.6941,-4.6705,-4.6329,-4.5965,-4.552,-4.5142,-4.4769,-4.4769,-4.4797,-4.4609,-7.0898,-7.0898,-7.0898,-7.0898,-7.0898,-7.0898,-7.0898,-7.0898,-7.0898,-7.0898,-7.0898,-7.0898,-7.0898,-7.0898,-7.0898,-7.0898,-7.0898,-7.086,-7.0321,-6.936,-6.8692,-6.7821,-6.6782,-6.6167,-6.5897,-6.5897,-6.5897,-6.5897,-6.582,-6.559,-6.5474,-6.5166,-6.3782,-6.2974,-6.282,-6.155,-6.0781,-6.0781,-6.0781,-6.0781,-6.0781,-6.0781,-6.0781,-6.0781,-6.0781,-6.0634,-6.0351,-5.9916,-5.9509,-5.9194,-5.9475,-5.9642,-5.9592,-5.9354,-5.8952,-5.8545,-5.8186,-5.7997,-5.7997,-5.7997,-5.7997,-5.7997,-5.7997,-5.7997,-5.7997,-5.7997,-5.7997,-5.8029,-5.8282,-5.8482,-5.8433,-5.8273,-5.7444,-5.5794,-5.5376,-5.4604,-5.346,-5.3203,-5.3203,-5.3203,-5.3203,-5.3203,-5.3203,-5.3203,-5.3203,-5.3203,-5.3203,-5.3203,-5.3203,-5.3203,-5.2894,-5.2123,-5.1316,-5.0435,-4.9517,-4.882,-4.8101,-4.7533,-4.7428,-4.732,-4.737,-4.7413,-4.7491,-4.7512,-4.7533,-4.7449,-4.7132,-4.6819,-4.6472,-4.6088,-4.5699,-4.5425,-4.5214,-4.5035,-4.4852,-7.0898,-7.0898,-7.0898,-7.0898,-7.0898,-7.0898,-7.0898,-7.0898,-7.0898,-7.0898,-7.0898,-7.0898,-7.0898,-7.0898,-7.0898,-7.0898,-7.0898,-7.0898,-7.0629,-6.9975,-6.8898,-6.7936,-6.7051,-6.6282,-6.5897,-6.5897,-6.5897,-6.5897,-6.5897,-6.5897,-6.5897,-6.5628,-6.4474,-6.3589,-6.3231,-6.2012,-6.1166,-6.0858,-6.0781,-6.0781,-6.0781,-6.0781,-6.0781,-6.0781,-6.0781,-6.0781,-6.0769,-6.0495,-6.0146,-5.9808,-5.9946,-6.0103,-6.0074,-5.9663,-5.9176,-5.8696,-5.8304,-5.7997,-5.7997,-5.7997,-5.7997,-5.7997,-5.7997,-5.7997,-5.7997,-5.7997,-5.7997,-5.8029,-5.8397,-5.8676,-5.8661,-5.8727,-5.7922,-5.6467,-5.5718,-5.4817,-5.3529,-5.3203,-5.3203,-5.3203,-5.3203,-5.3203,-5.3203,-5.3203,-5.3203,-5.3203,-5.3203,-5.3203,-5.3203,-5.3203,-5.2637,-5.1977,-5.1169,-5.0251,-4.926,-4.8746,-4.8379,-4.8209,-4.8094,-4.8015,-4.8015,-4.7995,-4.8015,-4.7995,-4.8015,-4.7975,-4.7715,-4.7385,-4.7021,-4.6635,-4.6281,-4.584,-4.5545,-4.5267,-4.5035,-7.0898,-7.0898,-7.0898,-7.0898,-7.0898,-7.0898,-7.0898,-7.0898,-7.0898,-7.0898,-7.0898,-7.0898,-7.0898,-7.0898,-7.0898,-7.0898,-7.0898,-7.0898,-7.0898,-7.036,-6.9206,-6.7936,-6.7051,-6.6282,-6.5897,-6.5897,-6.5897,-6.5897,-6.5897,-6.5897,-6.5897,-6.5782,-6.4936,-6.4205,-6.3435,-6.2551,-6.1639,-6.1089,-6.0858,-6.0781,-6.0781,-6.0781,-6.0781,-6.0781,-6.0781,-6.0781,-6.0769,-6.0746,-6.0585,-6.0189,-6.0175,-6.0203,-6.0089,-5.9712,-5.9266,-5.8815,-5.8326,-5.8074,-5.8006,-5.7997,-5.7997,-5.7997,-5.8051,-5.8042,-5.8097,-5.8194,-5.826,-5.8282,-5.8652,-5.8874,-5.8933,-5.9244,-5.8812,-5.7641,-5.6256,-5.485,-5.3592,-5.3424,-5.3547,-5.3371,-5.323,-5.3209,-5.3209,-5.3203,-5.3203,-5.3203,-5.3203,-5.3203,-5.3203,-5.302,-5.2417,-5.1793,-5.1242,-5.0618,-4.9811,-4.9517,-4.9224,-4.915,-4.893,-4.8563,-4.8416,-4.8343,-4.8306,-4.8306,-4.8453,-4.8397,-4.819,-4.7854,-4.7632,-4.7406,-4.691,-4.6281,-4.594,-4.58,-4.5702,-7.0898,-7.0898,-7.0898,-7.0898,-7.0898,-7.0898,-7.0898,-7.0898,-7.0898,-7.0898,-7.0898,-7.0898,-7.0898,-7.0898,-7.0898,-7.0898,-7.0898,-7.0898,-7.0898,-7.0629,-6.9154,-6.7975,-6.709,-6.6282,-6.5897,-6.5897,-6.5897,-6.5897,-6.5897,-6.5897,-6.5897,-6.5859,-6.5089,-6.4512,-6.4089,-6.2858,-6.2062,-6.1678,-6.1089,-6.0819,-6.0819,-6.0819,-6.0781,-6.0781,-6.0781,-6.0781,-6.0781,-6.0781,-6.0757,-6.0634,-6.0622,-6.0622,-6.0533,-6.0146,-5.9658,-5.923,-5.8793,-5.8332,-5.8074,-5.7997,-5.7997,-5.8042,-5.8326,-5.8487,-5.8508,-5.8835,-5.8971,-5.9102,-5.9441,-5.9674,-5.9792,-6.0103,-5.9712,-5.8615,-5.7126,-5.5715,-5.4874,-5.482,-5.4722,-5.3869,-5.3643,-5.3504,-5.3272,-5.3203,-5.3203,-5.3203,-5.3203,-5.3203,-5.3203,-5.313,-5.2711,-5.2197,-5.1646,-5.1132,-5.0618,-5.0398,-5.0215,-5.0178,-4.9738,-4.8967,-4.871,-4.8416,-4.8343,-4.8306,-4.8746,-4.8837,-4.8507,-4.8187,-4.8092,-4.8138,-4.7569,-4.699,-4.6796,-4.6671,-4.6705,-7.0898,-7.0898,-7.0898,-7.0898,-7.0898,-7.0898,-7.0898,-7.0898,-7.0898,-7.0898,-7.0898,-7.0898,-7.0898,-7.0898,-7.0898,-7.0898,-7.0898,-7.0898,-7.0898,-7.0629,-6.9167,-6.7782,-6.6744,-6.6051,-6.5897,-6.5897,-6.5897,-6.5897,-6.5897,-6.5897,-6.5897,-6.582,-6.5397,-6.4974,-6.4512,-6.3743,-6.2935,-6.2551,-6.1781,-6.1358,-6.1331,-6.0973,-6.0781,-6.0781,-6.0781,-6.0781,-6.0781,-6.0781,-6.0781,-6.0781,-6.0781,-6.0781,-6.0757,-6.0351,-5.9962,-5.9696,-5.9065,-5.8549,-5.8348,-5.8142,-5.8097,-5.8282,-5.857,-5.8776,-5.899,-5.9266,-5.9389,-5.9407,-5.9839,-6.0036,-6.0132,-6.0351,-6.0122,-5.944,-5.8489,-5.7311,-5.6028,-5.5731,-5.5303,-5.4575,-5.4038,-5.3662,-5.3272,-5.3225,-5.3203,-5.3203,-5.3203,-5.3203,-5.3203,-5.3167,-5.3004,-5.2417,-5.2013,-5.1536,-5.1096,-5.0839,-5.0729,-5.0729,-5.0545,-4.9774,-4.9297,-4.893,-4.904,-4.915,-4.926,-4.926,-4.915,-4.9003,-4.8891,-4.8716,-4.817,-4.7747,-4.7551,-4.7745,-4.7791,-7.0898,-7.0898,-7.0898,-7.0898,-7.0898,-7.0898,-7.0898,-7.0898,-7.0898,-7.0898,-7.0898,-7.0898,-7.0898,-7.0898,-7.0898,-7.0898,-7.0898,-7.0898,-7.0667,-7.0129,-6.8975,-6.759,-6.6128,-6.5974,-6.5897,-6.5897,-6.5897,-6.5897,-6.5897,-6.5897,-6.5897,-6.5859,-6.582,-6.5474,-6.4936,-6.4551,-6.4166,-6.3435,-6.2627,-6.2101,-6.187,-6.1408,-6.105,-6.0781,-6.0781,-6.0781,-6.0781,-6.0781,-6.0781,-6.0781,-6.0781,-6.0781,-6.0746,-6.0365,-6.0146,-5.9977,-5.9389,-5.8932,-5.8716,-5.8461,-5.8354,-5.8696,-5.8835,-5.9028,-5.9407,-5.9592,-5.969,-5.9706,-5.9931,-6.0189,-6.0269,-6.0255,-6.0245,-6.0078,-6.0046,-5.9215,-5.781,-5.6624,-5.588,-5.5376,-5.4613,-5.3886,-5.3494,-5.3246,-5.3203,-5.3203,-5.3203,-5.3203,-5.3203,-5.3167,-5.291,-5.2527,-5.2197,-5.194,-5.1573,-5.1242,-5.1169,-5.1132,-5.1132,-5.0692,-5.0308,-5.0088,-5.0178,-5.0251,-5.0068,-5.0141,-5.0288,-5.0105,-4.9831,-4.9608,-4.9265,-4.8607,-4.813,-4.8784,-4.9025,-7.0898,-7.0898,-7.0898,-7.0898,-7.0898,-7.0898,-7.0898,-7.0898,-7.0898,-7.0898,-7.0898,-7.0898,-7.0898,-7.0898,-7.0898,-7.0898,-7.0898,-7.0821,-7.0283,-6.8936,-6.8692,-6.7436,-6.6244,-6.5974,-6.5936,-6.5897,-6.5897,-6.5897,-6.5897,-6.5897,-6.5897,-6.5897,-6.5897,-6.582,-6.5551,-6.4936,-6.4551,-6.4205,-6.3474,-6.2781,-6.2332,-6.1985,-6.1524,-6.105,-6.0896,-6.0858,-6.0819,-6.0781,-6.0781,-6.0781,-6.0858,-6.0973,-6.0796,-6.071,-6.0469,-6.0161,-5.9946,-5.9592,-5.9302,-5.9158,-5.9121,-5.923,-5.9509,-5.9855,-5.9931,-6.0283,-6.0443,-6.0495,-6.061,-6.061,-6.0597,-6.0634,-6.061,-6.0597,-6.0559,-6.0444,-5.9907,-5.9102,-5.8064,-5.708,-5.6021,-5.5142,-5.4707,-5.3793,-5.3502,-5.3304,-5.3209,-5.3225,-5.3203,-5.3203,-5.2983,-5.2674,-5.2637,-5.2491,-5.238,-5.205,-5.194,-5.183,-5.1756,-5.172,-5.1316,-5.1059,-5.1132,-5.0986,-5.0692,-5.0912,-5.1279,-5.0912,-5.0545,-5.0435,-5.0325,-4.9854,-4.9606,-5.0044,-5.0222,-7.0898,-7.0898,-7.0898,-7.0898,-7.0898,-7.0898,-7.0898,-7.0898,-7.0898,-7.0898,-7.0898,-7.0898,-7.0898,-7.0898,-7.0898,-7.0898,-7.0898,-7.086,-7.0014,-6.8859,-6.8706,-6.809,-6.6898,-6.6744,-6.6782,-6.609,-6.5897,-6.5897,-6.5897,-6.5897,-6.5897,-6.5897,-6.5897,-6.5897,-6.5897,-6.5397,-6.5282,-6.5051,-6.4359,-6.3666,-6.332,-6.282,-6.2551,-6.2089,-6.1935,-6.1858,-6.1473,-6.182,-6.1743,-6.1589,-6.1704,-6.155,-6.0896,-6.0781,-6.0685,-6.0482,-6.0175,-6.0006,-5.9738,-5.9526,-5.9458,-5.9706,-5.9962,-6.0189,-6.0365,-6.0671,-6.0757,-6.0781,-6.0769,-6.0781,-6.0781,-6.0781,-6.0781,-6.0781,-6.0781,-6.0781,-6.0666,-6.005,-5.9202,-5.8217,-5.7224,-5.6538,-5.5795,-5.4876,-5.4387,-5.4367,-5.3657,-5.358,-5.3188,-5.3167,-5.3203,-5.3057,-5.3093,-5.3093,-5.3057,-5.2947,-5.2763,-5.2674,-5.2601,-5.2564,-5.2417,-5.2197,-5.205,-5.1867,-5.172,-5.1977,-5.2197,-5.1756,-5.1353,-5.1242,-5.1132,-5.0949,-5.0892,-5.0957,-5.1156,-7.0898,-7.0898,-7.0898,-7.0898,-7.0898,-7.0898,-7.0898,-7.0898,-7.0898,-7.0898,-7.0898,-7.0898,-7.0898,-7.0898,-7.0898,-7.0898,-7.0898,-7.0821,-7.0052,-6.8975,-6.9321,-6.8475,-6.7513,-6.759,-6.7475,-6.6205,-6.6397,-6.6397,-6.6205,-6.6051,-6.609,-6.5936,-6.5897,-6.5897,-6.5897,-6.5897,-6.5782,-6.5628,-6.5128,-6.4628,-6.4359,-6.3782,-6.3435,-6.3089,-6.3051,-6.282,-6.2474,-6.2704,-6.2897,-6.2397,-6.2935,-6.2474,-6.1627,-6.1166,-6.105,-6.1038,-6.0724,-6.0488,-6.0289,-6.0084,-6.0098,-6.0265,-6.0585,-6.0608,-6.0825,-6.0962,-6.0973,-6.0858,-6.0781,-6.0781,-6.0781,-6.0781,-6.0781,-6.0781,-6.0781,-6.0781,-6.0666,-6.0127,-5.965,-5.9216,-5.8377,-5.7597,-5.7072,-5.6359,-5.5891,-5.5339,-5.4595,-5.3944,-5.3632,-5.3293,-5.3318,-5.3188,-5.3203,-5.3203,-5.3203,-5.3404,-5.331,-5.312,-5.312,-5.3099,-5.3078,-5.2873,-5.2616,-5.2873,-5.2873,-5.2947,-5.2837,-5.247,-5.2197,-5.205,-5.194,-5.183,-5.183,-5.183,-5.2013,-7.0898,-7.0898,-7.0898,-7.0898,-7.0898,-7.0898,-7.0898,-7.0898,-7.0898,-7.0898,-7.0898,-7.0898,-7.0898,-7.0898,-7.0898,-7.0898,-7.0898,-7.0821,-7.036,-6.9513,-6.9629,-6.8859,-6.7705,-6.8129,-6.7898,-6.7398,-6.7475,-6.7552,-6.7051,-6.691,-6.6667,-6.609,-6.6051,-6.6051,-6.6013,-6.5897,-6.5974,-6.5897,-6.5628,-6.5282,-6.4782,-6.4512,-6.4128,-6.3666,-6.3615,-6.3397,-6.3243,-6.3243,-6.3243,-6.3128,-6.3231,-6.3166,-6.2974,-6.2897,-6.2551,-6.2,-6.1759,-6.1454,-6.1007,-6.1326,-6.1173,-6.1197,-6.1786,-6.1825,-6.1423,-6.1447,-6.1512,-6.105,-6.0858,-6.0781,-6.0781,-6.0781,-6.0781,-6.0781,-6.0781,-6.0781,-6.0742,-6.0589,-6.0411,-6.0149,-5.9356,-5.8672,-5.8292,-5.7764,-5.7147,-5.6458,-5.568,-5.505,-5.4615,-5.4016,-5.3604,-5.3404,-5.3203,-5.3203,-5.3203,-5.3543,-5.3644,-5.3343,-5.324,-5.3214,-5.3193,-5.3188,-5.3203,-5.3203,-5.3203,-5.313,-5.302,-5.2947,-5.2873,-5.2674,-5.2674,-5.2711,-5.2601,-5.2491,-5.2674,-7.0898,-7.0898,-7.0898,-7.0898,-7.0898,-7.0898,-7.0898,-7.0898,-7.0898,-7.0898,-7.0898,-7.0898,-7.0898,-7.0898,-7.0898,-7.0898,-7.0898,-7.0898,-7.0437,-6.9898,-7.0014,-6.9436,-6.8013,-6.8667,-6.8783,-6.8629,-6.8859,-6.8629,-6.7859,-6.7782,-6.7513,-6.7359,-6.7205,-6.7013,-6.6628,-6.6551,-6.6244,-6.6051,-6.5859,-6.5705,-6.5282,-6.5243,-6.4936,-6.4782,-6.4551,-6.4436,-6.4089,-6.4512,-6.4397,-6.4166,-6.4436,-6.4589,-6.4589,-6.4474,-6.4051,-6.3012,-6.2743,-6.2589,-6.2166,-6.2512,-6.2462,-6.2269,-6.2935,-6.2935,-6.2435,-6.2435,-6.2281,-6.1639,-6.0935,-6.0781,-6.0781,-6.0781,-6.0781,-6.0781,-6.0781,-6.0781,-6.0781,-6.0781,-6.0781,-6.0781,-6.025,-5.9805,-5.9767,-5.9177,-5.8411,-5.761,-5.6823,-5.622,-5.5683,-5.4998,-5.4367,-5.4205,-5.4073,-5.4092,-5.411,-5.4298,-5.4406,-5.4035,-5.38,-5.3739,-5.3481,-5.3534,-5.334,-5.3203,-5.3203,-5.3203,-5.3167,-5.3057,-5.313,-5.3203,-5.3057,-5.2983,-5.3093,-5.3167,-5.3203,-7.0898,-7.0898,-7.0898,-7.0898,-7.0898,-7.0898,-7.0898,-7.0898,-7.0898,-7.0898,-7.0898,-7.0898,-7.0898,-7.0898,-7.0898,-7.0898,-7.0898,-7.0898,-7.0552,-7.0283,-7.0514,-7.0014,-6.9283,-6.9398,-6.9783,-6.9436,-6.9821,-6.9513,-6.8821,-6.8667,-6.859,-6.8244,-6.8321,-6.7975,-6.7205,-6.6974,-6.659,-6.6128,-6.5897,-6.5897,-6.5897,-6.5897,-6.5897,-6.5897,-6.5897,-6.5474,-6.5013,-6.5359,-6.5397,-6.5205,-6.5397,-6.582,-6.5859,-6.5859,-6.5243,-6.4089,-6.3705,-6.3512,-6.3308,-6.3512,-6.3435,-6.3089,-6.3589,-6.3628,-6.3231,-6.3012,-6.2897,-6.2166,-6.1589,-6.0973,-6.0858,-6.0781,-6.0781,-6.0781,-6.0781,-6.0781,-6.0781,-6.0781,-6.0781,-6.0781,-6.0781,-6.0642,-6.0402,-6.0275,-5.9485,-5.9102,-5.8295,-5.7592,-5.6982,-5.6132,-5.5545,-5.5314,-5.5233,-5.5265,-5.5303,-5.5416,-5.5442,-5.5207,-5.5044,-5.4969,-5.444,-5.3974,-5.3781,-5.3661,-5.3203,-5.3203,-5.3203,-5.3203,-5.3203,-5.3203,-5.3203,-5.3203,-5.3203,-5.3203,-5.3203,-7.0898,-7.0898,-7.0898,-7.0898,-7.0898,-7.0898,-7.0898,-7.0898,-7.0898,-7.0898,-7.0898,-7.0898,-7.0898,-7.0898,-7.0898,-7.0898,-7.0898,-7.0898,-7.0821,-7.0667,-7.0783,-7.0398,-6.9706,-7.0398,-7.0129,-6.986,-7.0321,-7.0244,-6.9706,-6.9552,-6.9167,-6.8744,-6.8552,-6.8013,-6.7359,-6.7167,-6.6667,-6.6051,-6.5897,-6.5897,-6.5897,-6.5897,-6.5897,-6.5897,-6.5859,-6.582,-6.559,-6.582,-6.5743,-6.5743,-6.5782,-6.5897,-6.5897,-6.5897,-6.5859,-6.5436,-6.4897,-6.4128,-6.3743,-6.4089,-6.4205,-6.4051,-6.4589,-6.4551,-6.4051,-6.3462,-6.3128,-6.2216,-6.1985,-6.1704,-6.1243,-6.0935,-6.0858,-6.0896,-6.0973,-6.0896,-6.0819,-6.0781,-6.0781,-6.0781,-6.0781,-6.0781,-6.0642,-6.0654,-6.0565,-6.0246,-5.9763,-5.8974,-5.8217,-5.7281,-5.674,-5.6516,-5.6478,-5.6492,-5.6454,-5.6559,-5.6459,-5.629,-5.6191,-5.6073,-5.5529,-5.4983,-5.465,-5.4421,-5.3886,-5.3408,-5.3445,-5.3424,-5.3277,-5.3203,-5.3203,-5.3203,-5.3203,-5.3203,-5.3203,-7.0898,-7.0898,-7.0898,-7.0898,-7.0898,-7.0898,-7.0898,-7.0898,-7.0898,-7.0898,-7.0898,-7.0898,-7.0898,-7.0898,-7.0898,-7.0898,-7.0898,-7.0898,-7.0898,-7.0898,-7.0821,-7.0475,-6.9898,-7.0014,-6.9937,-6.9975,-7.0052,-7.036,-7.0206,-7.0321,-7.0129,-6.9783,-6.9321,-6.8744,-6.7744,-6.7321,-6.6667,-6.6128,-6.5897,-6.5897,-6.5897,-6.5897,-6.5897,-6.5897,-6.5897,-6.5897,-6.5897,-6.5897,-6.5897,-6.5897,-6.5897,-6.5897,-6.5897,-6.5897,-6.5897,-6.5859,-6.559,-6.5166,-6.4936,-6.5128,-6.4974,-6.4974,-6.5397,-6.5436,-6.4782,-6.4282,-6.3935,-6.3589,-6.3051,-6.2589,-6.2281,-6.2243,-6.1897,-6.1704,-6.1473,-6.1127,-6.0973,-6.0819,-6.0781,-6.0781,-6.0781,-6.0781,-6.0781,-6.0781,-6.0704,-6.05,-6.0104,-5.9482,-5.8884,-5.8258,-5.7851,-5.7672,-5.7698,-5.7736,-5.7659,-5.7659,-5.7439,-5.732,-5.718,-5.6974,-5.6596,-5.6144,-5.5808,-5.5475,-5.508,-5.4622,-5.4002,-5.3592,-5.3371,-5.324,-5.3203,-5.3203,-5.3203,-5.3203,-5.3203,-7.0898,-7.0898,-7.0898,-7.0898,-7.0898,-7.0898,-7.0898,-7.0898,-7.0898,-7.0898,-7.0898,-7.0898,-7.0898,-7.0898,-7.0898,-7.0898,-7.0898,-7.0898,-7.0898,-7.0898,-7.0821,-7.0591,-7.0283,-7.009,-7.009,-6.9975,-7.0167,-7.0398,-7.0706,-7.0821,-7.0783,-7.086,-6.9937,-6.9206,-6.8359,-6.7513,-6.6705,-6.5974,-6.5897,-6.5897,-6.5897,-6.5897,-6.5897,-6.5897,-6.5897,-6.5897,-6.5897,-6.5897,-6.5897,-6.5897,-6.5897,-6.5897,-6.5897,-6.5897,-6.5897,-6.5897,-6.5782,-6.5743,-6.5667,-6.5743,-6.5897,-6.5897,-6.5897,-6.582,-6.5743,-6.5243,-6.4705,-6.4436,-6.4012,-6.3589,-6.3358,-6.3205,-6.2897,-6.2435,-6.2127,-6.1666,-6.1281,-6.1127,-6.0935,-6.0781,-6.0781,-6.0781,-6.0781,-6.0781,-6.0742,-6.0704,-6.0358,-5.9896,-5.9538,-5.9115,-5.9107,-5.8959,-5.901,-5.9084,-5.9057,-5.888,-5.8617,-5.84,-5.8284,-5.8182,-5.7968,-5.7486,-5.7035,-5.6687,-5.6273,-5.526,-5.4359,-5.3855,-5.3445,-5.3277,-5.3203,-5.3203,-5.3203,-5.3203,-5.3203,-7.0898,-7.0898,-7.0898,-7.0898,-7.0898,-7.0898,-7.0898,-7.0898,-7.0898,-7.0898,-7.0898,-7.0898,-7.0898,-7.0898,-7.0898,-7.0898,-7.0898,-7.0898,-7.0898,-7.0898,-7.086,-7.0821,-7.0667,-7.0629,-7.0667,-7.0591,-7.0437,-7.0552,-7.0744,-7.0475,-7.0667,-7.0744,-6.9821,-6.9167,-6.8321,-6.7321,-6.6628,-6.6013,-6.5897,-6.5897,-6.5897,-6.5897,-6.5897,-6.5897,-6.5897,-6.5897,-6.5897,-6.5897,-6.5897,-6.5897,-6.5897,-6.5897,-6.5897,-6.5897,-6.5897,-6.5897,-6.5897,-6.5897,-6.5897,-6.5897,-6.5897,-6.5897,-6.5897,-6.5897,-6.5859,-6.5859,-6.5436,-6.4859,-6.4628,-6.4243,-6.3743,-6.332,-6.3589,-6.3243,-6.2935,-6.2474,-6.2012,-6.1512,-6.1281,-6.0935,-6.0973,-6.1243,-6.1127,-6.1166,-6.0896,-6.0781,-6.0742,-6.0319,-6.0396,-6.0165,-6.0319,-6.0323,-6.0411,-6.0462,-6.05,-6.0222,-5.9802,-5.9713,-5.9676,-5.9689,-5.9674,-5.9057,-5.8224,-5.7765,-5.7285,-5.598,-5.4965,-5.4954,-5.4617,-5.3619,-5.3277,-5.3665,-5.3628,-5.3555,-5.3408,-7.0898,-7.0898,-7.0898,-7.0898,-7.0898,-7.0898,-7.0898,-7.0898,-7.0898,-7.0898,-7.0898,-7.0898,-7.0898,-7.0898,-7.0898,-7.0898,-7.0898,-7.0898,-7.0898,-7.0898,-7.0898,-7.0898,-7.0898,-7.0821,-7.0667,-7.0321,-7.0206,-6.9783,-6.9321,-6.9744,-6.9436,-6.9206,-6.9167,-6.8398,-6.759,-6.6898,-6.6282,-6.6051,-6.5897,-6.5897,-6.5897,-6.5897,-6.5897,-6.5897,-6.5897,-6.5897,-6.5897,-6.5897,-6.5897,-6.5897,-6.5897,-6.5897,-6.5897,-6.5897,-6.5897,-6.5897,-6.5897,-6.5897,-6.5897,-6.5897,-6.5897,-6.5897,-6.5897,-6.5897,-6.5897,-6.5897,-6.5782,-6.5513,-6.5359,-6.4974,-6.5013,-6.4859,-6.482,-6.4243,-6.3743,-6.3281,-6.282,-6.2281,-6.205,-6.1897,-6.205,-6.2281,-6.1973,-6.1678,-6.1293,-6.0935,-6.0858,-6.0781,-6.0781,-6.0781,-6.0781,-6.0781,-6.0781,-6.0781,-6.0781,-6.0781,-6.0781,-6.0781,-6.0781,-6.0622,-6.0391,-6.0108,-5.9307,-5.8883,-5.8455,-5.7565,-5.6892,-5.6509,-5.5751,-5.4564,-5.4323,-5.4546,-5.4326,-5.3959,-5.3702,-7.0898,-7.0898,-7.0898,-7.0898,-7.0898,-7.0898,-7.0898,-7.0898,-7.0898,-7.0898,-7.0898,-7.0898,-7.0898,-7.0898,-7.0898,-7.0898,-7.0898,-7.0898,-7.0898,-7.0898,-7.0898,-7.0898,-7.0898,-7.086,-7.0667,-7.0129,-7.0014,-6.9783,-6.9513,-6.9206,-6.9244,-6.9052,-6.8475,-6.7936,-6.7167,-6.632,-6.5897,-6.5897,-6.5897,-6.5897,-6.5897,-6.5897,-6.5897,-6.5897,-6.5897,-6.5897,-6.5897,-6.5897,-6.5897,-6.5897,-6.5897,-6.5897,-6.5897,-6.5897,-6.5897,-6.5897,-6.5897,-6.5897,-6.5897,-6.5897,-6.5897,-6.5897,-6.5897,-6.5897,-6.5897,-6.5897,-6.582,-6.582,-6.582,-6.5897,-6.5897,-6.5667,-6.5513,-6.4974,-6.4436,-6.4012,-6.3666,-6.3205,-6.3089,-6.2974,-6.3051,-6.2935,-6.2781,-6.2358,-6.1704,-6.1243,-6.0858,-6.0819,-6.0781,-6.0781,-6.0781,-6.0781,-6.0781,-6.0781,-6.0781,-6.0781,-6.0781,-6.0781,-6.0781,-6.0781,-6.061,-6.0365,-6.0146,-5.9657,-5.9257,-5.9067,-5.8507,-5.7772,-5.6607,-5.5373,-5.5296,-5.528,-5.4913,-5.4509,-5.4106,-7.0898,-7.0898,-7.0898,-7.0898,-7.0898,-7.0898,-7.0898,-7.0898,-7.0898,-7.0898,-7.0898,-7.0898,-7.0898,-7.0898,-7.0898,-7.0898,-7.0898,-7.0898,-7.0898,-7.0898,-7.0898,-7.0898,-7.0898,-7.086,-7.0744,-7.086,-7.0552,-7.036,-7.036,-6.9975,-6.9821,-6.936,-6.8629,-6.7898,-6.709,-6.632,-6.5936,-6.5897,-6.5897,-6.5897,-6.5897,-6.5897,-6.5897,-6.5897,-6.5897,-6.5897,-6.5897,-6.5897,-6.5897,-6.5897,-6.5897,-6.5897,-6.5897,-6.5897,-6.5897,-6.5897,-6.5897,-6.5897,-6.5897,-6.5897,-6.5897,-6.5897,-6.5897,-6.5897,-6.5897,-6.5897,-6.5897,-6.5897,-6.5897,-6.5897,-6.5897,-6.5859,-6.5782,-6.559,-6.5051,-6.4782,-6.4436,-6.4282,-6.4166,-6.4128,-6.3705,-6.3358,-6.332,-6.3051,-6.2243,-6.1627,-6.105,-6.0896,-6.1089,-6.105,-6.1127,-6.1012,-6.1012,-6.0781,-6.0781,-6.0781,-6.0781,-6.0781,-6.0781,-6.0781,-6.0781,-6.0647,-6.0443,-6.0189,-6.0003,-5.9754,-5.9305,-5.8786,-5.7697,-5.6675,-5.6071,-5.5853,-5.5464,-5.517,-5.4876,-7.0898,-7.0898,-7.0898,-7.0898,-7.0898,-7.0898,-7.0898,-7.0898,-7.0898,-7.0898,-7.0898,-7.0898,-7.0898,-7.0898,-7.0898,-7.0898,-7.0898,-7.0898,-7.0898,-7.0898,-7.0898,-7.0898,-7.0898,-7.086,-7.0667,-7.0244,-7.009,-6.9898,-6.9129,-6.959,-6.9321,-6.8731,-6.8667,-6.7628,-6.6628,-6.5974,-6.5897,-6.5897,-6.5897,-6.5897,-6.5897,-6.5897,-6.5897,-6.5897,-6.5897,-6.5897,-6.5897,-6.5897,-6.5897,-6.5897,-6.5897,-6.5897,-6.5897,-6.5897,-6.5897,-6.5897,-6.5897,-6.5897,-6.5897,-6.5897,-6.5897,-6.5897,-6.5897,-6.5897,-6.5897,-6.5897,-6.5897,-6.5897,-6.5897,-6.5897,-6.5897,-6.5897,-6.5859,-6.5859,-6.5551,-6.5551,-6.5359,-6.532,-6.5243,-6.5282,-6.5051,-6.4512,-6.4282,-6.4012,-6.3281,-6.3012,-6.2589,-6.2281,-6.2397,-6.1935,-6.1793,-6.1512,-6.1358,-6.0973,-6.0819,-6.1204,-6.1127,-6.1012,-6.0896,-6.0781,-6.0781,-6.0781,-6.0734,-6.0495,-6.047,-6.0418,-5.997,-5.945,-5.8891,-5.8141,-5.7318,-5.6669,-5.6345,-5.6124,-5.5941,-7.0898,-7.0898,-7.0898,-7.0898,-7.0898,-7.0898,-7.0898,-7.0898,-7.0898,-7.0898,-7.0898,-7.0898,-7.0898,-7.0898,-7.0898,-7.0898,-7.0898,-7.0898,-7.0898,-7.0898,-7.0898,-7.0898,-7.0898,-7.086,-7.0706,-7.0167,-7.0052,-6.986,-6.9629,-6.936,-6.9244,-6.909,-6.8821,-6.8205,-6.7205,-6.6667,-6.6167,-6.6051,-6.5897,-6.5897,-6.5897,-6.5897,-6.5897,-6.5897,-6.5897,-6.5897,-6.5897,-6.5897,-6.5897,-6.5897,-6.5897,-6.5897,-6.5897,-6.5897,-6.5897,-6.5897,-6.5897,-6.5897,-6.5897,-6.5897,-6.5897,-6.5897,-6.5897,-6.5897,-6.5897,-6.5897,-6.5897,-6.5897,-6.5897,-6.5897,-6.5897,-6.5897,-6.5897,-6.5897,-6.5859,-6.5859,-6.582,-6.5743,-6.5705,-6.582,-6.582,-6.5397,-6.5128,-6.4859,-6.4397,-6.432,-6.4205,-6.3897,-6.3512,-6.2974,-6.2524,-6.232,-6.2166,-6.1973,-6.1897,-6.1973,-6.1781,-6.132,-6.1243,-6.1204,-6.0781,-6.0781,-6.0781,-6.0819,-6.0734,-6.0673,-6.0508,-6.007,-5.9324,-5.8763,-5.8159,-5.7656,-5.7271,-5.6932,-5.6638,-7.0898,-7.0898,-7.0898,-7.0898,-7.0898,-7.0898,-7.0898,-7.0898,-7.0898,-7.0898,-7.0898,-7.0898,-7.0898,-7.0898,-7.0898,-7.0898,-7.0898,-7.0898,-7.0898,-7.0898,-7.0898,-7.0898,-7.0898,-7.0898,-7.0783,-7.0821,-7.0744,-7.0552,-7.0744,-7.0475,-7.0129,-6.986,-6.9706,-6.9052,-6.8321,-6.7705,-6.6974,-6.6436,-6.6167,-6.609,-6.5974,-6.5897,-6.5897,-6.5897,-6.5897,-6.5897,-6.5897,-6.5897,-6.5897,-6.5897,-6.5897,-6.5897,-6.5897,-6.5897,-6.5897,-6.5897,-6.5897,-6.5897,-6.5897,-6.5897,-6.5897,-6.5897,-6.5897,-6.5897,-6.5897,-6.5897,-6.5897,-6.5897,-6.5897,-6.5897,-6.5897,-6.5897,-6.5897,-6.5897,-6.5897,-6.5897,-6.5897,-6.5859,-6.5859,-6.5897,-6.5897,-6.5705,-6.5667,-6.5436,-6.5128,-6.5205,-6.5013,-6.4743,-6.432,-6.3743,-6.3358,-6.3281,-6.3166,-6.3128,-6.3012,-6.2781,-6.2551,-6.2127,-6.2089,-6.1973,-6.1435,-6.1166,-6.1473,-6.155,-6.1089,-6.0861,-6.0673,-6.0241,-5.9576,-5.9084,-5.8611,-5.8164,-5.7647,-5.7299,-5.7005,-7.0898,-7.0898,-7.0898,-7.0898,-7.0898,-7.0898,-7.0898,-7.0898,-7.0898,-7.0898,-7.0898,-7.0898,-7.0898,-7.0898,-7.0898,-7.0898,-7.0898,-7.0898,-7.0898,-7.0898,-7.0898,-7.0898,-7.0898,-7.0898,-7.0898,-7.0898,-7.0898,-7.0898,-7.086,-7.0898,-7.086,-7.0591,-7.0437,-6.9975,-6.9475,-6.9052,-6.8013,-6.7128,-6.6821,-6.6397,-6.6051,-6.5936,-6.5897,-6.5897,-6.5897,-6.5897,-6.5897,-6.5897,-6.5897,-6.5897,-6.5897,-6.5897,-6.5897,-6.5897,-6.5897,-6.5897,-6.5897,-6.5897,-6.5897,-6.5897,-6.5897,-6.5897,-6.5897,-6.5897,-6.5897,-6.5897,-6.5897,-6.5897,-6.5897,-6.5897,-6.5897,-6.5897,-6.5897,-6.5897,-6.5897,-6.5897,-6.5897,-6.5897,-6.5897,-6.5897,-6.5897,-6.5897,-6.5897,-6.582,-6.5551,-6.5782,-6.5743,-6.5436,-6.5128,-6.4551,-6.4243,-6.4205,-6.4012,-6.3897,-6.3538,-6.3269,-6.3154,-6.2974,-6.2935,-6.2858,-6.2551,-6.2397,-6.2512,-6.2358,-6.1935,-6.1358,-6.0846,-6.0373,-6.001,-5.9375,-5.8913,-5.8482,-5.8046,-5.7684,-5.7483,-7.0898,-7.0898,-7.0898,-7.0898,-7.0898,-7.0898,-7.0898,-7.0898,-7.0898,-7.0898,-7.0898,-7.0898,-7.0898,-7.0898,-7.0898,-7.0898,-7.0898,-7.0898,-7.0898,-7.0898,-7.0898,-7.0898,-7.0898,-7.0898,-7.0898,-7.0898,-7.0898,-7.0898,-7.0898,-7.0898,-7.086,-7.086,-7.0898,-7.0629,-7.0283,-7.0014,-6.9436,-6.8359,-6.7513,-6.6898,-6.6513,-6.609,-6.5936,-6.5936,-6.5936,-6.5897,-6.5897,-6.5897,-6.5897,-6.5897,-6.5897,-6.5897,-6.5897,-6.5897,-6.5897,-6.5897,-6.5897,-6.5897,-6.5897,-6.5897,-6.5897,-6.5897,-6.5897,-6.5897,-6.5897,-6.5897,-6.5897,-6.5897,-6.5897,-6.5897,-6.5897,-6.5897,-6.5897,-6.5897,-6.5897,-6.5897,-6.5897,-6.5897,-6.5897,-6.5897,-6.5897,-6.5897,-6.5897,-6.5897,-6.5897,-6.5897,-6.5897,-6.5782,-6.559,-6.5359,-6.5128,-6.5089,-6.4859,-6.4628,-6.4282,-6.4051,-6.4051,-6.3974,-6.382,-6.3705,-6.3538,-6.3281,-6.3089,-6.2974,-6.2858,-6.2204,-6.155,-6.1004,-6.054,-5.9975,-5.9364,-5.875,-5.8385,-5.8031,-5.7904,-7.0821,-7.0898,-7.0898,-7.0898,-7.0898,-7.0898,-7.0898,-7.0898,-7.0898,-7.0898,-7.0898,-7.0898,-7.0898,-7.0898,-7.0898,-7.0898,-7.0898,-7.0898,-7.0898,-7.0898,-7.0898,-7.0898,-7.0898,-7.0898,-7.0898,-7.0898,-7.0898,-7.0898,-7.0898,-7.0898,-7.0898,-7.0898,-7.0898,-7.0783,-7.0706,-7.0706,-7.0206,-6.9552,-6.8398,-6.7552,-6.709,-6.6551,-6.5974,-6.6051,-6.5974,-6.5897,-6.5897,-6.5897,-6.5897,-6.5897,-6.5897,-6.5897,-6.5897,-6.5897,-6.5897,-6.5897,-6.5897,-6.5897,-6.5897,-6.5897,-6.5897,-6.5897,-6.5897,-6.5897,-6.5897,-6.5897,-6.5897,-6.5897,-6.5897,-6.5897,-6.5897,-6.5897,-6.5897,-6.5897,-6.5897,-6.5897,-6.5897,-6.5897,-6.5897,-6.5897,-6.5897,-6.5897,-6.5897,-6.5897,-6.5897,-6.5897,-6.5897,-6.5897,-6.5859,-6.5782,-6.5743,-6.5705,-6.5474,-6.5243,-6.532,-6.5128,-6.5089,-6.5013,-6.4743,-6.4589,-6.4397,-6.4012,-6.3551,-6.3551,-6.3551,-6.3012,-6.2386,-6.1912,-6.1425,-6.0776,-6.01,-5.9213,-5.8719,-5.8415,-5.8074,-7.036,-7.0898,-7.0898,-7.0898,-7.0898,-7.0898,-7.0898,-7.0898,-7.0898,-7.0898,-7.0898,-7.0898,-7.0898,-7.0898,-7.0898,-7.0898,-7.0898,-7.0898,-7.0898,-7.0898,-7.0898,-7.0898,-7.0898,-7.0898,-7.0898,-7.0898,-7.0898,-7.0898,-7.0898,-7.0898,-7.0898,-7.0898,-7.0898,-7.0898,-7.0898,-7.0898,-7.0667,-7.036,-6.959,-6.8629,-6.8129,-6.7398,-6.6821,-6.659,-6.6397,-6.5974,-6.5936,-6.5897,-6.5897,-6.5897,-6.5897,-6.5897,-6.5897,-6.5897,-6.5897,-6.5897,-6.5897,-6.5897,-6.5897,-6.5897,-6.5897,-6.5897,-6.5897,-6.5897,-6.5897,-6.5897,-6.5897,-6.5897,-6.5897,-6.5897,-6.5897,-6.5897,-6.5897,-6.5897,-6.5897,-6.5897,-6.5897,-6.5897,-6.5897,-6.5897,-6.5897,-6.5897,-6.5897,-6.5897,-6.5897,-6.5897,-6.5897,-6.5897,-6.5897,-6.5859,-6.582,-6.582,-6.582,-6.5743,-6.5897,-6.5859,-6.5628,-6.559,-6.5397,-6.5282,-6.5166,-6.4936,-6.4589,-6.4397,-6.4205,-6.3743,-6.3397,-6.3052,-6.2489,-6.1755,-6.1023,-6.0207,-5.9353,-5.8958,-5.8393,-7.0475,-7.0898,-7.0898,-7.0898,-7.0898,-7.0898,-7.0898,-7.0898,-7.0898,-7.0898,-7.0898,-7.0898,-7.0898,-7.0898,-7.0898,-7.0898,-7.0898,-7.0898,-7.0898,-7.0898,-7.0898,-7.0898,-7.0898,-7.0898,-7.0898,-7.0898,-7.0898,-7.0898,-7.0898,-7.0898,-7.0898,-7.0898,-7.0898,-7.0898,-7.0898,-7.0898,-7.0898,-7.086,-7.036,-6.9937,-6.9244,-6.8436,-6.7475,-6.709,-6.6705,-6.6282,-6.5936,-6.5897,-6.5897,-6.5897,-6.5897,-6.5897,-6.5897,-6.5897,-6.5897,-6.5897,-6.5897,-6.5897,-6.5897,-6.5897,-6.5897,-6.5897,-6.5897,-6.5897,-6.5897,-6.5897,-6.5897,-6.5897,-6.5897,-6.5897,-6.5897,-6.5897,-6.5897,-6.5897,-6.5897,-6.5897,-6.5897,-6.5897,-6.5897,-6.5897,-6.5897,-6.5897,-6.5897,-6.5897,-6.5897,-6.5897,-6.5897,-6.5897,-6.5897,-6.5897,-6.5897,-6.5897,-6.5897,-6.5897,-6.5897,-6.5897,-6.582,-6.5859,-6.5897,-6.5743,-6.5551,-6.5705,-6.5667,-6.5243,-6.4936,-6.4705,-6.432,-6.3974,-6.3449,-6.2745,-6.201,-6.1313,-6.0454,-5.9615,-5.9124,-7.0783,-7.0898,-7.0898,-7.0898,-7.0898,-7.0898,-7.0898,-7.0898,-7.0898,-7.0898,-7.0898,-7.0898,-7.0898,-7.0898,-7.0898,-7.0898,-7.0898,-7.0898,-7.0898,-7.0898,-7.0898,-7.0898,-7.0898,-7.0898,-7.0898,-7.0898,-7.0898,-7.0898,-7.0898,-7.0898,-7.0898,-7.0898,-7.0898,-7.0898,-7.0898,-7.0898,-7.0898,-7.0898,-7.0744,-7.0821,-7.0206,-6.9436,-6.8436,-6.7705,-6.7167,-6.6744,-6.6244,-6.5936,-6.5936,-6.5897,-6.5897,-6.5897,-6.5897,-6.5897,-6.5897,-6.5897,-6.5897,-6.5897,-6.5897,-6.5897,-6.5897,-6.5897,-6.5897,-6.5897,-6.5897,-6.5897,-6.5897,-6.5897,-6.5897,-6.5897,-6.5897,-6.5897,-6.5897,-6.5897,-6.5897,-6.5897,-6.5897,-6.5897,-6.5897,-6.5897,-6.5897,-6.5897,-6.5897,-6.5897,-6.5897,-6.5897,-6.5897,-6.5897,-6.5897,-6.5897,-6.5897,-6.5897,-6.5897,-6.5897,-6.5897,-6.5897,-6.5897,-6.5897,-6.5897,-6.5897,-6.5897,-6.5897,-6.5897,-6.5859,-6.5551,-6.5282,-6.5128,-6.482,-6.4257,-6.3732,-6.3064,-6.233,-6.1541,-6.0743,-6.0002,-7.0321,-7.0898,-7.0898,-7.0898,-7.0898,-7.0898,-7.0898,-7.0898,-7.0898,-7.0898,-7.0898,-7.0898,-7.0898,-7.0898,-7.0898,-7.0898,-7.0898,-7.0898,-7.0898,-7.0898,-7.0898,-7.0898,-7.0898,-7.0898,-7.0898,-7.0898,-7.0898,-7.0898,-7.0898,-7.0898,-7.0898,-7.0898,-7.0898,-7.0898,-7.0898,-7.0898,-7.0898,-7.0898,-7.0898,-7.0898,-7.0667,-7.0052,-6.959,-6.8744,-6.7821,-6.7282,-6.6744,-6.6205,-6.5974,-6.5897,-6.5897,-6.5897,-6.5897,-6.5897,-6.5897,-6.5897,-6.5897,-6.5897,-6.5897,-6.5897,-6.5897,-6.5897,-6.5897,-6.5897,-6.5897,-6.5897,-6.5897,-6.5897,-6.5897,-6.5897,-6.5897,-6.5897,-6.5897,-6.5897,-6.5897,-6.5897,-6.5897,-6.5897,-6.5897,-6.5897,-6.5897,-6.5897,-6.5897,-6.5897,-6.5897,-6.5897,-6.5897,-6.5897,-6.5897,-6.5897,-6.5897,-6.5897,-6.5897,-6.5897,-6.5897,-6.5897,-6.5897,-6.5897,-6.5897,-6.5897,-6.5897,-6.5897,-6.5897,-6.5897,-6.5897,-6.5705,-6.5551,-6.5359,-6.5359,-6.4885,-6.4116,-6.3388,-6.2551,-6.1806,-6.1002]},{"header":{"parameterUnit":"m.s-1","parameterCategory":1,"la1":31.0,"la2":29.5877,"lo1":-88.7671,"lo2":-86.6584,"dy":0.0162,"dx":0.0185,"nx":115,"ny":88,"refTime":"2026-03-15T12:00:00:Z","depth":0,"parameterNumber":3,"parameterNumberName":"V-component_of_WINDS"},"data":[0.0,0.0,0.0,0.0,0.0,0.0,0.0,0.0,0.0,0.0,0.0,0.0,0.0,0.0,0.0,0.0,0.0,0.0,0.0,0.0,0.0,0.0,0.0,0.0,0.0,0.0,0.0,0.0,0.0,0.0,0.0,0.0,0.0,0.0,0.0,0.0,0.0,0.0,0.0,0.0,0.0,0.0,0.0,0.0,0.0,0.0,0.0,0.0,0.0,0.0,0.0,0.0,0.0,0.0,0.0,0.0,0.0,0.0,0.0,0.0,0.0,0.0,0.0,0.0,0.0,0.0,0.0,0.0,0.0,0.0,0.0,0.0,0.0,0.0,0.0,0.0,0.0,0.0,0.0,0.0,0.0,0.0,0.0,0.0,0.0,0.0,0.0,0.0,0.0,0.0,0.0,0.0,0.0,0.0,0.0,0.0,0.0,0.0,0.0,0.0,0.0,0.0,0.0,0.0,0.0,0.0,0.0,0.0,0.0,0.0,0.0,0.0,0.0,0.0,0.0,0.0,0.0,0.0,0.0,0.0,0.0,0.0,0.0,0.0,0.0,0.0,0.0,0.0,0.0,0.0,0.0,0.0,0.0,0.0,0.0,0.0,0.0,0.0,0.0,0.0,0.0,0.0,0.0,0.0,0.0,0.0,0.0,0.0,0.0,0.0,0.0,0.0,0.0,0.0,0.0,0.0,0.0,0.0,0.0,0.0,0.0,0.0,0.0,0.0,0.0,0.0,0.0,0.0,0.0,0.0,0.0,0.0,0.0,0.0,0.0,0.0,0.0,0.0,0.0,0.0,0.0,0.0,0.0,0.0,0.0,0.0,0.0,0.0,0.0,0.0,0.0,0.0,0.0,0.0,0.0,0.0,0.0,0.0,0.0,0.0,0.0,0.0,0.0,0.0,0.0,0.0,0.0,0.0,0.0,0.0,0.0,0.0,0.0,0.0,0.0,0.0,0.0,0.0,0.0,0.0,0.0,0.0,0.0,0.0,0.0,0.0,0.0,0.0,0.0,0.0,0.0,0.0,0.0,0.0,0.0,0.0,0.0,0.0,0.0,0.0,0.0,0.0,0.0,0.0,0.0,0.0,0.0,0.0,0.0,0.0,0.0,0.0,0.0,0.0,0.0,0.0,0.0,0.0,0.0,0.0,0.0,0.0,0.0,0.0,0.0,0.0,0.0,0.0,0.0,0.0,0.0,0.0,0.0,0.0,0.0,0.0,0.0,0.0,0.0,0.0,0.0,0.0,0.0,0.0,0.0,0.0,0.0,0.0,0.0,0.0,0.0,0.0,0.0,0.0,0.0,0.0,0.0,0.0,0.0,0.0,0.0,0.0,0.0,0.0,0.0,0.0,0.0,0.0,0.0,0.0,0.0,0.0,0.0,0.0,0.0,0.0,0.0,0.0,0.0,0.0,0.0,0.0,0.0,0.0,0.0,0.0,0.0,0.0,0.0,0.0,0.0,0.0,0.0,0.0,0.0,0.0,0.0,0.0,0.0,0.0,0.0,0.0,0.0,0.0,0.0,0.0,0.0,0.0,0.0,0.0,0.0,0.0,0.0,0.0,0.0,0.0,0.0,0.0,0.0,0.0,0.0,0.0,0.0,0.0,0.0,0.0,0.0,0.0,0.0,0.0,0.0,0.0,0.0,0.0,0.0,0.0,0.0,0.0,0.0,0.0,0.0,0.0,0.0,0.0,0.0,0.0,0.0,0.0,0.0,0.0,0.0,0.0,0.0,0.0,0.0,0.0,0.0,0.0,0.0,0.0,0.0,0.0,0.0,0.0,0.0,0.0,0.0,0.0,0.0,0.0,0.0,0.0,0.0,0.0,0.0,0.0,0.0,0.0,0.0,0.0,0.0,0.0,0.0,0.0,0.0,0.0,0.0,0.0,0.0,0.0,0.0,0.0,0.0,0.0,0.0,0.0,0.0,0.0,0.0,0.0,0.0,0.0,0.0,0.0,0.0,0.0,0.0,0.0,0.0,0.0,0.0,0.0,0.0,0.0,0.0,0.0,0.0,0.0,0.0,0.0,0.0,0.0,0.0,0.0,0.0,0.0,0.0,0.0,0.0,0.0,0.0,0.0,0.0,0.0,0.0,0.0,0.0,0.0,0.0,0.0,0.0,0.0,0.0,0.0,0.0,0.0,0.0,0.0,0.0,0.0,0.0,0.0,0.0,0.0,0.0,0.0,0.0,0.0,0.0,0.0,0.0,0.0,0.0,0.0,0.0,0.0,0.0,0.0,0.0,0.0,0.0,0.0,0.0,0.0,0.0,0.0,0.0,0.0,0.0,0.0,0.0,0.0,0.0,0.0,0.0,0.0,0.0,0.0,0.0,0.0,0.0,0.0,0.0,0.0,0.0,0.0,0.0,0.0,0.0,0.0,0.0,0.0,0.0,0.0,0.0,0.0,0.0,0.0,0.0,0.0,0.0,0.0,0.0,0.0,0.0,0.0,0.0,0.0,0.0,0.0,0.0,0.0,0.0,0.0,0.0,0.0,0.0,0.0,0.0,0.0,0.0,0.0,0.0,0.0,0.0,0.0,0.0,0.0,0.0,0.0,0.0,0.0,0.0,0.0,0.0,0.0,0.0,0.0,0.0,0.0,0.0,0.0,0.0,0.0,0.0,0.0,0.0,0.0,0.0,0.0,0.0,0.0,0.0,0.0,0.0,0.0,0.0,0.0,0.0,0.0,0.0,0.0,0.0,0.0,0.0,0.0,0.0,0.0,0.0,0.0,0.0,0.0,0.0,0.0,0.0,0.0,0.0,0.0,0.0,0.0,0.0,0.0,0.0,0.0,0.0,0.0,0.0,0.0,0.0,0.0,0.0,0.0,0.0,0.0,0.0,0.0,0.0,0.0,0.0,0.0,0.0,0.0,0.0,0.0,0.0,0.0,0.0,0.0,0.0,0.0,0.0,0.0,0.0,0.0,0.0,0.0,0.0,0.0,0.0,0.0,0.0,0.0,0.0,0.0,0.0,0.0,0.0,0.0,0.0,0.0,0.0,0.0,0.0,0.0,0.0,0.0,0.0,0.0,0.0,0.0,0.0,0.0,0.0,0.0,0.0,0.0,0.0,0.0,0.0,0.0,0.0,0.0,0.0,0.0,0.0,0.0,0.0,0.0,0.0,0.0,0.0,0.0,0.0,0.0,0.0,0.0,0.0,0.0,0.0,0.0,0.0,0.0,0.0,0.0,0.0,0.0,0.0,0.0,0.0,0.0,0.0,0.0,0.0,0.0,0.0,0.0,0.0,0.0,0.0,0.0,0.0,0.0,0.0,0.0,0.0,0.0,0.0,0.0,0.0,0.0,0.0,0.0,0.0,0.0,0.0,0.0,0.0,0.0,0.0,0.0,0.0,0.0,0.0,0.0,0.0,0.0,0.0,0.0,0.0,0.0,0.0,0.0,0.0,0.0,0.0,0.0,0.0,0.0,0.0,0.0,0.0,0.0,0.0,0.0,0.0,0.0,0.0,0.0,0.0,0.0,0.0,0.0,0.0,0.0,0.0,0.0,0.0,0.0,0.0,0.0,0.0,0.0,0.0,0.0,0.0,0.0,0.0,0.0,0.0,0.0,0.0,0.0,0.0,0.0,0.0,0.0,0.0,0.0,0.0,0.0,0.0,0.0,0.0,0.0,0.0,0.0,0.0,0.0,0.0,0.0,0.0,0.0,0.0,0.0,0.0,0.0,0.0,0.0,0.0,0.0,0.0,0.0,0.0,0.0,0.0,0.0,0.0,0.0,0.0,0.0,0.0,0.0,0.0,0.0,0.0,0.0,0.0,0.0,0.0,0.0,0.0,0.0,0.0,0.0,0.0,0.0,0.0,0.0,0.0,0.0,0.0,0.0,0.0,0.0,0.0,0.0,0.0,0.0,0.0,0.0,0.0,0.0,0.0,0.0,0.0,0.0,0.0,0.0,0.0,0.0,0.0,0.0,0.0,0.0,0.0,0.0,0.0,0.0,0.0,0.0,0.0,0.0,0.0,0.0,0.0,0.0,0.0,0.0,0.0,0.0,0.0,0.0,0.0,0.0,0.0,0.0,0.0,0.0,0.0,0.0,0.0,0.0,0.0,0.0,0.0,0.0,0.0,0.0,0.0,0.0,0.0,0.0,0.0,0.0,0.0,0.0,0.0,0.0,0.0,0.0,0.0,0.0,0.0,0.0,0.0,0.0,0.0,0.0,0.0,0.0,0.0,0.0,0.0,0.0,0.0,0.0,0.0,0.0,0.0,0.0,0.0,0.0,0.0,0.0,0.0,0.0,0.0,0.0,0.0,0.0,0.0,0.0,0.0,0.0,0.0,0.0,0.0,0.0,0.0,0.0,0.0,0.0,0.0,0.0,0.0,0.0,0.0,0.0,0.0,0.0,0.0,0.0,0.0,0.0,0.0,0.0,0.0,0.0,0.0,0.0,0.0,0.0,0.0,0.0,0.0,0.0,0.0,0.0,0.0,0.0,0.0,0.0,0.0,0.0,0.0,0.0,0.0,0.0,0.0,0.0,0.0,0.0,0.0,0.0,0.0,0.0,0.0,0.0,0.0,0.0,0.0,0.0,0.0,0.0,0.0,0.0,0.0,0.0,0.0,0.0,0.0,0.0,0.0,0.0,0.0,0.0,0.0,0.0,0.0,0.0,0.0,0.0,0.0,0.0,0.0,0.0,0.0,0.0,0.0,0.0,0.0,0.0,0.0,0.0,0.0,0.0,0.0,0.0,0.0,0.0,0.0,0.0,0.0,0.0,0.0,0.0,0.0,0.0,0.0,0.0,0.0,0.0,0.0,0.0,0.0,0.0,0.0,0.0,0.0,0.0,0.0,0.0,0.0,0.0,0.0,0.0,0.0,0.0,0.0,0.0,0.0,0.0,0.0,0.0,0.0,0.0,0.0,0.0,0.0,0.0,0.0,0.0,0.0,0.0,0.0,0.0,0.0,0.0,0.0,0.0,0.0,0.0,0.0,0.0,0.0,0.0,0.0,0.0,0.0,0.0,0.0,0.0,0.0,0.0,0.0,0.0,0.0,0.0,0.0,0.0,0.0,0.0,0.0,0.0,0.0,0.0,0.0,0.0,0.0,0.0,0.0,0.0,0.0,0.0,0.0,0.0,0.0,0.0,0.0,0.0,0.0,0.0,0.0,0.0,0.0,0.0,0.0,0.0,0.0,0.0,0.0,0.0,0.0,0.0,0.0,0.0,0.0,0.0,0.0,0.0,0.0,0.0,0.0,0.0,0.0,0.0,0.0,0.0,0.0,0.0,0.0,0.0,0.0,0.0,0.0,0.0,0.0,0.0,0.0,0.0,0.0,0.0,0.0,0.0,0.0,0.0,0.0,0.0,0.0,0.0,0.0,0.0,0.0,0.0,0.0,0.0,0.0,0.0,0.0,0.0,0.0,0.0,0.0,0.0,0.0,0.0,0.0,0.0,0.0,0.0,0.0,0.0,0.0,0.0,0.0,0.0,0.0,0.0,0.0,0.0,0.0,0.0,0.0,0.0,0.0,0.0,0.0,0.0,0.0,0.0,0.0,0.0,0.0,0.0,0.0,0.0,0.0,0.0,0.0,0.0,0.0,0.0,0.0,0.0,0.0,0.0,0.0,0.0,0.0,0.0,0.0,0.0,0.0,0.0,0.0,0.0,0.0,0.0,0.0,0.0,0.0,0.0,0.0,0.0,0.0,0.0,0.0,0.0,0.0,0.0,0.0,0.0,0.0,0.0,0.0,0.0,0.0,0.0,0.0,0.0,0.0,0.0,0.0,0.0,0.0,0.0,0.0,0.0,0.0,0.0,0.0,0.0,0.0,0.0,0.0,0.0,0.0,0.0,0.0,0.0,0.0,0.0,0.0,0.0,0.0,0.0,0.0,0.0,0.0,0.0,0.0,0.0,0.0,0.0,0.0,0.0,0.0,0.0,0.0,0.0,0.0,0.0,0.0,0.0,0.0,0.0,0.0,0.0,0.0,0.0,0.0,0.0,0.0,0.0,0.0,0.0,0.0,0.0,0.0,0.0,0.0,0.0,0.0,0.0,0.0,0.0,0.0,0.0,0.0,0.0,0.0,0.0,0.0,0.0,0.0,0.0,0.0,0.0,0.0,0.0,0.0,0.0,0.0,0.0,0.0,0.0,0.0,0.0,0.0,0.0,0.0,0.0,0.0,0.0,0.0,0.0,0.0,0.0,0.0,0.0,0.0,0.0,0.0,0.0,0.0,0.0,0.0,0.0,0.0,0.0,0.0,0.0,0.0,0.0,0.0,0.0,0.0,0.0,0.0,0.0,0.0,0.0,0.0,0.0,0.0,0.0,0.0,0.0,0.0,0.0,0.0,0.0,0.0,0.0,0.0,0.0,0.0,0.0,0.0,0.0,0.0,0.0,0.0,0.0,0.0,0.0,0.0,0.0,0.0,0.0,0.0,0.0,0.0,0.0,0.0,0.0,0.0,0.0,0.0,0.0,0.0,0.0,0.0,0.0,0.0,0.0,0.0,0.0,0.0,0.0,0.0,0.0,0.0,0.0,0.0,0.0,0.0,0.0,0.0,0.0,0.0,0.0,0.0,0.0,0.0,0.0,0.0,0.0,0.0,0.0,0.0,0.0,0.0,0.0,0.0,0.0,0.0,0.0,0.0,0.0,0.0,0.0,0.0,0.0,0.0,0.0,0.0,0.0,0.0,0.0,0.0,0.0,0.0,0.0,0.0,0.0,0.0,0.0,0.0,0.0,0.0,0.0,0.0,0.0,0.0,0.0,0.0,0.0,0.0,0.0,0.0,0.0,0.0,0.0,0.0,0.0,0.1332,0.0,0.0797,0.0285,0.0,0.0,0.0,0.0,0.0,0.0,0.0,0.0,0.0,0.0,0.0,0.0,0.0,0.0,0.0,0.0,0.0,0.0,0.0,0.0,0.0,0.0,0.0,0.0,0.0,0.0,0.0,0.0,0.0,0.0,0.0,0.0,0.0,0.0,0.0,0.0,0.0,0.0,0.0,0.0,0.0,0.0,0.0,0.0,0.0,0.0,0.0,0.0,0.0,0.0,0.0,0.0,0.0,0.0,0.0,0.0,0.0,0.0,0.0,0.0,0.0,0.0,0.0,0.0,0.0,0.0,0.0,0.0,0.0,0.0,0.0,0.0,0.0,0.0,0.0,0.0,0.0,0.0,0.0,0.0,0.0,0.0,0.0,0.0,0.0,0.0,0.0,0.0,0.0,0.0,0.0,0.0,0.0,0.0,0.0,0.0,0.0,0.0,0.0,0.0,0.0,0.0,0.0,0.0,0.0,0.0,0.0,0.0,0.0,0.0,0.0,0.4535,0.4624,0.2715,0.1,0.0,0.0,0.0,0.0,0.0,0.0,0.0,0.0,0.0,0.0,0.0,0.0,0.0,0.0,0.0,0.0,0.0,0.0,0.0,0.0,0.0,0.0,0.0,0.0,0.0,0.0,0.0,0.0,0.0,0.0,0.0,0.0,0.0,0.0,0.0,0.0,0.0,0.0,0.0,0.0,0.0,0.0,0.0,0.0,0.0,0.0,0.0,0.0,0.0,0.0,0.0,0.0,0.0,0.0,0.0,0.0,0.0,0.0,0.0,0.0,0.0,0.0,0.0,0.0,0.0,0.0,0.0,0.0,0.0,0.0,0.0,0.0,0.0,0.0,0.0,0.0,0.0,0.0,0.0,0.0,0.0,0.0,0.0,0.0,0.0,0.0,0.0,0.0,0.0,0.0,0.0,0.0,0.0,0.0,0.0,0.0,0.0,0.0,0.0,0.0,0.0,0.0,0.0,0.0,0.0,0.0,0.0,0.0,0.0,0.0,0.2786,0.3483,0.3481,0.271,0.0976,0.0,0.0,0.0,0.0,0.0,0.0,0.0,0.0,0.0,0.0,0.0,0.0,0.0,0.0,0.0,0.0,0.0,0.0,0.0,0.0,0.0,0.0,0.0,0.0,0.0,0.0,0.0,0.0,0.0,0.0,0.0,0.0,0.0,0.0,0.0,0.0,0.0,0.0,0.0,0.0,0.0,0.0,0.0,0.0,0.0,0.0,0.0,0.0,0.0,0.0,0.0,0.0,0.0,0.0,0.0,0.0,0.0,0.0,0.0,0.0,0.0,0.0,0.0,0.0,0.0,0.0,0.0,0.0,0.0,0.0,0.0,0.0,0.0,0.0,0.0,0.0,0.0,0.0,0.0,0.0,0.0,0.0,0.0,0.0,0.0,0.0,0.0,0.0,0.0,0.0,0.0,0.0,0.0,0.0,0.0,0.0,0.0,0.0,0.0,0.0,0.0,0.0,0.0,0.0,0.0,0.0,0.0,0.0,0.0,0.0,0.5411,0.0,0.4369,0.0,0.1927,0.0673,0.0,0.0,0.0,0.0,0.0,0.0,0.0,0.0,0.0,0.0,0.0,0.0,0.0,0.0,0.0,0.0,0.0,0.0,0.0,0.0,0.0,0.0,0.0,0.0,0.0,0.0,0.0,0.0,0.0,0.0,0.0,0.0,0.0,0.0,0.0,0.0,0.0,0.0,0.0,0.0,0.0,0.0,0.0,0.0,0.0,0.0,0.0,0.0,0.0,0.0,0.0,0.0,0.0,0.0,0.0,0.0,0.0,0.0,0.0,0.0,0.0,0.0,0.0,0.0,0.0,0.0,0.0,0.0,0.0,0.0,0.0,0.0,0.0,0.0,0.0,0.0,0.0,0.0,0.0,0.0,0.0,0.0,0.0,0.0,0.0,0.0,0.0,0.0,0.0,0.0,0.0,0.0,0.0,0.0,0.0,0.0,0.0,0.0,0.0,0.0,0.0,0.0,0.0,0.0,0.0,0.0,0.0,0.0,0.7436,1.101,0.9448,0.7551,0.5796,0.379,0.1951,0.0,0.0,0.0,0.0,0.0,0.0,0.0,0.0,0.0,0.0,0.0,0.0,0.0,0.0,0.0,0.0,0.0,0.0,0.0,0.0,0.0,0.0,0.0,0.0,0.0,0.0,0.0,0.0,0.0,0.0,0.0,0.0,0.0,0.0,0.0,0.0,0.0,0.0,0.0,0.0,0.0,0.0,0.0,0.0,0.0,0.0,0.0,0.0,0.0,0.0,0.0,0.0,0.0,0.0,0.0,0.0,0.0,0.0,0.0,0.0,0.0,0.0,0.0,0.0,0.0,0.0,0.0,0.0,0.0,0.0,0.0,0.0,0.0,0.0,0.0,0.0,0.0,0.0,0.0,0.0,0.0,0.0,0.0,0.0,0.0,0.0,0.0,0.0,0.0,0.0,0.0,0.0,0.0,0.0,0.0,0.0,0.0,0.0,0.0,0.0,0.0,0.0,0.0,0.0,0.0,0.0,0.0,0.0,0.0,1.0792,0.9297,0.753,0.5578,0.3743,0.1872,0.0,0.0,0.0,0.0,0.0,0.0,0.0,0.0,0.0,0.0,0.0,0.0,0.0,0.0,0.0,0.0,0.0,0.0,0.0,0.0,0.0,0.0,0.0,0.0,0.0,0.0,0.0,0.0,0.0,0.0,0.0,0.0,0.0,0.0,0.0,0.0,0.0,0.0,0.0,0.0,0.0,0.0,0.0,0.0,0.0,0.0,0.0,0.0,0.0,0.0,0.0,0.0,0.0,0.0,0.0,0.0,0.0,0.0,0.0,0.0,0.0,0.0,0.0,0.0,0.0,0.0,0.0,0.0,0.0,0.0,0.0,0.0,0.0,0.0,0.0,0.0,0.0,0.0,0.0,0.0,0.0,0.0,0.0,0.0,0.0,0.0,0.0,0.0,0.0,0.0,0.0,0.0,0.0,0.0,0.0,0.0,0.0,0.0,0.0,0.0,0.0,0.0,0.0,0.0,0.0,0.0,0.0,0.0,0.0,1.0914,1.0003,0.8599,0.6733,0.4881,0.303,0.1081,0.0,0.0,0.0,0.0,0.0,0.0,0.0,0.0,0.0,0.0,0.0,0.0,0.0,0.0,0.0,0.0,0.0,0.0,0.0,0.0,0.0,0.0,0.0,0.0,0.0,0.0,0.0,0.0,0.0,0.0,0.0,0.0,0.0,0.0,0.0,0.0,0.0,0.0,0.0,0.0,0.0,0.0,0.0,0.0,0.0,0.0,0.0,0.0,0.0,0.0,0.0,0.0,0.0,0.0,0.0,0.0,0.0,0.0,0.0,0.0,0.0,0.0,0.0,0.0,0.0,0.0,0.0,0.0,0.0,0.0,0.0,0.0,0.0,0.0,0.0,0.0,0.0,0.0,0.0,0.0,0.0,0.0,0.0,0.0,0.0,0.0,0.0,0.0,0.0,0.0,0.0,0.0,0.0,0.0,0.0,0.0,0.0,0.0,0.0,0.0,0.0,0.0,0.0,0.0,0.0,0.0,0.0,0.0,1.1443,1.1592,1.0715,0.8951,0.6948,0.4944,0.0,0.0,0.0,0.0,0.0,0.0,0.0,0.0,0.0,0.0,0.0,0.0,0.0,0.0,0.0,0.0,0.0,0.0,0.0,0.0,0.0,0.0,0.0,0.0,0.0,0.0,0.0,0.0,0.0,0.0,0.0,0.0,0.0,0.0,0.0,0.0,0.0,0.0,0.0,0.0,0.0,0.0,0.0,0.0,0.0,0.0,0.0,0.0,0.0,0.0,0.0,0.0,0.0,0.0,0.0,0.0,0.0,0.0,0.0,0.0,0.0,0.0,0.0,0.0,0.0,0.0,0.0,0.0,0.0,0.0,0.0,0.0,0.0,0.0,0.0,0.0,0.0,0.0,0.0,0.0,0.0,0.0,0.0,0.0,0.0,0.0,0.0,0.0,0.0,0.0,0.0,0.0,0.0,0.0,0.0,0.0,0.0,0.0,0.0,0.0,0.0,0.0,0.0,0.0,0.0,0.0,0.0,0.0,0.0,1.204,1.2196,1.1296,0.9146,0.7106,0.5078,0.0,0.0,0.0,0.0,0.0,0.0,0.0,0.0,0.0,0.0,0.0,0.0,0.0,0.0,0.0,0.0,0.0,0.0,0.0,0.0,0.0,0.0,0.0,0.0,0.0,0.0,0.0,0.0,0.0,0.0,0.0,0.0,0.0,0.0,0.0,0.0,0.0,0.0,0.0,0.0,0.0,0.0,0.0,0.0,0.0,0.0,0.0,0.0,0.0,0.0,0.0,0.0,0.0,0.0,0.0,0.0,0.0,0.0,0.0,0.0,0.0,0.0,0.0,0.0,0.0,0.0,0.0,0.0,0.0,0.0,0.0,0.0,0.0,0.0,0.0,0.0,0.0,0.0,0.0,0.0,0.0,0.0,0.0,0.0,0.0,0.0,0.0,0.0,0.0,0.0,0.0,0.0,0.0,0.0,0.0,0.0,0.0,0.0,0.0,0.0,0.0,0.0,0.0,0.0,0.0,0.0,0.0,0.0,1.1843,1.2189,1.2583,1.2154,1.0837,0.7827,0.5591,0.0,0.0,0.0,0.0,0.0,0.0,0.0,0.0,0.0,0.0,0.0,0.0,0.0,0.0,0.0,0.0,0.0,0.0,0.0,0.0,0.0,0.0,0.0,0.0,0.0,0.0,0.0,0.0,0.0,0.0,0.0,0.0,0.0,0.0,0.0,0.0,0.0,0.0,0.0,0.0,0.0,0.0,0.0,0.0,0.0,0.0,0.0,0.0,0.0,0.0,0.0,0.0,0.0,0.0,0.0,0.0,0.0,0.0,0.0,0.0,0.0,0.0,0.0,0.0,0.0,0.0,0.0,0.0,0.0,0.0,0.0,0.0,0.0,0.0,0.0,0.0,0.0,0.0,0.0,0.0,0.0,0.0,0.0,0.0,0.0,0.0,0.0,0.0,0.0,0.0,0.0,0.0,0.0,0.0,0.0,0.0,0.0,0.0,0.0,0.0,0.0,0.0,0.0,0.0,0.0,0.0,0.0,0.0,1.206,1.2115,1.2793,1.3085,1.2849,0.8736,0.6336,0.0,0.0,0.0,0.0,0.0,0.0,0.0,0.0,0.0,0.0,0.0,0.0,0.0,0.0,0.0,0.0,0.0,0.0,0.0,0.0,0.0,0.0,0.0,0.0,0.0,0.0,0.0,0.0,0.0,0.0,0.0,0.0,0.0,0.0,0.0,0.0,0.0,0.0,0.0,0.0,0.0,0.0,0.0,0.0,0.0,0.0,0.0,0.0,0.0,0.0,0.0,0.0,0.0,0.0,0.0,0.0,0.0,0.0,0.0,0.0,0.0,0.0,0.0,0.0,0.0,0.0,0.0,0.0,0.0,0.0,0.0,0.0,0.0,0.0,0.0,0.0,0.0,0.0,0.0,0.0,0.0,0.0,0.0,0.0,0.0,0.0,0.0,0.0,0.0,0.0,0.0,0.0,0.0,0.0,0.0,0.0,0.0,0.0,0.0,0.0,0.0,0.0,0.0,0.0,0.0,0.0,0.0,0.0,1.2047,1.2406,1.28,1.2935,1.2779,0.8707,0.6448,0.0,0.0,0.0,0.0,0.0,0.0,0.0,0.0,0.0,0.0,0.0,0.0,0.0,0.0,0.0,0.0,0.0,0.0,0.0,0.0,0.0,0.0,0.0,0.0,0.0,0.0,0.0,0.0,0.0,0.0,0.0,0.0,0.0,0.0,0.0,0.0,0.0,0.0,0.0,0.0,0.0,0.0,0.0,0.0,0.0,0.0,0.0,0.0,0.7206,0.0,0.0,0.0,0.0,0.0,0.0,0.0,0.0,0.0,0.0,0.0,0.0,0.0,0.0,0.0,0.0,0.0,0.0,0.0,0.0,0.0,0.0,0.0,0.0,0.0,0.0,0.0,0.0,0.0,0.0,0.0,0.0,0.0,0.0,0.0,0.0,0.0,0.0,0.0,0.0,0.0,0.0,0.0,0.0,0.0,0.0,0.0,0.0,0.0,0.0,0.0,0.0,0.0,0.0,0.0,0.0,0.0,0.0,0.0,1.2088,1.24,1.2698,1.2813,1.2554,0.8621,0.6382,0.0,0.0,0.0,0.0,0.0,0.0,0.0,0.0,0.0,0.0,0.0,0.0,0.0,0.0,0.0,0.0,0.0,0.0,0.0,0.0,0.0,0.0,0.0,0.0,0.0,0.0,0.0,0.0,0.0,0.0,0.0,0.0,0.0,0.0,0.0,0.0,0.0,0.0,0.0,0.0,0.0,0.0,0.0,0.0,0.0,0.0,0.0,0.0,0.0,0.0,0.0,0.0,0.0,0.0,0.0,0.0,0.0,0.0,0.0,0.0,0.0,0.0,0.0,0.0,0.0,0.0,0.0,0.0,0.0,0.0,0.0,0.0,0.0,0.0,0.0,0.0,0.0,0.0,0.0,0.0,0.0,0.0,0.0,0.0,0.0,0.0,0.0,0.0,0.0,0.0,0.0,0.0,0.0,0.0,0.0,0.0,0.0,0.0,0.0,0.0,0.0,0.0,0.0,0.0,0.0,0.0,0.0,1.1072,1.2101,1.2318,1.2569,1.2691,1.2613,0.8836,0.6567,0.6246,0.0,0.0,0.0,0.0,0.0,0.0,0.0,0.0,0.0,0.0,0.0,0.0,0.0,0.0,0.0,0.0,0.0,0.0,0.0,0.0,0.0,0.0,0.0,0.0,0.0,0.0,0.0,0.0,0.0,0.0,0.0,0.0,0.0,0.0,0.0,0.0,0.0,0.0,1.8427,1.868,0.0,0.0,0.0,0.0,0.0,0.0,0.0,0.0,0.9933,0.0,0.0,0.0,0.0,0.0,0.0,0.0,0.0,0.0,0.0,0.0,0.0,0.0,0.0,0.0,0.0,0.0,0.0,0.0,0.0,0.0,0.0,0.0,0.0,0.0,0.0,0.0,0.0,0.0,0.0,0.0,0.0,0.0,0.0,0.0,0.0,0.0,0.0,0.0,0.0,0.0,0.0,0.0,0.0,0.0,0.0,0.0,0.0,0.0,0.0,0.0,0.0,0.0,0.0,0.0,0.0,1.1233,1.1569,1.1938,1.2454,1.2515,1.2535,1.2458,1.0026,0.7972,0.625,0.0,0.0,0.0,0.0,0.0,0.0,0.0,0.0,0.0,0.0,0.0,0.0,0.0,0.0,0.0,0.0,0.0,0.0,0.0,0.0,0.0,0.0,0.0,0.0,0.0,0.0,0.0,0.0,0.0,0.0,0.0,0.0,0.0,0.0,0.0,0.0,0.0,0.0,0.0,2.0125,1.9115,0.0,0.0,0.0,0.0,0.0,0.0,0.0,0.0,0.9764,0.0,0.0,0.0,0.0,0.0,0.0,0.0,0.0,0.0,0.0,0.0,0.0,0.0,0.0,0.0,0.0,0.0,0.0,0.0,0.0,0.0,0.0,0.0,0.0,0.0,0.0,0.0,0.0,0.0,0.0,0.0,0.0,0.0,0.0,0.0,0.0,0.0,0.0,0.0,0.0,0.0,0.0,0.0,0.0,0.0,0.0,0.0,0.0,0.0,0.0,0.0,0.0,0.0,0.0,0.0,1.1484,1.1877,1.2142,1.2488,1.2501,1.2501,1.2494,1.0218,0.8109,0.0,0.0,0.0,0.0,0.0,0.0,0.0,0.0,0.0,0.0,0.0,0.0,0.0,0.0,0.0,0.0,0.0,0.0,0.0,0.0,0.0,0.0,0.0,0.0,0.0,0.0,0.0,0.0,0.0,0.0,0.0,0.0,0.0,0.0,0.0,0.0,0.0,0.0,0.0,0.0,2.1304,2.0481,1.9721,0.0,0.0,0.0,0.0,0.0,0.0,1.4614,1.3667,0.0,0.0,0.0,0.0,0.0,0.0,0.0,0.0,0.0,0.0,0.0,0.0,0.0,0.0,0.0,0.0,0.0,0.0,0.0,0.0,0.0,0.0,0.0,0.0,0.0,0.0,0.0,0.0,0.0,0.0,0.0,0.0,0.0,0.0,0.0,0.0,0.0,0.0,0.0,0.0,0.0,0.0,0.0,0.0,0.0,0.0,0.0,0.0,0.0,0.0,0.0,0.0,0.0,0.0,0.0,1.1435,1.2013,1.2325,1.2494,1.2501,1.2501,1.2494,1.0479,0.8367,0.0,0.0,0.0,0.0,0.0,0.0,0.0,0.0,0.0,0.0,0.0,0.0,0.0,0.0,0.0,0.0,0.0,0.0,0.0,0.0,0.0,0.0,0.0,0.0,0.0,0.0,0.0,0.0,0.0,0.0,0.0,0.0,0.0,0.0,0.0,0.0,0.0,0.0,0.0,0.0,0.0,2.1725,2.0447,2.0342,0.0,0.0,0.0,0.0,1.7981,1.8518,0.0,0.0,0.0,0.0,0.0,0.0,0.0,0.0,0.0,0.0,0.0,0.0,0.0,0.0,0.0,0.0,0.0,0.0,0.0,0.0,0.0,0.0,0.0,0.0,0.0,0.0,0.0,0.0,0.0,0.0,0.0,0.0,0.0,0.0,0.0,0.0,0.0,0.0,0.0,0.0,0.0,0.0,0.0,0.0,0.0,0.0,0.0,0.0,0.0,0.0,0.0,0.0,0.0,0.0,0.0,0.0,1.1281,1.1864,1.2223,1.2488,1.2501,1.2501,1.2494,1.1836,0.9864,0.0,0.0,0.0,0.0,0.0,0.0,0.0,0.0,0.0,0.0,0.0,0.0,0.0,0.0,0.0,0.0,0.0,0.0,0.0,0.0,0.0,0.0,0.0,0.0,0.0,0.0,0.0,0.0,0.0,0.0,0.0,0.0,0.0,0.0,0.0,0.0,0.0,0.0,0.0,0.0,0.0,2.2579,2.1833,2.2948,2.3536,0.0,0.0,2.5172,2.3228,2.2632,0.0,0.0,0.0,0.0,0.0,0.0,0.0,0.0,0.0,0.0,0.0,0.0,0.0,0.0,0.0,0.0,0.0,0.0,0.0,0.0,0.0,0.0,0.0,0.0,0.0,0.0,0.0,0.0,0.0,0.0,0.0,0.0,0.0,0.0,0.0,0.0,0.0,0.0,0.0,0.0,0.0,0.0,0.0,0.0,0.0,0.0,0.0,0.0,0.0,0.0,0.0,0.0,0.0,0.0,0.0,0.7851,1.1268,1.1999,1.2372,1.2494,1.2501,1.2501,1.2501,1.1904,1.0364,0.0,0.0,0.0,0.0,0.0,0.0,0.0,0.0,0.0,0.0,0.0,0.0,0.0,0.0,0.0,0.0,0.0,0.0,0.0,0.0,0.0,0.0,0.0,0.0,0.0,0.0,0.0,0.0,0.0,0.0,0.0,0.0,0.0,0.0,0.0,0.0,0.0,0.0,0.0,0.0,0.0,0.0,2.4864,2.5823,0.0,0.0,0.0,2.6865,2.5595,0.0,0.0,0.0,0.0,0.0,0.0,0.0,0.0,0.0,0.0,0.0,0.0,0.0,0.0,0.0,0.0,0.0,0.0,0.0,0.0,0.0,0.0,0.0,0.0,0.0,0.0,0.0,0.0,0.0,0.0,0.0,0.0,0.0,0.0,0.0,0.0,0.0,0.0,0.0,0.0,0.0,0.0,0.0,0.0,0.0,0.0,0.0,0.0,0.0,0.0,0.0,0.0,0.0,0.0,0.0,0.0,0.0,1.1278,1.2101,1.2501,1.2501,1.2501,1.2488,1.244,1.1796,0.0,0.0,0.0,0.0,0.0,0.0,0.0,0.0,0.0,0.0,0.0,0.0,0.0,0.0,0.0,0.0,0.0,0.0,0.0,0.0,0.0,0.0,0.0,0.0,0.0,0.0,0.0,0.6055,0.0,0.0,0.0,0.0,0.0,0.0,0.0,0.0,0.0,0.0,0.0,0.0,0.0,0.0,2.5662,2.6996,2.8089,2.8618,0.0,0.0,2.8778,2.8224,2.8289,2.7203,0.0,0.0,0.0,0.0,0.0,0.0,0.0,0.0,0.0,0.0,0.0,0.0,0.0,0.0,0.0,0.0,0.0,0.0,0.0,0.0,0.0,0.0,0.0,0.0,0.0,0.0,0.0,0.0,0.0,0.0,0.0,0.0,0.0,0.0,0.0,0.0,0.0,0.0,0.0,0.0,0.0,0.0,0.0,0.0,0.0,0.0,0.0,0.0,0.0,0.0,0.0,0.0,0.0,0.0,0.0,1.1136,1.2054,1.2501,1.2501,1.2501,1.244,1.2305,1.185,1.0556,0.0,0.0,0.0,0.0,0.0,0.0,0.0,0.0,0.0,0.0,0.0,0.0,0.0,0.0,0.0,0.0,0.0,0.0,0.0,0.0,0.0,0.0,0.0,0.0,0.0,0.0,0.0,0.0,0.0,0.0,0.0,0.0,0.0,0.0,0.0,0.0,0.0,0.0,0.0,0.0,0.0,2.5448,2.7027,2.9119,3.0495,0.0,0.0,3.2444,3.2386,3.1921,3.0781,2.8431,0.0,0.0,0.0,0.0,0.0,0.0,0.0,0.0,0.0,0.0,0.0,0.0,0.0,0.0,0.0,0.0,0.0,0.0,0.0,0.0,0.0,0.0,0.0,0.0,0.0,0.0,0.0,0.0,0.0,0.0,0.0,0.0,0.0,0.0,0.0,0.0,0.0,0.0,0.0,0.0,0.0,0.0,0.0,0.0,0.0,0.0,0.0,0.0,0.0,0.0,0.0,0.0,0.0,0.782,1.1165,1.1959,1.2413,1.2494,1.2501,1.2433,1.2291,1.1857,1.1054,0.0,0.0,0.0,0.0,0.0,0.0,0.0,0.0,0.0,0.0,0.0,0.0,0.0,0.0,0.0,0.0,0.0,0.0,0.0,0.0,0.0,0.0,0.0,0.0,0.0,0.0,0.0,0.0,0.8159,0.9042,0.9198,0.0,0.0,0.0,0.0,0.0,0.0,0.0,0.0,0.0,0.0,2.76,3.0336,3.1896,0.0,0.0,3.2647,3.2988,3.248,3.2234,3.1183,2.8633,2.6778,0.0,0.0,0.0,0.0,0.0,0.0,0.0,0.0,0.0,0.0,0.0,0.0,0.0,0.0,0.0,0.0,0.0,0.0,0.0,0.0,0.0,0.0,0.0,0.0,0.0,0.0,0.0,0.0,0.0,0.0,0.0,0.0,0.0,0.0,0.0,0.0,0.0,0.0,0.0,0.0,0.0,0.0,0.0,0.0,0.0,0.0,0.0,0.0,0.0,0.0,0.0,0.0,0.821,1.1165,1.1904,1.2359,1.2501,1.2461,1.2372,1.2216,1.183,1.1314,0.0,0.0,0.0,0.0,0.0,0.0,0.0,0.0,0.0,0.0,0.0,0.0,0.0,0.0,0.0,0.0,0.0,0.0,0.0,0.0,0.0,0.0,0.0,0.0,0.0,0.0,0.0,0.0,0.8546,0.913,0.9239,0.0,0.0,0.0,0.0,0.0,0.0,0.0,0.0,0.0,0.0,2.8789,3.2262,3.3301,3.3476,3.2891,3.2832,3.2695,3.2246,3.2229,3.1519,2.9584,0.0,0.0,0.0,0.0,0.0,0.0,0.0,0.0,0.0,0.0,0.0,0.0,0.0,0.0,0.0,0.0,0.0,0.0,0.0,0.0,0.0,0.0,0.0,0.0,0.0,0.0,0.0,0.0,0.0,0.0,0.0,0.0,0.0,0.0,0.0,0.0,0.0,0.0,0.0,0.0,0.0,0.0,0.0,0.0,0.0,0.0,0.0,0.0,0.0,0.0,0.0,0.0,0.0,0.9361,1.1165,1.1904,1.2352,1.2488,1.2366,1.2223,1.2067,1.1775,1.1267,1.0514,0.0,0.0,0.0,0.0,0.0,0.0,0.0,0.0,0.0,0.0,0.0,0.0,0.0,0.0,0.0,0.0,0.0,0.0,0.0,0.0,0.0,0.0,0.0,0.0,0.0,0.0,0.9134,0.8972,0.8898,0.0,0.0,0.0,0.0,0.0,0.0,0.0,0.0,0.0,0.0,2.6275,2.8447,3.2204,3.2812,3.2851,3.2793,3.2109,3.1719,3.217,3.2209,3.2177,0.0,0.0,0.0,0.0,0.0,0.0,0.0,0.0,0.0,0.0,0.0,0.0,0.0,0.0,0.0,0.0,0.0,0.0,0.0,0.0,0.0,0.0,0.0,0.0,0.0,0.0,0.0,0.3834,0.3748,0.0,0.0,0.0,0.0,0.0,0.0,0.0,0.0,0.0,0.0,0.0,1.0254,0.9694,0.0,0.0,0.0,0.0,0.0,0.0,0.0,0.0,0.0,0.0,0.0,0.0,0.9197,1.1096,1.1803,1.221,1.2352,1.2318,1.2169,1.1911,1.1721,1.1172,1.0166,0.0,0.0,0.0,0.0,0.0,0.0,0.0,0.0,0.0,0.0,0.0,0.0,0.0,0.0,0.0,0.0,0.0,0.0,0.0,0.0,0.0,0.0,0.0,0.0,0.0,0.9374,0.0,0.0,0.0,0.0,0.0,0.0,0.0,0.0,0.0,0.0,0.0,2.1234,2.6528,2.703,2.8218,3.1918,3.2617,3.2793,0.0,0.0,0.0,0.0,0.0,0.0,0.0,0.0,0.0,0.0,0.0,0.0,0.0,0.0,3.114,2.9228,2.8305,2.7841,2.76,0.0,0.0,0.0,0.0,0.0,0.0,0.0,0.0,0.0,0.0,0.0,0.0,0.0,0.0,0.5958,0.0,0.4752,0.0,0.0,0.0,0.0,0.0,0.0,0.0,0.0,1.1006,1.1599,1.1545,1.1545,1.1443,0.0,0.9991,0.8655,0.0,0.0,0.0,0.0,0.0,0.0,0.0,0.0,0.9666,1.1165,1.1701,1.206,1.2203,1.2162,1.2033,1.1763,1.1538,1.0968,1.024,0.97,0.8826,0.0,0.0,0.0,0.0,0.0,0.0,0.0,0.0,0.0,0.0,0.0,0.0,0.0,0.0,0.0,0.0,0.0,0.0,0.0,0.0,0.0,0.0,0.0,0.9488,0.0,0.0,0.0,0.0,0.0,0.0,0.0,0.0,0.0,2.141,2.1373,2.3135,2.7728,2.7928,2.8684,3.1532,0.0,0.0,0.0,0.0,0.0,0.0,0.0,3.3163,3.5054,3.4962,3.4826,3.532,3.5934,3.6256,3.5829,0.0,0.0,3.3164,3.2157,3.1757,3.1502,3.1977,3.2338,3.2203,3.2678,3.2904,0.0,0.0,0.0,0.0,0.0,0.0,0.0,0.0,0.6655,0.6658,0.0,0.6501,0.0,0.0,0.0,0.0,0.0,1.0746,0.0,0.0,1.2135,1.2257,1.187,1.1857,1.1777,1.1837,1.1615,1.1386,1.0924,0.7198,0.0,0.0,0.0,0.0,0.0,0.0,1.0867,1.1234,1.1606,1.1904,1.2047,1.1911,1.183,1.1809,1.1267,1.0826,1.0717,1.0148,0.9693,0.9408,0.7844,0.0,0.0,0.0,0.0,0.0,0.0,0.0,0.0,0.0,0.0,0.0,0.0,0.0,0.0,0.0,0.0,0.0,0.0,0.0,0.0,0.941,0.0,0.0,0.0,0.0,0.0,0.0,0.0,0.0,0.0,0.0,2.1658,2.3584,2.6014,2.8377,0.0,0.0,0.0,0.0,3.1367,3.0996,3.0918,3.146,3.2892,3.3077,3.3874,3.6209,0.0,0.0,3.7892,3.8842,3.9167,3.8241,3.8842,3.8816,3.5985,3.4751,3.4275,3.4555,3.41,3.3708,3.4019,3.4325,3.4204,1.1591,0.0,0.0,0.0,0.0,1.0437,1.0544,1.0892,1.0672,1.0601,1.055,0.9143,0.0,0.0,0.0,0.0,0.0,0.0,1.1748,1.1877,1.2094,1.223,1.2305,1.2311,1.2257,1.2155,1.1891,1.1674,1.1399,0.9949,0.9086,0.8815,0.0,0.0,0.0,0.0,1.0867,1.1241,1.1599,1.185,1.1898,1.1857,1.1782,1.1681,1.1307,1.1029,1.082,1.0405,1.0005,0.9707,0.8954,0.0,0.0,0.0,0.0,0.0,0.0,0.0,0.0,0.0,0.0,0.0,0.0,0.0,0.0,0.0,0.0,0.0,0.0,0.0,1.2128,1.2219,1.2432,0.0,0.0,0.0,0.0,0.0,0.0,0.0,0.0,0.0,2.4016,2.4869,2.6658,0.0,0.0,2.9204,3.082,3.1074,3.1133,3.1309,3.1094,0.0,3.3288,3.2937,3.3194,3.5369,3.5854,3.6341,3.744,3.7944,3.838,3.9016,3.9471,3.9413,3.8662,3.7941,3.738,3.711,3.7112,3.7335,3.7455,3.7504,3.7258,1.3051,1.2827,1.2406,1.2372,1.2569,1.24,1.2549,1.2888,1.2589,1.2494,1.2458,1.1244,1.1039,1.1581,1.0376,0.0,0.0,0.0,1.1925,1.2155,1.221,1.2332,1.2494,1.2501,1.2454,1.2366,1.2067,1.1877,1.1789,1.1341,1.0962,1.0695,0.0,0.0,1.026,1.0577,1.0955,1.1253,1.1579,1.1748,1.1748,1.1748,1.1708,1.1619,1.1382,1.1185,1.1036,1.0663,1.0337,1.0093,0.9659,0.8916,0.0,0.0,0.0,0.0,0.0,0.0,0.0,0.0,0.0,0.0,0.0,0.6005,0.0,0.0,0.0,0.0,1.1665,1.2731,1.4286,1.3982,0.0,0.0,0.0,0.0,0.0,0.0,0.0,1.8114,2.2779,2.5806,2.5386,2.6683,2.8527,3.0606,3.002,2.9785,3.0762,0.0,3.0976,3.123,3.1055,3.1482,3.3147,3.2958,3.3189,3.5024,3.5288,3.5472,3.6156,3.6773,3.7412,3.8047,3.8663,3.9019,3.9019,3.8743,3.8542,3.8391,3.8442,3.8517,3.8542,3.8517,3.8341,1.3288,1.3349,1.2793,1.2637,1.2766,1.2766,1.2908,1.3125,1.2847,1.2807,1.2915,1.263,1.2345,1.2067,1.1796,0.0,1.187,1.2026,1.2169,1.2311,1.244,1.2501,1.2501,1.2501,1.2494,1.2481,1.2196,1.2054,1.202,1.1613,1.1328,1.1158,1.0751,1.0602,1.0724,1.0813,1.1097,1.1369,1.1525,1.1606,1.1606,1.1599,1.1592,1.1579,1.1436,1.1287,1.1145,1.0873,1.0649,1.0487,1.0073,0.97,0.9357,0.0,0.0,0.0,0.0,0.0,0.0,0.0,0.0,0.0,0.0,0.0,0.0,0.0,0.0,0.0,1.3167,0.0,1.6142,1.5175,0.0,0.0,0.0,1.6961,1.8473,2.0401,2.1263,2.0183,0.0,0.0,2.5948,2.8741,3.0898,3.0898,3.0898,3.0898,3.0898,3.0898,3.0898,3.0918,3.0898,3.1383,3.255,3.2731,3.3043,3.435,3.4869,3.4592,3.4464,3.5283,3.5991,3.5999,3.6844,3.7717,3.7817,3.7742,3.7991,3.8567,3.8341,3.8015,3.804,3.799,3.7765,1.3471,1.3376,1.3119,1.3037,1.3064,1.3064,1.3044,1.3077,1.2813,1.2752,1.2773,1.2583,1.2406,1.223,1.2162,1.2149,1.2189,1.2332,1.242,1.2454,1.2481,1.2501,1.2501,1.2501,1.2447,1.2332,1.2155,1.1999,1.1877,1.1667,1.143,1.1234,1.1056,1.0907,1.0738,1.0982,1.1145,1.1289,1.1369,1.1443,1.1443,1.1443,1.1389,1.1274,1.1131,1.1036,1.0927,1.0819,1.0649,1.0493,1.0112,0.9863,0.9564,0.8713,0.0,0.0,0.0,0.0,0.0,0.0,0.0,0.0,0.0,0.9085,1.0128,0.0,1.3214,0.0,1.6301,1.7576,1.7922,1.7631,0.0,0.0,1.8368,1.8656,1.9674,2.0087,2.0816,2.218,2.4567,2.6491,2.7575,2.9592,3.0898,3.0898,3.0898,3.0898,3.0898,3.0898,3.0898,3.0898,3.0898,3.0995,3.1343,3.1122,3.1074,3.1337,3.1187,3.1291,3.2317,3.2707,3.3253,3.423,3.4676,3.532,3.629,3.6152,3.6357,3.7318,3.7814,3.799,3.799,3.7663,3.7045,1.3376,1.3288,1.3139,1.3037,1.2983,1.3051,1.3111,1.2949,1.28,1.2732,1.2718,1.2569,1.2461,1.2386,1.2386,1.2386,1.2386,1.2467,1.2501,1.2501,1.2501,1.2501,1.2501,1.244,1.2366,1.2284,1.2067,1.1918,1.183,1.1687,1.1531,1.1369,1.1369,1.1212,1.0934,1.1016,1.1097,1.1234,1.1246,1.1294,1.1294,1.1287,1.1253,1.1165,1.1084,1.0982,1.0786,1.0765,1.0622,1.0405,1.0175,0.9883,0.9707,0.9945,1.0036,0.0,0.0,0.0,0.0,0.0,0.0,0.0,0.0,0.0,0.0,0.0,1.4934,1.6514,1.7994,1.8878,1.8878,1.9105,1.9399,1.972,1.9599,1.976,2.0374,2.0934,2.179,2.3169,2.5386,2.719,2.8271,2.9825,3.0898,3.0898,3.0898,3.0898,3.0898,3.0898,3.0898,3.0898,3.0898,3.0801,3.0625,3.0195,2.9922,2.9902,2.9726,2.9826,3.0431,3.1021,3.1657,3.2267,3.2827,3.3446,3.4162,3.4129,3.422,3.4764,3.5252,3.5643,3.6259,3.5647,3.4716,1.3173,1.3159,1.2996,1.2854,1.2739,1.2854,1.2901,1.2895,1.2759,1.2698,1.2691,1.2562,1.2501,1.2501,1.2501,1.2501,1.2501,1.2501,1.2501,1.2501,1.2501,1.2494,1.2467,1.2352,1.2271,1.2223,1.1959,1.175,1.1796,1.1681,1.1599,1.1565,1.1558,1.1409,1.1111,1.0982,1.1057,1.1475,1.1496,1.1627,1.1812,1.1812,1.179,1.1754,1.1754,1.161,1.1263,1.1249,1.112,1.0919,1.0691,1.0595,1.0451,1.1469,1.1981,0.0,1.3024,0.0,0.0,0.0,0.0,0.0,0.0,0.0,0.0,1.5258,1.6555,1.8101,1.8998,1.9537,1.9537,1.9933,2.0254,2.0281,2.0281,2.0414,2.0743,2.1963,2.3002,2.3484,2.6006,2.773,2.7932,2.9282,3.0179,3.0277,3.0296,3.0432,3.0703,3.0723,3.0762,3.0801,3.0742,3.0488,3.0176,2.9766,2.9492,2.9528,2.943,2.9277,2.8961,2.9836,3.0494,3.0245,3.0991,3.1768,3.1977,3.205,3.2129,3.2476,3.2448,3.2672,3.3744,3.3373,3.228,1.3173,1.3146,1.2881,1.2759,1.2725,1.263,1.2589,1.2589,1.2556,1.2542,1.2542,1.2515,1.2501,1.2501,1.2501,1.2501,1.2501,1.2501,1.2501,1.2501,1.2501,1.244,1.2332,1.2305,1.2162,1.1925,1.1857,1.1769,1.166,1.1633,1.1497,1.1253,1.1246,1.1097,1.0812,0.0,0.0,0.0,1.3194,1.3942,1.5128,1.5186,1.5026,1.4696,1.4687,0.0,1.4203,1.4194,1.4157,1.4135,1.3939,0.0,0.0,0.0,0.0,0.0,0.0,0.0,0.0,0.0,0.0,0.0,1.5599,1.5484,1.5736,1.7491,1.8858,1.9439,1.9826,2.0067,2.0067,2.016,2.0334,2.0561,2.0588,2.0708,2.0989,2.1127,2.167,2.3033,2.3594,2.43,2.5687,2.626,2.6994,2.8001,2.8223,2.8818,2.977,3.0137,3.0312,3.0312,3.0078,2.9805,2.9707,2.9316,2.9043,2.9023,2.873,2.8535,2.8511,2.8579,2.8827,2.8761,2.89,2.9513,3.0463,3.0669,3.0979,3.2079,3.1418,3.106,3.2381,3.2482,3.1977,1.2956,0.0,1.2712,1.2617,0.0,1.2535,1.2501,1.2501,1.2501,1.2501,1.2501,1.2501,1.2501,1.2501,1.2501,1.2501,1.2501,1.2501,1.2501,1.2501,1.2427,1.2359,1.2284,1.2135,1.1979,1.183,1.1762,1.1687,1.1619,1.1619,1.1504,1.128,1.128,1.1124,1.0839,1.1607,1.2452,1.3394,1.3486,1.4352,1.5899,1.602,1.5909,1.5697,1.5577,0.0,0.0,0.0,0.0,0.0,0.0,0.0,0.0,0.0,0.0,1.5528,1.6169,1.6534,1.6534,1.6478,1.6996,1.8033,1.8242,1.8217,1.7938,1.9102,1.9853,2.0,2.0281,2.0454,2.0454,2.0588,2.0722,2.0869,2.0895,2.0909,2.0882,2.0775,2.1279,2.2555,2.2752,2.3284,2.4911,2.5219,2.587,2.7043,2.7456,2.8005,2.9292,2.9746,2.9883,2.9863,2.9512,2.9258,2.9219,2.8887,2.8613,2.8574,2.8437,2.832,2.8301,2.8301,2.8301,2.8301,2.8301,2.8548,2.9112,2.9303,2.9513,3.0068,2.9755,2.9513,3.0203,3.0328,3.0172,1.2732,1.2718,1.2569,1.2501,1.2501,1.2501,1.2501,1.2501,0.0,0.0,0.0,1.2501,1.2501,1.2501,1.2501,1.2501,1.2501,1.2501,1.2488,1.2461,1.2345,1.2264,1.2196,1.1952,1.1743,1.1789,1.1674,1.1619,1.1619,1.1619,1.1525,1.1369,1.1355,1.1199,1.0988,1.216,1.2997,1.3325,1.3905,1.507,1.6754,1.6818,1.6808,1.6765,1.6466,1.6243,1.6132,1.5775,1.5562,1.544,1.5429,1.5429,1.5499,1.6738,1.7443,1.7501,1.8648,1.9386,1.9439,1.9497,1.9586,1.9933,2.0174,2.0214,1.9973,2.0174,2.0334,2.0326,2.0615,2.0748,2.0748,2.0962,2.1109,2.1109,2.1056,2.0922,2.0708,2.0561,2.0936,2.1977,2.2023,2.2585,2.371,2.3949,2.4663,2.5898,2.607,2.7035,2.8557,2.9208,2.9414,2.9297,2.9004,2.8809,2.8769,2.8555,2.8301,2.832,2.8301,2.8301,2.8281,2.8242,2.8184,2.8144,2.8125,2.81,2.8047,2.8114,2.8066,2.8066,2.8125,2.8184,2.8184,2.8242,2.8388,1.2732,1.2718,1.2562,1.2501,1.2501,1.2501,1.2501,1.2501,1.2501,1.2501,1.2501,1.2501,1.2501,1.2501,1.2501,1.2501,1.2501,1.2501,1.2433,1.2318,1.2298,1.2149,1.1898,1.185,1.1769,1.1653,1.1626,1.1619,1.1619,1.1619,1.1477,1.1226,1.1268,1.1043,1.0778,1.0923,1.1828,1.3325,1.6237,1.864,2.0335,2.0386,2.0269,2.0037,1.9704,1.9408,1.9197,1.8867,1.8745,1.8719,1.8706,1.8706,1.8765,1.8894,1.9068,1.9068,1.9301,1.9537,1.972,1.9746,1.9973,2.0494,2.0588,2.0601,2.0561,2.0588,2.0722,2.0949,2.1002,2.1042,2.1056,2.1082,2.1109,2.1082,2.0895,2.0722,2.0655,2.0241,2.0053,2.0269,1.9979,1.9973,2.0466,2.0634,2.1321,2.2257,2.3314,2.3877,2.624,2.7986,2.8719,2.8574,2.8437,2.8379,2.8418,2.8359,2.8301,2.8301,2.8301,2.8281,2.8242,2.7988,2.7812,2.7806,2.75,2.7285,2.7246,2.7187,2.7266,2.7305,2.7539,2.7787,2.7754,2.7988,2.8242,1.2603,1.2596,1.2528,1.2501,1.2501,1.2501,1.2501,1.2501,1.2501,1.2501,1.2501,1.2501,1.2501,1.2501,1.2501,1.2501,1.2501,1.2501,1.2427,1.2291,1.2203,1.2047,1.1837,1.1748,1.1681,1.1619,1.1619,1.1619,1.1619,1.1619,1.1463,1.1172,1.1009,1.0853,1.0797,1.1637,1.2997,1.4688,1.6302,1.7923,1.9674,2.0589,2.1042,2.0909,2.0628,2.0414,2.0281,2.0,1.984,1.984,1.9679,1.9599,1.9599,1.9599,1.9599,1.9599,1.9746,1.996,2.0254,2.0428,2.0628,2.0882,2.0909,2.0909,2.0909,2.0909,2.0962,2.1096,2.1109,2.1109,2.1109,2.1109,2.1109,2.1109,2.0842,2.0615,2.0428,2.008,1.9746,1.9586,1.9511,1.943,1.943,1.9479,2.0089,2.1345,2.2291,2.3497,2.4727,2.6299,2.7611,2.8179,2.8301,2.8301,2.8301,2.8301,2.8301,2.8301,2.8301,2.8203,2.8027,2.7806,2.763,2.7363,2.7129,2.7031,2.6992,2.7012,2.7012,2.7031,2.7148,2.7305,2.7344,2.748,2.7734,1.2501,1.2501,1.2501,1.2501,1.2501,1.2501,1.2501,1.2501,1.2501,1.2501,1.2501,1.2501,1.2501,1.2501,1.2501,1.2501,1.2494,1.2467,1.2372,1.223,1.2081,1.1932,1.1782,1.1667,1.1619,1.1619,1.1619,1.1619,1.1619,1.1619,1.1463,1.1158,1.0867,1.0717,1.0717,1.2025,1.3587,1.5209,1.5719,1.6947,1.9024,2.0462,2.1109,2.1082,2.0828,2.0668,2.0655,2.0388,2.018,2.0167,2.0013,1.9893,1.9893,1.9893,1.9893,1.992,2.0107,2.0361,2.0655,2.0949,2.1109,2.1109,2.1109,2.1109,2.1109,2.1109,2.1109,2.1109,2.1109,2.1109,2.1109,2.1109,2.1109,2.1096,2.0775,2.0494,2.0254,1.992,1.9626,1.9457,1.943,1.943,1.943,1.943,1.9809,2.0931,2.2379,2.3263,2.3487,2.482,2.6554,2.7438,2.8067,2.8301,2.8301,2.8301,2.8301,2.8301,2.8184,2.8008,2.7787,2.7611,2.7266,2.6914,2.6758,2.666,2.6649,2.6699,2.666,2.659,2.6758,2.6894,2.7031,2.707,2.7207,1.2501,1.2501,1.2501,1.2501,1.2501,1.2501,1.2501,1.2501,1.2501,1.2501,1.2501,1.2501,1.2501,1.2501,1.2501,1.2501,1.2494,1.2366,1.223,1.2081,1.1925,1.1775,1.1653,1.1626,1.1619,1.1619,1.1619,1.1619,1.1619,1.1606,1.1457,1.1165,1.0867,1.0717,1.0717,1.0916,1.1828,1.3513,1.5079,1.7538,2.0652,2.0982,2.1109,2.1096,2.0828,2.0668,2.0681,2.0388,2.018,2.018,2.0214,2.0187,2.0187,2.0127,2.014,2.014,2.0227,2.0361,2.0668,2.0949,2.1109,2.1109,2.1109,2.1109,2.1109,2.1109,2.1109,2.1109,2.1109,2.1109,2.1109,2.1109,2.1109,2.1082,2.0628,2.0254,2.0174,1.9746,1.9386,1.943,1.943,1.943,1.943,1.943,1.9475,1.9751,2.0931,2.1813,2.204,2.3989,2.5663,2.6318,2.7276,2.8121,2.8247,2.8301,2.8262,2.8262,2.7969,2.7767,2.7552,2.7043,2.6484,2.6465,2.6191,2.5947,2.5888,2.581,2.5869,2.6025,2.6269,2.6543,2.6875,2.6934,2.7012,1.2501,1.2501,1.2501,1.2501,1.2501,1.2501,1.2501,1.2501,1.2501,1.2501,1.2501,1.2501,1.2501,1.2501,1.2501,1.2501,1.2488,1.2359,1.221,1.2054,1.1904,1.1755,1.1626,1.1619,1.1619,1.1619,1.1619,1.1619,1.1586,1.1443,1.128,1.1214,1.0867,1.0717,1.0717,1.0717,1.1563,1.3259,1.397,1.6043,1.9215,2.0589,2.1109,2.1096,2.0989,2.0935,2.0922,2.0802,2.0748,2.0735,2.0588,2.0494,2.0494,2.0494,2.0494,2.0508,2.0655,2.0802,2.0922,2.1042,2.1109,2.1109,2.1109,2.1109,2.1109,2.1109,2.1109,2.1109,2.1109,2.1109,2.1109,2.1109,2.1109,2.1029,2.0588,2.0227,2.0227,1.972,1.943,1.943,1.943,1.943,1.943,1.943,1.943,1.943,2.004,2.0371,2.0472,2.2153,2.3263,2.3599,2.4654,2.6391,2.7726,2.8301,2.8184,2.7969,2.7793,2.765,2.7024,2.6699,2.6328,2.6055,2.583,2.5693,2.5732,2.5674,2.5693,2.5732,2.5752,2.6074,2.6181,2.622,2.62,1.2501,1.2501,1.2501,1.2501,1.2501,1.2501,1.2501,1.2501,1.2501,1.2501,1.2501,1.2501,1.2501,1.2501,1.2501,1.2501,1.2481,1.2352,1.221,1.2128,1.1904,1.1682,1.1626,1.1619,1.1619,1.1619,1.1619,1.1619,1.1586,1.1307,1.1234,1.1118,1.0867,1.0717,1.0717,1.0717,1.1563,1.3128,1.3325,1.4744,1.7538,1.9024,2.0132,2.0982,2.1109,2.1109,2.1109,2.1109,2.1109,2.1096,2.0909,2.0788,2.0788,2.0802,2.0802,2.0815,2.0989,2.1109,2.1109,2.1109,2.1109,2.1109,2.1109,2.1109,2.1109,2.1109,2.1109,2.1109,2.1109,2.1109,2.1109,2.1109,2.1082,2.0975,2.0521,2.0214,2.0094,1.9653,1.943,1.943,1.943,1.943,1.943,1.943,1.943,1.943,1.943,1.943,1.9591,2.0702,2.1699,2.1684,2.2863,2.4665,2.6945,2.7355,2.7362,2.7598,2.7383,2.7031,2.6465,2.6348,2.6191,2.583,2.5732,2.5674,2.5674,2.5674,2.5625,2.5674,2.5693,2.5713,2.5791,2.5713,2.5713,1.2501,1.2501,1.2501,1.2501,1.2501,1.2501,1.2501,1.2501,1.2501,1.2501,1.2501,1.2501,1.2501,1.2501,1.2501,1.2501,1.2481,1.2352,1.221,1.206,1.1904,1.1755,1.1626,1.1619,1.1619,1.1619,1.1619,1.1619,1.1599,1.1321,1.1234,1.1151,1.088,1.0724,1.0731,1.0724,1.1563,1.2931,1.3128,1.4101,1.5784,1.6108,1.7795,2.0449,2.0969,2.0843,2.0982,2.1032,2.1046,2.1109,2.1019,2.1006,2.1019,2.1006,2.0943,2.1082,2.1096,2.1109,2.1109,2.1109,2.1109,2.1109,2.1109,2.1109,2.1109,2.1109,2.1109,2.1109,2.1109,2.1109,2.1109,2.1109,2.1002,2.0748,2.0428,2.0134,1.9853,1.9586,1.9444,1.943,1.943,1.943,1.943,1.943,1.943,1.943,1.943,1.943,1.9591,2.0644,2.1301,2.1639,2.241,2.3854,2.5148,2.5593,2.6011,2.6097,2.5932,2.6184,2.6239,2.6094,2.5732,2.5499,2.5186,2.5118,2.5528,2.5625,2.5577,2.5577,2.5674,2.5693,2.5674,2.5674,2.5674,1.2501,1.2501,1.2501,1.2501,1.2501,1.2501,1.2501,1.2501,1.2501,1.2501,1.2501,1.2501,1.2501,1.2501,1.2501,1.2501,1.2488,1.2352,1.221,1.2054,1.1904,1.1755,1.1626,1.1619,1.1619,1.1619,1.1619,1.1619,1.1599,1.1409,1.1307,1.126,1.1009,1.0867,1.0853,1.0765,1.1049,1.1571,1.1637,1.2479,1.4036,1.4232,1.5394,1.7602,1.7795,1.8308,1.9419,1.9419,1.9941,2.1046,2.0068,1.9419,1.9419,1.9419,2.0005,2.0919,2.1109,2.1109,2.1109,2.1109,2.1109,2.1109,2.1109,2.1109,2.1109,2.1109,2.1109,2.1109,2.1109,2.1109,2.1109,2.1109,2.1002,2.0708,2.0414,2.0107,1.984,1.9546,1.943,1.943,1.943,1.943,1.943,1.943,1.943,1.943,1.943,1.943,1.9475,1.9924,2.0256,2.0214,2.0387,2.0922,2.203,2.3252,2.3894,2.3809,2.3736,2.3593,2.3568,2.3663,2.3352,2.3502,2.3534,2.3583,2.3732,2.4461,2.4609,2.543,2.5528,2.5674,2.5674,2.5674,2.5674,1.2501,1.2501,1.2501,1.2501,1.2501,1.2501,1.2501,1.2501,1.2501,1.2501,1.2501,1.2501,1.2501,1.2501,1.2501,1.2501,1.2488,1.24,1.225,1.2067,1.1952,1.1803,1.164,1.1619,1.1619,1.1619,1.1619,1.1619,1.1599,1.1463,1.1396,1.1375,1.1097,1.088,1.086,1.0725,1.0717,1.0717,1.0717,1.1306,1.2347,1.2479,1.2997,1.4036,1.4232,1.5329,1.7538,1.818,1.896,1.9941,1.9088,1.85,1.85,1.85,1.9279,2.0856,2.1109,2.1109,2.1109,2.1109,2.1109,2.1109,2.1109,2.1109,2.1109,2.1109,2.1109,2.1109,2.1109,2.1109,2.1109,2.1109,2.0949,2.0588,2.0267,1.9973,1.9693,1.9492,1.9444,1.943,1.943,1.943,1.943,1.943,1.943,1.943,1.943,1.943,1.943,1.943,1.9377,1.9212,1.9058,1.925,1.9765,2.0559,2.2002,2.2157,2.2313,2.1823,2.1536,2.1489,2.1491,2.1592,2.1643,2.1693,2.2097,2.2918,2.385,2.4824,2.5479,2.5674,2.5674,2.5674,2.5674,1.2501,1.2501,1.2501,1.2501,1.2501,1.2501,1.2501,1.2501,1.2501,1.2501,1.2501,1.2501,1.2501,1.2501,1.2501,1.2501,1.2501,1.2488,1.2338,1.2094,1.2128,1.1898,1.1647,1.1626,1.1619,1.1619,1.1619,1.1619,1.1606,1.1484,1.1416,1.1355,1.1118,1.0907,1.0887,1.0812,1.0717,1.0717,1.0717,1.0784,1.0717,1.0916,1.1049,1.1049,1.1108,1.2545,1.5654,1.728,1.818,1.8448,1.8244,1.8384,1.8052,1.818,1.9152,2.0526,2.1032,2.1109,2.1109,2.1109,2.1109,2.1109,2.1109,2.1109,2.1109,2.1109,2.1109,2.1109,2.0906,2.0906,2.0843,2.0613,2.0467,2.0334,2.004,1.9786,1.9492,1.943,1.943,1.943,1.943,1.943,1.943,1.943,1.943,1.943,1.943,1.943,1.943,1.943,1.9239,1.8985,1.8758,1.8712,1.8252,1.8022,1.9501,2.0723,2.0976,2.0928,2.0637,2.0523,2.0436,2.0487,2.0385,2.0471,2.11,2.1912,2.2667,2.3633,2.451,2.5265,2.5265,2.5216,2.5625,1.2501,1.2501,1.2501,1.2501,1.2501,1.2501,1.2501,1.2501,1.2501,1.2501,1.2501,1.2501,1.2501,1.2501,1.2501,1.2501,1.2501,1.2494,1.24,1.223,1.219,1.1959,1.1775,1.1667,1.1619,1.1619,1.1619,1.1619,1.1606,1.1565,1.1545,1.1491,1.1246,1.1104,1.1077,1.0853,1.0717,1.0717,1.0717,1.0717,1.0717,1.0717,1.0717,1.0717,1.0717,1.1306,1.2347,1.397,1.5459,1.6625,1.5589,1.4939,1.5135,1.6043,1.7462,1.9164,2.0462,2.1109,2.1109,2.1109,2.1109,2.1109,2.1109,2.1109,2.1109,2.1109,2.1109,2.0906,2.0068,1.9355,1.9127,1.7955,1.825,1.9963,2.0087,1.9807,1.9524,1.943,1.943,1.943,1.943,1.943,1.943,1.943,1.943,1.943,1.943,1.943,1.943,1.943,1.9252,1.8971,1.8677,1.8357,1.8023,1.7769,1.8464,1.9265,1.9524,1.9782,1.9561,1.9457,1.9369,1.9317,1.9265,1.9472,2.0128,2.0845,2.1608,2.2416,2.3285,2.3899,2.4295,2.4707,2.5118,1.2501,1.2501,1.2501,1.2501,1.2501,1.2501,1.2501,1.2501,1.2501,1.2501,1.2501,1.2501,1.2501,1.2501,1.2501,1.2501,1.2501,1.2501,1.2454,1.2338,1.2149,1.1979,1.1823,1.1687,1.1619,1.1619,1.1619,1.1619,1.1619,1.1619,1.1619,1.1572,1.1369,1.1212,1.122,1.0934,1.0785,1.0731,1.0717,1.0717,1.0717,1.0717,1.0717,1.0717,1.0717,1.0717,1.0784,1.1828,1.3128,1.4428,1.384,1.3325,1.3456,1.5014,1.6689,1.8436,2.0005,2.1109,2.1109,2.1109,2.1109,2.1109,2.1109,2.1109,2.1109,2.1109,2.1109,2.0906,1.961,1.85,1.8285,1.684,1.6951,1.9099,1.9117,1.921,1.9219,1.943,1.943,1.943,1.943,1.943,1.943,1.943,1.943,1.943,1.943,1.943,1.943,1.943,1.9158,1.8918,1.8624,1.829,1.7929,1.7742,1.7609,1.7845,1.8042,1.8251,1.8251,1.8304,1.8251,1.8304,1.8251,1.8356,1.8916,1.9627,2.0385,2.1253,2.2013,2.2918,2.3583,2.4196,2.4707,1.2501,1.2501,1.2501,1.2501,1.2501,1.2501,1.2501,1.2501,1.2501,1.2501,1.2501,1.2501,1.2501,1.2501,1.2501,1.2501,1.2501,1.2501,1.2501,1.2406,1.2203,1.1979,1.1823,1.1687,1.1619,1.1619,1.1619,1.1619,1.1619,1.1619,1.1619,1.1599,1.145,1.1321,1.1185,1.1029,1.0799,1.0772,1.0731,1.0717,1.0717,1.0717,1.0717,1.0717,1.0717,1.0717,1.0784,1.0916,1.1571,1.2931,1.2997,1.2865,1.339,1.4819,1.6366,1.8052,1.9941,2.0779,2.0969,2.1109,2.1109,2.1109,2.0843,2.0982,2.0716,2.0322,2.0132,2.0068,1.8704,1.7859,1.7527,1.6152,1.6103,1.7348,1.7602,1.802,1.9044,1.905,1.87,1.8965,1.9243,1.9301,1.9301,1.943,1.943,1.943,1.943,1.943,1.943,1.9363,1.9078,1.8851,1.8651,1.8424,1.813,1.8023,1.7916,1.7889,1.7809,1.7675,1.7622,1.7595,1.7582,1.7582,1.7635,1.7675,1.7898,1.867,1.9124,1.9576,2.0641,2.2013,2.2717,2.3085,2.3791,1.2501,1.2501,1.2501,1.2501,1.2501,1.2501,1.2501,1.2501,1.2501,1.2501,1.2501,1.2501,1.2501,1.2501,1.2501,1.2501,1.2501,1.2501,1.2501,1.2454,1.2271,1.1986,1.183,1.1687,1.1619,1.1619,1.1619,1.1619,1.1619,1.1619,1.1619,1.1613,1.1477,1.1375,1.1301,1.1084,1.0873,1.0806,1.0772,1.0724,1.0724,1.0724,1.0717,1.0717,1.0717,1.0717,1.0717,1.0717,1.085,1.1306,1.1372,1.1372,1.163,1.3128,1.4874,1.6496,1.8256,1.9801,2.0779,2.1109,2.1109,2.0982,1.9941,1.9215,1.9152,1.7988,1.7398,1.6947,1.5719,1.4809,1.4493,1.3325,1.3101,1.4208,1.6044,1.7367,1.7565,1.6825,1.6339,1.7373,1.7689,1.8227,1.9127,1.943,1.943,1.943,1.943,1.943,1.943,1.9403,1.9185,1.8998,1.8798,1.8611,1.8424,1.8343,1.8277,1.8263,1.8103,1.7822,1.7729,1.7622,1.7595,1.7582,1.7742,1.7836,1.7715,1.8016,1.816,1.8478,1.928,2.0554,2.0896,2.1269,2.2215,1.2501,1.2501,1.2501,1.2501,1.2501,1.2501,1.2501,1.2501,1.2501,1.2501,1.2501,1.2501,1.2501,1.2501,1.2501,1.2501,1.2501,1.2501,1.2501,1.2454,1.2196,1.1952,1.1769,1.1647,1.1619,1.1619,1.1619,1.1619,1.1619,1.1619,1.1619,1.1606,1.1531,1.1457,1.1375,1.124,1.1097,1.1029,1.0894,1.0819,1.0745,1.0751,1.0717,1.0717,1.0717,1.0717,1.0717,1.0717,1.0717,1.0717,1.0717,1.0717,1.085,1.2347,1.3774,1.4884,1.7076,1.9024,1.9877,2.0589,2.0716,2.0068,1.896,1.818,1.7474,1.6366,1.5913,1.5848,1.4297,1.3447,1.3193,1.2347,1.23,1.3246,1.4719,1.5961,1.6331,1.5521,1.5597,1.6555,1.7103,1.763,1.9127,1.9372,1.943,1.943,1.943,1.943,1.943,1.9417,1.9292,1.9078,1.8931,1.8758,1.8597,1.8504,1.8464,1.8464,1.8397,1.8116,1.7943,1.7809,1.7849,1.7889,1.7929,1.7929,1.7889,1.7836,1.7916,1.8275,1.8611,1.9049,1.9635,2.0082,2.0966,1.2501,1.2501,1.2501,1.2501,1.2501,1.2501,1.2501,1.2501,1.2501,1.2501,1.2501,1.2501,1.2501,1.2501,1.2501,1.2501,1.2501,1.2501,1.2461,1.2366,1.2162,1.1918,1.166,1.1633,1.1619,1.1619,1.1619,1.1619,1.1619,1.1619,1.1619,1.1613,1.1606,1.1545,1.145,1.1382,1.1314,1.1185,1.1043,1.088,1.084,1.0759,1.0765,1.0717,1.0717,1.0717,1.0717,1.0717,1.0717,1.0717,1.0717,1.0717,1.0916,1.2281,1.3128,1.3709,1.5913,1.7667,1.8372,1.9419,1.9737,1.8436,1.7988,1.7345,1.5848,1.5135,1.4744,1.4679,1.3905,1.2931,1.2742,1.2808,1.2668,1.2702,1.3037,1.3535,1.4213,1.4446,1.4973,1.6469,1.6567,1.7574,1.8615,1.9314,1.943,1.943,1.943,1.943,1.943,1.9417,1.9323,1.9118,1.8998,1.8905,1.8771,1.8651,1.8624,1.8611,1.8611,1.845,1.8249,1.8169,1.8263,1.829,1.8223,1.825,1.8303,1.8237,1.8075,1.8117,1.8481,1.878,1.9141,1.9401,2.0056,1.2501,1.2501,1.2501,1.2501,1.2501,1.2501,1.2501,1.2501,1.2501,1.2501,1.2501,1.2501,1.2501,1.2501,1.2501,1.2501,1.2501,1.2488,1.2393,1.2155,1.219,1.1891,1.1681,1.1633,1.1626,1.1619,1.1619,1.1619,1.1619,1.1619,1.1619,1.1619,1.1619,1.1606,1.1558,1.145,1.1382,1.1321,1.1192,1.107,1.0921,1.086,1.0779,1.0765,1.0738,1.0731,1.0724,1.0717,1.0717,1.0717,1.0731,1.0751,1.0857,1.1115,1.196,1.3062,1.384,1.5135,1.6237,1.6894,1.6883,1.6496,1.5459,1.4232,1.3905,1.2676,1.2091,1.1828,1.1439,1.1439,1.1505,1.1306,1.1439,1.1505,1.1497,1.1476,1.1577,1.1622,1.2408,1.3572,1.4749,1.5877,1.7446,1.8588,1.8946,1.9269,1.9301,1.9372,1.943,1.943,1.935,1.9172,1.9158,1.9105,1.9065,1.8945,1.8905,1.8865,1.8838,1.8824,1.8677,1.8584,1.8611,1.8557,1.845,1.8531,1.8664,1.8531,1.8397,1.8357,1.8317,1.8578,1.8794,1.896,1.9153,1.2501,1.2501,1.2501,1.2501,1.2501,1.2501,1.2501,1.2501,1.2501,1.2501,1.2501,1.2501,1.2501,1.2501,1.2501,1.2501,1.2501,1.2494,1.2345,1.2142,1.2115,1.2006,1.1796,1.1769,1.1775,1.1653,1.1619,1.1619,1.1619,1.1619,1.1619,1.1619,1.1619,1.1619,1.1619,1.1531,1.1511,1.147,1.1348,1.1226,1.1165,1.1077,1.1029,1.0948,1.0921,1.0907,1.0839,1.09,1.0887,1.086,1.088,1.0853,1.0738,1.0717,1.1247,1.1894,1.2997,1.3578,1.4549,1.5394,1.5654,1.4679,1.3774,1.2931,1.2281,1.1108,1.085,1.0717,1.0784,1.0717,1.0717,1.0717,1.0717,1.0717,1.0717,1.0717,1.0697,1.0588,1.1106,1.2441,1.3474,1.4622,1.5867,1.7171,1.7803,1.7862,1.8018,1.8123,1.9359,1.9417,1.943,1.9377,1.939,1.939,1.9377,1.9336,1.9269,1.9172,1.9145,1.9132,1.9078,1.8998,1.8945,1.8878,1.8824,1.8918,1.8998,1.8838,1.8691,1.8651,1.8611,1.8544,1.8586,1.8862,1.8999,1.2501,1.2501,1.2501,1.2501,1.2501,1.2501,1.2501,1.2501,1.2501,1.2501,1.2501,1.2501,1.2501,1.2501,1.2501,1.2501,1.2501,1.2488,1.2352,1.2162,1.2223,1.2074,1.1904,1.1918,1.1898,1.1674,1.1708,1.1708,1.1674,1.1647,1.1653,1.1626,1.1619,1.1619,1.1619,1.1619,1.1599,1.1572,1.1484,1.1396,1.1348,1.1246,1.1185,1.1124,1.1118,1.1077,1.1016,1.1056,1.109,1.1002,1.1097,1.1016,1.0867,1.0785,1.0765,1.0831,1.2079,1.265,1.3021,1.394,1.422,1.2947,1.2947,1.2262,1.1136,1.0818,1.0751,1.0731,1.0717,1.0717,1.0717,1.0717,1.0717,1.0717,1.0717,1.0717,1.0697,1.0602,1.1258,1.2048,1.2808,1.3761,1.4428,1.5299,1.596,1.6458,1.6626,1.7138,1.8336,1.9068,1.8881,1.9359,1.943,1.943,1.943,1.8519,1.8551,1.9203,1.9203,1.9261,1.9319,1.931,1.9216,1.931,1.931,1.9336,1.9296,1.9162,1.8998,1.8945,1.8905,1.8865,1.8865,1.8865,1.8931,1.2501,1.2501,1.2501,1.2501,1.2501,1.2501,1.2501,1.2501,1.2501,1.2501,1.2501,1.2501,1.2501,1.2501,1.2501,1.2501,1.2501,1.2488,1.2406,1.2257,1.2277,1.2142,1.1938,1.2013,1.1972,1.1884,1.1898,1.1911,1.1823,1.1723,1.1755,1.1653,1.1647,1.1647,1.164,1.1619,1.1633,1.1619,1.1572,1.1511,1.1423,1.1375,1.1307,1.1226,1.1289,1.1179,1.1151,1.1151,1.1151,1.1131,1.122,1.1138,1.1104,1.109,1.1029,1.1002,1.1237,1.1598,1.1651,1.1643,1.1614,1.1273,1.1521,1.1528,1.09,1.0766,1.0846,1.0765,1.0731,1.0717,1.0717,1.0717,1.0717,1.0717,1.0717,1.0717,1.0711,1.0683,1.0788,1.1352,1.2144,1.2739,1.319,1.3735,1.4447,1.493,1.5115,1.5915,1.7089,1.7681,1.7806,1.8519,1.943,1.943,1.943,1.811,1.756,1.8693,1.8984,1.9171,1.9229,1.9359,1.943,1.943,1.943,1.9403,1.9363,1.9336,1.931,1.9172,1.9172,1.9185,1.9145,1.9105,1.9172,1.2501,1.2501,1.2501,1.2501,1.2501,1.2501,1.2501,1.2501,1.2501,1.2501,1.2501,1.2501,1.2501,1.2501,1.2501,1.2501,1.2501,1.2501,1.242,1.2325,1.2345,1.2244,1.1993,1.2108,1.2128,1.2101,1.2142,1.2101,1.1965,1.1952,1.1904,1.1877,1.185,1.1816,1.1748,1.1735,1.1681,1.1647,1.1613,1.1586,1.1511,1.1504,1.145,1.1423,1.1382,1.1362,1.1301,1.1375,1.1355,1.1314,1.1362,1.1389,1.1389,1.1369,1.1294,1.1111,1.1063,1.1036,1.0962,1.1023,1.1084,1.105,1.1097,1.1097,1.1009,1.1009,1.0982,1.0799,1.0744,1.0717,1.0717,1.0717,1.0717,1.0717,1.0717,1.0717,1.0717,1.0717,1.0717,1.0717,1.1235,1.1693,1.1685,1.2241,1.3016,1.3367,1.3642,1.4605,1.5835,1.6095,1.6298,1.6831,1.7504,1.7445,1.7516,1.6795,1.6439,1.7622,1.8328,1.8504,1.9004,1.9089,1.9283,1.943,1.943,1.943,1.9417,1.9377,1.9403,1.943,1.9377,1.935,1.939,1.9417,1.943,1.2501,1.2501,1.2501,1.2501,1.2501,1.2501,1.2501,1.2501,1.2501,1.2501,1.2501,1.2501,1.2501,1.2501,1.2501,1.2501,1.2501,1.2501,1.244,1.2393,1.2433,1.2345,1.2216,1.2237,1.2305,1.2244,1.2311,1.2257,1.2135,1.2108,1.2094,1.2033,1.2047,1.1986,1.185,1.1809,1.1742,1.166,1.1619,1.1619,1.1619,1.1619,1.1619,1.1619,1.1619,1.1545,1.1463,1.1525,1.1531,1.1497,1.1531,1.1606,1.1613,1.1613,1.1504,1.1301,1.1233,1.1199,1.1234,1.1199,1.1185,1.1124,1.1212,1.1219,1.122,1.1111,1.109,1.0962,1.086,1.0751,1.0731,1.0717,1.0717,1.0717,1.0717,1.0717,1.0717,1.0717,1.0717,1.0717,1.0717,1.0829,1.1059,1.1103,1.19,1.2024,1.2258,1.3098,1.4141,1.4321,1.4559,1.4821,1.5123,1.5002,1.5013,1.5043,1.5245,1.6353,1.6894,1.7134,1.8017,1.8782,1.8979,1.92,1.943,1.943,1.943,1.943,1.943,1.943,1.943,1.943,1.943,1.943,1.943,1.2501,1.2501,1.2501,1.2501,1.2501,1.2501,1.2501,1.2501,1.2501,1.2501,1.2501,1.2501,1.2501,1.2501,1.2501,1.2501,1.2501,1.2501,1.2488,1.2461,1.2481,1.2413,1.2291,1.2413,1.2366,1.2318,1.24,1.2386,1.2291,1.2264,1.2196,1.2121,1.2088,1.1993,1.1877,1.1843,1.1755,1.1647,1.1619,1.1619,1.1619,1.1619,1.1619,1.1619,1.1613,1.1606,1.1565,1.1606,1.1592,1.1592,1.1599,1.1619,1.1619,1.1619,1.1613,1.1538,1.1443,1.1307,1.124,1.1301,1.1321,1.1294,1.1389,1.1382,1.1294,1.1261,1.1131,1.09,1.086,1.088,1.0799,1.0744,1.0731,1.0738,1.0751,1.0738,1.0724,1.0717,1.0717,1.0717,1.0717,1.0717,1.0829,1.0763,1.0816,1.0826,1.1076,1.1865,1.2441,1.2699,1.2969,1.3243,1.3234,1.3172,1.3163,1.3058,1.3815,1.4951,1.5319,1.5748,1.6911,1.7865,1.8618,1.8805,1.9148,1.9439,1.9452,1.9511,1.9457,1.943,1.943,1.943,1.943,1.943,1.943,1.2501,1.2501,1.2501,1.2501,1.2501,1.2501,1.2501,1.2501,1.2501,1.2501,1.2501,1.2501,1.2501,1.2501,1.2501,1.2501,1.2501,1.2501,1.2501,1.2501,1.2488,1.2427,1.2325,1.2345,1.2332,1.2338,1.2352,1.2406,1.2379,1.24,1.2366,1.2305,1.2223,1.2121,1.1945,1.187,1.1755,1.166,1.1619,1.1619,1.1619,1.1619,1.1619,1.1619,1.1619,1.1619,1.1619,1.1619,1.1619,1.1619,1.1619,1.1619,1.1619,1.1619,1.1619,1.1613,1.1565,1.1491,1.145,1.1484,1.1457,1.1457,1.1531,1.1538,1.1423,1.1335,1.1274,1.1212,1.1118,1.1036,1.0982,1.0975,1.0914,1.088,1.0839,1.0778,1.0751,1.0724,1.0717,1.0717,1.0717,1.0717,1.0717,1.0717,1.0704,1.0736,1.0733,1.1092,1.1313,1.1258,1.1507,1.1799,1.1673,1.1484,1.1469,1.1469,1.234,1.3233,1.3662,1.4337,1.5762,1.6764,1.7462,1.8494,1.9168,1.941,1.9522,1.9506,1.9426,1.9444,1.943,1.943,1.943,1.943,1.943,1.2501,1.2501,1.2501,1.2501,1.2501,1.2501,1.2501,1.2501,1.2501,1.2501,1.2501,1.2501,1.2501,1.2501,1.2501,1.2501,1.2501,1.2501,1.2501,1.2501,1.2488,1.2447,1.2393,1.2359,1.2359,1.2338,1.2372,1.2413,1.2467,1.2488,1.2481,1.2494,1.2332,1.2203,1.2054,1.1904,1.1762,1.1633,1.1619,1.1619,1.1619,1.1619,1.1619,1.1619,1.1619,1.1619,1.1619,1.1619,1.1619,1.1619,1.1619,1.1619,1.1619,1.1619,1.1619,1.1619,1.1599,1.1592,1.1579,1.1592,1.1619,1.1619,1.1619,1.1606,1.1592,1.1504,1.1409,1.1362,1.1287,1.1212,1.1172,1.1145,1.109,1.1009,1.0955,1.0873,1.0806,1.0778,1.0744,1.0717,1.0717,1.0717,1.0717,1.0717,1.0711,1.0704,1.0643,1.0561,1.0565,1.049,1.0755,1.1127,1.107,1.0884,1.0812,1.0913,1.146,1.1749,1.2123,1.2965,1.4386,1.5471,1.622,1.7399,1.8692,1.9365,1.945,1.9469,1.9452,1.9457,1.943,1.943,1.943,1.943,1.943,1.2501,1.2501,1.2501,1.2501,1.2501,1.2501,1.2501,1.2501,1.2501,1.2501,1.2501,1.2501,1.2501,1.2501,1.2501,1.2501,1.2501,1.2501,1.2501,1.2501,1.2494,1.2488,1.2461,1.2454,1.2461,1.2447,1.242,1.244,1.2474,1.2427,1.2461,1.2474,1.2311,1.2196,1.2047,1.187,1.1748,1.164,1.1619,1.1619,1.1619,1.1619,1.1619,1.1619,1.1619,1.1619,1.1619,1.1619,1.1619,1.1619,1.1619,1.1619,1.1619,1.1619,1.1619,1.1619,1.1619,1.1619,1.1619,1.1619,1.1619,1.1619,1.1619,1.1619,1.1613,1.1613,1.1538,1.1436,1.1396,1.1328,1.124,1.1165,1.1212,1.1151,1.1097,1.1016,1.0934,1.0846,1.0806,1.0744,1.0751,1.0799,1.0778,1.0785,1.0738,1.0717,1.0711,1.0636,1.0649,1.0609,1.0636,1.084,1.0788,1.0729,1.0736,1.0958,1.1084,1.1135,1.133,1.2076,1.3093,1.4042,1.5125,1.6223,1.7446,1.8459,1.9262,1.9056,1.9073,1.9317,1.9457,1.9533,1.9519,1.9492,1.9439,1.2501,1.2501,1.2501,1.2501,1.2501,1.2501,1.2501,1.2501,1.2501,1.2501,1.2501,1.2501,1.2501,1.2501,1.2501,1.2501,1.2501,1.2501,1.2501,1.2501,1.2501,1.2501,1.2501,1.2488,1.2461,1.24,1.2379,1.2305,1.2223,1.2298,1.2244,1.2203,1.2196,1.206,1.1918,1.1796,1.1687,1.1647,1.1619,1.1619,1.1619,1.1619,1.1619,1.1619,1.1619,1.1619,1.1619,1.1619,1.1619,1.1619,1.1619,1.1619,1.1619,1.1619,1.1619,1.1619,1.1619,1.1619,1.1619,1.1619,1.1619,1.1619,1.1619,1.1619,1.1619,1.1619,1.1599,1.1552,1.1525,1.1457,1.1463,1.1436,1.143,1.1328,1.124,1.1158,1.1077,1.0982,1.0941,1.0914,1.0941,1.0982,1.0928,1.0806,1.0739,1.0744,1.0731,1.0717,1.0717,1.0717,1.0717,1.0717,1.0717,1.0717,1.0717,1.0717,1.0717,1.0717,1.0717,1.1372,1.215,1.3119,1.417,1.5228,1.6074,1.6779,1.7529,1.8225,1.8654,1.8988,1.9437,1.9853,1.9773,1.9639,1.9546,1.2501,1.2501,1.2501,1.2501,1.2501,1.2501,1.2501,1.2501,1.2501,1.2501,1.2501,1.2501,1.2501,1.2501,1.2501,1.2501,1.2501,1.2501,1.2501,1.2501,1.2501,1.2501,1.2501,1.2494,1.2461,1.2366,1.2345,1.2305,1.2257,1.2203,1.221,1.2176,1.2074,1.1979,1.1843,1.1694,1.1619,1.1619,1.1619,1.1619,1.1619,1.1619,1.1619,1.1619,1.1619,1.1619,1.1619,1.1619,1.1619,1.1619,1.1619,1.1619,1.1619,1.1619,1.1619,1.1619,1.1619,1.1619,1.1619,1.1619,1.1619,1.1619,1.1619,1.1619,1.1619,1.1619,1.1606,1.1606,1.1606,1.1619,1.1619,1.1579,1.1552,1.1457,1.1362,1.1287,1.1226,1.1145,1.1124,1.1104,1.1118,1.1097,1.107,1.0995,1.088,1.0799,1.0731,1.0724,1.0717,1.0717,1.0717,1.0717,1.0717,1.0717,1.0717,1.0717,1.0717,1.0717,1.0717,1.0717,1.1439,1.2281,1.3128,1.4047,1.4706,1.5138,1.5882,1.6907,1.7916,1.8797,1.9378,2.012,1.9987,1.984,1.9693,1.2501,1.2501,1.2501,1.2501,1.2501,1.2501,1.2501,1.2501,1.2501,1.2501,1.2501,1.2501,1.2501,1.2501,1.2501,1.2501,1.2501,1.2501,1.2501,1.2501,1.2501,1.2501,1.2501,1.2494,1.2474,1.2494,1.244,1.2406,1.2406,1.2338,1.2311,1.223,1.2101,1.1972,1.183,1.1694,1.1626,1.1619,1.1619,1.1619,1.1619,1.1619,1.1619,1.1619,1.1619,1.1619,1.1619,1.1619,1.1619,1.1619,1.1619,1.1619,1.1619,1.1619,1.1619,1.1619,1.1619,1.1619,1.1619,1.1619,1.1619,1.1619,1.1619,1.1619,1.1619,1.1619,1.1619,1.1619,1.1619,1.1619,1.1619,1.1613,1.1599,1.1565,1.147,1.1423,1.1362,1.1335,1.1314,1.1307,1.1233,1.1172,1.1165,1.1118,1.0975,1.0867,1.0765,1.0738,1.0772,1.0765,1.0778,1.0758,1.0758,1.0717,1.0717,1.0717,1.0717,1.0717,1.0717,1.0717,1.0717,1.124,1.2091,1.2931,1.3234,1.3453,1.4512,1.5752,1.7022,1.8346,1.9649,2.026,2.0187,2.008,1.9973,1.2501,1.2501,1.2501,1.2501,1.2501,1.2501,1.2501,1.2501,1.2501,1.2501,1.2501,1.2501,1.2501,1.2501,1.2501,1.2501,1.2501,1.2501,1.2501,1.2501,1.2501,1.2501,1.2501,1.2494,1.2461,1.2386,1.2359,1.2325,1.2189,1.2271,1.2223,1.2196,1.2108,1.1925,1.1748,1.1633,1.1619,1.1619,1.1619,1.1619,1.1619,1.1619,1.1619,1.1619,1.1619,1.1619,1.1619,1.1619,1.1619,1.1619,1.1619,1.1619,1.1619,1.1619,1.1619,1.1619,1.1619,1.1619,1.1619,1.1619,1.1619,1.1619,1.1619,1.1619,1.1619,1.1619,1.1619,1.1619,1.1619,1.1619,1.1619,1.1619,1.1613,1.1613,1.1558,1.1558,1.1525,1.1518,1.1504,1.1511,1.147,1.1375,1.1335,1.1287,1.1158,1.1111,1.1036,1.0982,1.1002,1.0921,1.0826,1.0846,1.0819,1.0751,1.0724,1.0792,1.0778,1.0758,1.0738,1.0717,1.0717,1.0717,1.0982,1.1828,1.1754,1.1813,1.3021,1.441,1.6401,1.7984,1.9387,2.0416,2.0508,2.0428,2.0361,1.2501,1.2501,1.2501,1.2501,1.2501,1.2501,1.2501,1.2501,1.2501,1.2501,1.2501,1.2501,1.2501,1.2501,1.2501,1.2501,1.2501,1.2501,1.2501,1.2501,1.2501,1.2501,1.2501,1.2494,1.2467,1.2372,1.2352,1.2318,1.2277,1.223,1.221,1.2182,1.2135,1.2026,1.185,1.1755,1.1667,1.1647,1.1619,1.1619,1.1619,1.1619,1.1619,1.1619,1.1619,1.1619,1.1619,1.1619,1.1619,1.1619,1.1619,1.1619,1.1619,1.1619,1.1619,1.1619,1.1619,1.1619,1.1619,1.1619,1.1619,1.1619,1.1619,1.1619,1.1619,1.1619,1.1619,1.1619,1.1619,1.1619,1.1619,1.1619,1.1619,1.1619,1.1613,1.1613,1.1606,1.1592,1.1586,1.1606,1.1606,1.1531,1.1484,1.1436,1.1355,1.1341,1.1321,1.1267,1.1199,1.1104,1.0954,1.0989,1.0962,1.0928,1.0914,1.0928,1.0894,1.0812,1.0799,1.0792,1.0717,1.0717,1.0717,1.0724,1.0982,1.1314,1.1762,1.3111,1.555,1.7686,1.946,2.0205,2.0704,2.0722,2.0615,1.2501,1.2501,1.2501,1.2501,1.2501,1.2501,1.2501,1.2501,1.2501,1.2501,1.2501,1.2501,1.2501,1.2501,1.2501,1.2501,1.2501,1.2501,1.2501,1.2501,1.2501,1.2501,1.2501,1.2501,1.2481,1.2488,1.2474,1.244,1.2474,1.2427,1.2366,1.2318,1.2291,1.2176,1.2047,1.1938,1.1809,1.1714,1.1667,1.1653,1.1633,1.1619,1.1619,1.1619,1.1619,1.1619,1.1619,1.1619,1.1619,1.1619,1.1619,1.1619,1.1619,1.1619,1.1619,1.1619,1.1619,1.1619,1.1619,1.1619,1.1619,1.1619,1.1619,1.1619,1.1619,1.1619,1.1619,1.1619,1.1619,1.1619,1.1619,1.1619,1.1619,1.1619,1.1619,1.1619,1.1619,1.1613,1.1613,1.1619,1.1619,1.1586,1.1579,1.1538,1.1484,1.1497,1.1463,1.1416,1.1341,1.124,1.1172,1.1158,1.1138,1.1131,1.1111,1.107,1.1029,1.0955,1.0948,1.0928,1.0833,1.0785,1.0839,1.0853,1.0772,1.0937,1.1314,1.2873,1.52,1.7152,1.8832,2.017,2.0697,2.0855,2.0748,1.2501,1.2501,1.2501,1.2501,1.2501,1.2501,1.2501,1.2501,1.2501,1.2501,1.2501,1.2501,1.2501,1.2501,1.2501,1.2501,1.2501,1.2501,1.2501,1.2501,1.2501,1.2501,1.2501,1.2501,1.2501,1.2501,1.2501,1.2501,1.2494,1.2501,1.2494,1.2447,1.242,1.2338,1.225,1.2176,1.1993,1.1837,1.1782,1.1708,1.1647,1.1626,1.1619,1.1619,1.1619,1.1619,1.1619,1.1619,1.1619,1.1619,1.1619,1.1619,1.1619,1.1619,1.1619,1.1619,1.1619,1.1619,1.1619,1.1619,1.1619,1.1619,1.1619,1.1619,1.1619,1.1619,1.1619,1.1619,1.1619,1.1619,1.1619,1.1619,1.1619,1.1619,1.1619,1.1619,1.1619,1.1619,1.1619,1.1619,1.1619,1.1619,1.1619,1.1606,1.1558,1.1599,1.1592,1.1538,1.1484,1.1382,1.1328,1.1321,1.1287,1.1267,1.1275,1.1227,1.1207,1.1104,1.1097,1.1084,1.1029,1.1002,1.1023,1.0995,1.0921,1.0819,1.0797,1.2626,1.4754,1.6118,1.7731,1.9355,2.0626,2.0711,2.0922,1.2501,1.2501,1.2501,1.2501,1.2501,1.2501,1.2501,1.2501,1.2501,1.2501,1.2501,1.2501,1.2501,1.2501,1.2501,1.2501,1.2501,1.2501,1.2501,1.2501,1.2501,1.2501,1.2501,1.2501,1.2501,1.2501,1.2501,1.2501,1.2501,1.2501,1.2494,1.2494,1.2501,1.2454,1.2393,1.2345,1.2244,1.2054,1.1904,1.1796,1.1728,1.1653,1.1626,1.1626,1.1626,1.1619,1.1619,1.1619,1.1619,1.1619,1.1619,1.1619,1.1619,1.1619,1.1619,1.1619,1.1619,1.1619,1.1619,1.1619,1.1619,1.1619,1.1619,1.1619,1.1619,1.1619,1.1619,1.1619,1.1619,1.1619,1.1619,1.1619,1.1619,1.1619,1.1619,1.1619,1.1619,1.1619,1.1619,1.1619,1.1619,1.1619,1.1619,1.1619,1.1619,1.1619,1.1619,1.1599,1.1565,1.1525,1.1484,1.1477,1.1436,1.1396,1.1335,1.1294,1.1294,1.128,1.1253,1.1233,1.1275,1.1158,1.1124,1.1104,1.1084,1.0968,1.0853,1.2273,1.4046,1.5371,1.6742,1.8524,1.989,2.055,2.079,1.2488,1.2501,1.2501,1.2501,1.2501,1.2501,1.2501,1.2501,1.2501,1.2501,1.2501,1.2501,1.2501,1.2501,1.2501,1.2501,1.2501,1.2501,1.2501,1.2501,1.2501,1.2501,1.2501,1.2501,1.2501,1.2501,1.2501,1.2501,1.2501,1.2501,1.2501,1.2501,1.2501,1.2481,1.2467,1.2467,1.2379,1.2264,1.206,1.1911,1.183,1.1735,1.1633,1.1647,1.1633,1.1619,1.1619,1.1619,1.1619,1.1619,1.1619,1.1619,1.1619,1.1619,1.1619,1.1619,1.1619,1.1619,1.1619,1.1619,1.1619,1.1619,1.1619,1.1619,1.1619,1.1619,1.1619,1.1619,1.1619,1.1619,1.1619,1.1619,1.1619,1.1619,1.1619,1.1619,1.1619,1.1619,1.1619,1.1619,1.1619,1.1619,1.1619,1.1619,1.1619,1.1619,1.1619,1.1619,1.1613,1.1599,1.1592,1.1586,1.1545,1.1504,1.1518,1.1484,1.1477,1.1463,1.1416,1.1389,1.1355,1.1287,1.1206,1.1206,1.1206,1.1111,1.1281,1.2315,1.3126,1.4241,1.5823,1.768,1.9008,2.0043,2.0779,1.2406,1.2501,1.2501,1.2501,1.2501,1.2501,1.2501,1.2501,1.2501,1.2501,1.2501,1.2501,1.2501,1.2501,1.2501,1.2501,1.2501,1.2501,1.2501,1.2501,1.2501,1.2501,1.2501,1.2501,1.2501,1.2501,1.2501,1.2501,1.2501,1.2501,1.2501,1.2501,1.2501,1.2501,1.2501,1.2501,1.2461,1.2406,1.2271,1.2101,1.2013,1.1884,1.1782,1.1742,1.1708,1.1633,1.1626,1.1619,1.1619,1.1619,1.1619,1.1619,1.1619,1.1619,1.1619,1.1619,1.1619,1.1619,1.1619,1.1619,1.1619,1.1619,1.1619,1.1619,1.1619,1.1619,1.1619,1.1619,1.1619,1.1619,1.1619,1.1619,1.1619,1.1619,1.1619,1.1619,1.1619,1.1619,1.1619,1.1619,1.1619,1.1619,1.1619,1.1619,1.1619,1.1619,1.1619,1.1619,1.1619,1.1613,1.1606,1.1606,1.1606,1.1592,1.1619,1.1613,1.1572,1.1565,1.1531,1.1511,1.1491,1.145,1.1389,1.1355,1.1321,1.124,1.1179,1.1331,1.2217,1.3267,1.4721,1.6626,1.843,1.9656,2.0463,1.2427,1.2501,1.2501,1.2501,1.2501,1.2501,1.2501,1.2501,1.2501,1.2501,1.2501,1.2501,1.2501,1.2501,1.2501,1.2501,1.2501,1.2501,1.2501,1.2501,1.2501,1.2501,1.2501,1.2501,1.2501,1.2501,1.2501,1.2501,1.2501,1.2501,1.2501,1.2501,1.2501,1.2501,1.2501,1.2501,1.2501,1.2494,1.2406,1.2332,1.221,1.2067,1.1898,1.183,1.1762,1.1687,1.1626,1.1619,1.1619,1.1619,1.1619,1.1619,1.1619,1.1619,1.1619,1.1619,1.1619,1.1619,1.1619,1.1619,1.1619,1.1619,1.1619,1.1619,1.1619,1.1619,1.1619,1.1619,1.1619,1.1619,1.1619,1.1619,1.1619,1.1619,1.1619,1.1619,1.1619,1.1619,1.1619,1.1619,1.1619,1.1619,1.1619,1.1619,1.1619,1.1619,1.1619,1.1619,1.1619,1.1619,1.1619,1.1619,1.1619,1.1619,1.1619,1.1619,1.1606,1.1613,1.1619,1.1592,1.1558,1.1586,1.1579,1.1504,1.145,1.1409,1.1341,1.128,1.1331,1.2125,1.3747,1.55,1.7335,1.9155,2.0142,1.2481,1.2501,1.2501,1.2501,1.2501,1.2501,1.2501,1.2501,1.2501,1.2501,1.2501,1.2501,1.2501,1.2501,1.2501,1.2501,1.2501,1.2501,1.2501,1.2501,1.2501,1.2501,1.2501,1.2501,1.2501,1.2501,1.2501,1.2501,1.2501,1.2501,1.2501,1.2501,1.2501,1.2501,1.2501,1.2501,1.2501,1.2501,1.2474,1.2488,1.2379,1.2244,1.2067,1.1938,1.1843,1.1769,1.1681,1.1626,1.1626,1.1619,1.1619,1.1619,1.1619,1.1619,1.1619,1.1619,1.1619,1.1619,1.1619,1.1619,1.1619,1.1619,1.1619,1.1619,1.1619,1.1619,1.1619,1.1619,1.1619,1.1619,1.1619,1.1619,1.1619,1.1619,1.1619,1.1619,1.1619,1.1619,1.1619,1.1619,1.1619,1.1619,1.1619,1.1619,1.1619,1.1619,1.1619,1.1619,1.1619,1.1619,1.1619,1.1619,1.1619,1.1619,1.1619,1.1619,1.1619,1.1619,1.1619,1.1619,1.1619,1.1619,1.1619,1.1613,1.1558,1.1511,1.1484,1.143,1.1475,1.1525,1.3117,1.4964,1.6634,1.8426,1.9858,1.24,1.2501,1.2501,1.2501,1.2501,1.2501,1.2501,1.2501,1.2501,1.2501,1.2501,1.2501,1.2501,1.2501,1.2501,1.2501,1.2501,1.2501,1.2501,1.2501,1.2501,1.2501,1.2501,1.2501,1.2501,1.2501,1.2501,1.2501,1.2501,1.2501,1.2501,1.2501,1.2501,1.2501,1.2501,1.2501,1.2501,1.2501,1.2501,1.2501,1.2461,1.2352,1.2271,1.2121,1.1959,1.1864,1.1769,1.1674,1.1633,1.1619,1.1619,1.1619,1.1619,1.1619,1.1619,1.1619,1.1619,1.1619,1.1619,1.1619,1.1619,1.1619,1.1619,1.1619,1.1619,1.1619,1.1619,1.1619,1.1619,1.1619,1.1619,1.1619,1.1619,1.1619,1.1619,1.1619,1.1619,1.1619,1.1619,1.1619,1.1619,1.1619,1.1619,1.1619,1.1619,1.1619,1.1619,1.1619,1.1619,1.1619,1.1619,1.1619,1.1619,1.1619,1.1619,1.1619,1.1619,1.1619,1.1619,1.1619,1.1619,1.1619,1.1619,1.1619,1.1619,1.1586,1.1558,1.1525,1.1525,1.1733,1.3045,1.4561,1.6177,1.7723,1.9307]}]]